GFSSW_sfc_30mbdewp_000.txt.gz
Dewpoint
52 52 51 51 51 51 53 53 53 53 54 54 54 53 53 54 55 55 51 52 59 62 59 51 51 48 49 43 40 38 33 29 25 24 25 29 29 33 34 31 30 39 39 43 47
50 50 50 50 50 51 52 52 52 52 52 53 53 53 53 54 53 51 53 52 58 63 57 47 46 47 44 40 38 36 34 32 31 27 32 32 31 32 33 32 31 38 50 51 52
49 49 49 50 50 51 51 51 51 51 52 52 52 52 53 53 48 45 52 53 54 62 62 53 46 44 42 41 39 37 34 35 35 35 36 33 31 32 30 31 32 31 43 51 52
49 49 49 49 49 50 51 51 51 51 51 51 51 51 53 52 34 42 49 52 56 60 60 55 47 43 42 41 42 38 38 36 36 37 35 31 32 31 31 30 33 34 36 51 51
49 49 49 49 49 50 51 51 50 51 50 51 51 51 51 45 42 44 50 51 54 60 59 51 44 43 41 41 41 39 39 39 39 37 34 32 30 31 31 31 32 33 41 49 51
49 50 50 49 49 49 49 49 50 51 50 50 51 52 48 40 44 44 46 50 55 59 58 51 44 44 42 42 40 39 36 34 33 32 33 32 31 31 31 31 30 32 39 46 50
49 49 50 50 49 49 49 48 49 51 50 50 51 51 47 40 43 42 42 51 57 58 55 50 47 44 43 42 40 35 35 35 32 32 31 31 29 27 29 29 28 29 32 36 43
49 49 50 49 50 50 49 49 48 50 50 50 52 50 41 45 46 45 47 48 53 58 55 52 51 46 44 41 33 30 31 29 30 32 32 30 27 28 29 29 28 28 30 29 30
50 50 50 50 49 50 50 49 49 50 51 52 49 46 38 51 47 44 45 47 51 56 57 54 49 45 43 40 33 31 28 27 27 29 29 29 27 28 29 28 27 28 26 30 33
50 52 54 53 52 52 52 51 51 52 51 50 49 42 43 44 46 46 47 47 52 53 53 53 51 43 39 35 33 29 28 27 26 25 29 27 28 28 28 24 25 25 30 33 34
51 52 52 54 54 52 51 49 45 42 48 41 42 40 41 45 48 46 49 48 53 52 47 50 46 42 42 37 33 30 27 25 25 26 27 27 27 27 27 24 25 29 31 34 36
51 51 51 53 53 53 51 47 44 43 40 42 42 43 48 45 41 47 52 48 48 44 47 47 42 44 43 39 30 30 27 24 26 28 26 25 24 26 21 25 29 31 33 35 36
51 51 53 53 53 53 50 48 52 48 36 39 42 39 42 44 44 47 52 50 45 43 45 42 43 45 39 35 32 29 27 25 27 29 28 27 26 21 25 29 32 33 34 35 37
52 53 53 53 50 52 50 52 53 51 34 36 40 39 45 46 44 52 53 49 44 41 43 42 39 41 39 32 28 27 28 27 28 26 23 27 21 20 25 29 31 32 33 34 36
54 54 53 53 52 48 51 54 53 48 25 37 40 50 48 43 47 47 52 49 42 41 41 39 36 37 32 31 29 27 30 28 26 25 24 24 23 22 25 27 30 31 32 33 36
54 54 53 53 53 53 54 54 50 35 26 36 44 43 40 45 44 46 48 48 46 40 37 33 33 33 30 30 30 31 27 27 27 25 22 23 23 21 24 25 29 32 32 33 36
53 54 53 54 49 55 54 49 34 30 39 37 39 41 39 40 41 44 43 43 40 34 35 33 26 23 28 25 24 26 26 24 23 23 21 23 23 23 24 28 29 32 32 32 36
53 53 53 50 54 54 51 42 32 36 37 41 39 39 38 39 40 41 40 37 36 31 30 29 24 22 21 26 25 25 26 24 22 22 22 21 19 20 24 28 31 33 33 33 36
52 51 49 51 54 52 46 38 36 38 39 39 38 37 39 39 37 38 37 33 33 31 26 25 25 26 25 22 25 23 24 28 26 26 24 24 25 23 30 31 32 33 33 33 35
49 46 47 51 52 50 45 40 41 42 40 40 36 38 36 34 34 34 35 36 36 35 36 29 24 28 25 25 23 25 26 24 25 22 19 20 21 22 27 30 32 33 33 33 34
46 43 49 50 51 48 40 40 44 41 44 43 39 38 35 34 32 33 37 39 40 38 38 33 28 29 27 26 26 24 21 20 24 23 20 18 20 24 24 30 32 33 34 34 34
46 37 50 50 42 42 41 44 46 45 47 45 37 35 37 39 35 37 37 39 41 39 37 38 32 27 29 30 29 27 25 22 20 20 22 20 19 24 26 27 30 32 34 35 35
40 41 50 49 39 39 39 41 44 44 43 42 42 42 40 39 36 38 38 41 41 40 37 37 34 30 30 31 33 30 28 25 26 26 24 21 20 26 30 25 30 32 35 34 37
42 35 38 40 40 38 36 37 39 43 41 40 40 41 40 37 38 37 38 39 39 38 38 35 31 29 27 28 31 29 31 28 25 23 21 23 22 25 27 28 31 32 34 35 38
38 35 38 33 34 35 34 35 35 35 38 39 37 36 37 35 35 36 37 36 36 36 34 31 26 27 27 26 26 28 29 31 29 27 22 22 23 24 26 26 28 29 33 37 34
36 35 36 35 33 32 32 31 32 33 34 36 36 34 34 33 34 35 35 35 34 34 33 31 26 23 19 20 21 18 20 20 23 27 28 27 22 25 27 29 34 35 35 35 32
42 41 33 34 31 30 31 30 31 33 31 33 34 31 30 27 28 33 35 34 34 32 30 26 21 17 11 24 23 19 24 23 20 20 18 18 20 25 27 32 34 35 35 33 31

GFSSW_sfc_30mbdewp_003.txt.gz
Dewpoint
51 52 52 52 52 52 52 53 54 55 55 55 55 55 54 54 55 54 50 51 54 60 62 55 54 50 49 47 40 37 33 31 29 24 23 30 32 32 33 32 32 39 41 45 47
50 51 51 51 51 51 52 53 53 54 54 54 54 54 54 54 52 50 52 53 54 59 59 50 49 48 45 44 38 36 34 34 33 27 27 33 33 32 32 31 32 33 49 51 52
49 49 50 50 50 51 52 52 52 53 53 53 53 54 54 53 46 43 49 52 52 55 60 54 48 46 44 41 38 37 35 35 35 33 36 36 35 33 30 30 31 31 34 49 51
50 50 50 50 50 50 51 51 52 52 52 53 53 53 53 51 33 43 47 50 52 53 55 57 51 44 43 41 42 37 38 37 37 37 38 37 34 33 31 30 32 33 33 47 50
49 50 50 50 49 49 50 51 52 52 52 52 52 52 51 45 41 44 48 50 51 52 54 55 45 43 41 41 42 40 40 40 40 40 37 36 32 32 31 32 32 32 34 42 50
49 49 50 50 50 50 50 51 52 51 52 52 52 52 48 38 44 44 44 47 51 51 57 57 46 44 43 42 41 41 40 40 36 36 33 32 31 32 31 32 31 30 30 39 49
49 48 49 50 50 50 49 49 50 51 51 51 51 50 46 40 43 45 42 44 51 52 56 57 50 44 44 42 43 39 37 35 34 35 34 32 30 29 31 30 29 28 29 32 38
50 50 49 49 50 50 50 49 49 50 51 51 51 49 41 45 46 46 45 46 51 54 58 56 48 45 44 42 33 31 32 30 32 31 31 31 27 30 32 29 28 29 28 29 33
50 50 52 52 50 51 51 51 50 50 51 51 48 46 39 45 44 44 44 46 48 53 58 55 48 45 44 41 37 31 29 28 28 29 29 30 26 28 30 28 27 27 30 33 36
49 51 52 53 54 53 51 51 50 50 50 47 47 41 42 40 44 44 43 44 50 49 54 53 48 44 42 40 37 32 30 29 28 27 29 27 27 28 29 26 24 27 32 34 36
50 51 51 52 54 55 51 47 42 42 44 40 41 41 40 43 45 42 43 44 49 48 46 50 45 41 42 42 40 33 29 26 26 27 25 26 27 27 28 26 24 29 32 34 36
51 50 51 52 54 53 51 42 42 42 39 43 42 42 43 46 43 42 44 42 46 41 46 46 42 43 44 39 35 31 29 28 28 29 26 26 26 27 25 24 26 30 33 35 36
51 51 53 54 54 52 46 44 50 50 39 39 42 42 42 44 41 44 44 45 43 41 44 40 42 46 43 42 37 33 30 32 30 28 28 27 26 27 23 27 30 32 34 36 37
52 53 53 54 50 50 48 51 52 51 33 34 38 39 39 42 39 48 47 46 42 39 43 43 42 45 42 39 40 39 31 30 28 27 25 27 23 23 23 27 30 32 34 35 37
53 54 53 53 52 48 50 52 52 48 16 34 38 47 42 40 44 45 52 50 39 39 44 40 41 42 43 40 35 38 29 28 27 26 24 24 23 24 23 26 29 31 31 34 37
53 53 54 53 52 52 54 52 46 33 25 35 40 38 40 41 42 47 47 50 42 41 38 36 41 43 40 39 32 30 28 27 27 25 23 24 23 22 22 24 28 30 31 34 37
52 53 54 54 48 55 54 48 33 28 35 35 35 38 38 39 42 44 44 43 38 36 36 30 34 34 31 29 29 28 26 25 24 24 23 24 23 23 24 24 27 30 30 34 37
52 53 53 52 55 54 50 39 28 35 35 39 39 37 35 38 41 44 42 40 39 35 34 30 31 27 24 26 26 27 27 25 20 21 21 23 21 21 27 27 28 31 30 33 36
53 51 50 52 55 53 44 31 35 37 39 38 38 34 37 39 40 41 40 38 36 35 31 27 28 25 23 23 27 23 25 28 26 27 25 23 24 24 29 29 30 30 31 32 35
49 47 47 51 54 50 41 38 40 40 39 38 34 38 35 36 37 38 37 38 33 32 31 28 23 27 24 24 22 25 26 25 25 24 22 21 21 22 25 28 30 30 30 32 35
47 43 50 53 53 46 40 40 40 40 41 37 36 38 35 35 36 37 37 38 38 35 37 29 25 28 25 25 24 21 22 22 25 24 20 19 19 23 24 29 30 31 31 32 34
46 40 50 52 44 44 40 45 40 40 47 45 40 35 34 32 33 36 36 37 41 38 37 36 29 25 26 30 28 26 23 21 21 20 21 19 19 24 25 30 32 32 33 34 34
41 45 50 49 40 40 44 44 44 44 44 41 35 35 38 33 35 38 38 40 41 39 37 36 31 28 30 31 32 28 27 23 25 25 22 19 19 25 27 28 29 31 33 34 35
43 36 45 47 42 40 39 42 42 45 41 41 41 40 38 36 37 37 38 38 38 38 38 35 32 27 24 28 30 29 28 26 25 23 22 22 21 24 25 26 30 32 34 34 36
40 33 37 35 36 36 35 39 40 39 41 41 39 39 37 35 35 36 37 36 36 36 34 29 28 27 27 27 30 30 29 27 24 24 22 22 23 23 25 26 26 28 31 35 36
38 36 36 35 34 33 33 32 33 35 39 39 39 39 38 34 34 35 36 36 35 34 32 29 27 23 21 21 20 21 24 30 29 29 26 27 25 24 27 30 33 34 33 35 35
42 42 34 34 31 30 31 32 32 31 32 36 36 35 37 32 31 33 34 33 33 32 29 24 23 20 19 22 22 16 19 20 19 20 21 18 18 26 30 33 33 35 34 35 33

GFSSW_sfc_30mbdewp_006.txt.gz
Dewpoint
50 51 51 52 53 53 53 53 54 56 57 56 56 56 56 55 55 53 50 51 52 56 62 58 56 52 49 47 40 36 33 31 31 27 25 28 33 34 34 33 32 35 39 43 50
50 50 50 50 51 52 52 52 53 54 55 55 55 56 56 55 52 50 51 52 53 55 57 55 52 50 45 46 39 36 34 34 33 29 27 32 35 35 33 31 30 32 42 49 50
50 49 49 50 50 50 52 52 52 53 54 55 55 55 55 53 46 44 49 52 52 53 56 58 51 48 44 41 39 37 35 36 35 34 32 36 37 36 33 31 31 30 32 39 48
49 49 50 50 50 50 50 51 52 52 53 53 54 54 54 50 35 47 51 49 51 52 53 57 54 45 44 42 41 37 37 36 37 37 37 37 37 35 33 32 33 33 34 35 43
49 49 50 50 50 50 50 50 51 52 52 53 53 53 51 45 41 42 48 46 50 51 51 54 48 44 43 42 41 39 39 40 40 40 40 39 35 33 32 33 33 33 32 32 40
49 49 49 50 51 50 50 50 51 52 51 52 53 53 47 39 42 44 44 43 48 50 51 54 50 44 43 42 42 41 41 40 40 39 36 35 35 33 32 33 31 30 30 30 35
50 50 50 49 50 50 50 50 49 51 51 51 52 50 45 40 43 45 45 42 43 50 49 54 56 44 43 42 43 41 40 39 37 36 35 34 32 32 32 31 30 29 29 30 31
51 51 51 51 50 50 50 50 49 50 51 51 51 48 40 44 44 43 44 45 45 51 50 56 56 47 44 41 37 38 34 36 35 32 32 31 24 27 31 31 30 28 29 34 38
50 49 50 52 52 52 51 51 51 50 50 50 47 44 38 45 43 45 43 43 49 50 53 55 53 47 44 40 34 31 33 31 32 30 30 31 27 24 30 28 27 26 32 35 37
50 49 49 51 52 53 52 50 50 49 49 47 46 40 40 40 43 43 44 42 47 49 49 53 49 45 43 40 36 34 32 31 30 29 29 27 27 28 29 27 27 26 33 36 37
50 51 50 51 51 54 54 49 42 40 43 40 39 38 40 40 45 43 43 41 46 46 43 48 45 42 42 42 39 37 31 33 30 28 27 26 26 26 28 28 26 27 33 35 37
52 52 52 51 53 54 51 42 39 41 37 41 43 40 41 44 42 42 41 42 44 35 43 46 41 43 43 42 41 35 31 30 30 29 27 27 27 27 28 26 25 28 33 35 37
52 52 53 53 54 53 47 42 50 45 38 39 40 41 41 42 40 41 41 42 41 31 41 40 43 43 42 39 39 35 35 35 33 30 29 27 26 26 25 26 29 32 34 36 36
52 52 52 54 50 50 47 49 51 45 32 34 37 39 42 42 38 43 41 42 40 32 40 43 45 43 41 41 40 39 36 34 31 30 25 27 24 25 24 25 29 32 35 36 38
53 52 53 54 50 48 50 51 51 47 20 34 37 42 43 39 40 42 41 41 39 35 41 41 43 44 42 40 42 40 36 35 32 27 25 25 23 24 23 24 28 31 34 36 38
53 53 53 52 52 52 53 51 47 32 21 33 38 36 38 37 39 42 43 46 43 37 41 39 43 44 44 43 40 37 33 28 27 25 24 25 24 22 23 23 27 31 32 35 38
53 52 52 53 48 54 52 46 31 25 34 33 33 36 36 35 38 40 38 39 36 34 35 34 41 39 42 38 32 34 33 29 24 24 23 24 23 23 24 24 26 30 31 35 38
53 53 52 52 55 53 48 37 26 32 31 36 36 34 33 35 37 37 39 39 41 33 34 33 32 34 30 38 36 34 32 25 21 22 22 24 22 21 26 30 28 31 31 35 37
53 49 50 52 54 51 40 30 31 33 37 37 35 31 33 35 40 39 38 38 39 34 31 34 32 26 26 28 38 28 29 28 26 26 25 26 23 25 28 28 29 30 31 35 37
47 46 47 52 54 48 37 33 38 40 39 35 31 34 33 35 37 37 38 40 39 36 32 29 25 27 23 23 23 27 28 26 26 23 22 23 21 23 23 26 30 30 30 34 36
46 43 50 53 53 44 34 34 41 40 39 36 36 35 35 34 38 36 37 39 38 34 32 27 25 27 24 24 25 24 24 25 26 25 21 19 19 23 23 25 29 30 31 34 36
45 41 51 52 42 42 37 44 41 41 45 42 39 37 35 36 36 37 37 36 38 37 33 31 27 24 25 30 27 24 23 24 24 22 22 20 22 24 26 26 31 31 32 33 35
41 45 51 50 40 41 44 41 41 41 43 42 37 37 34 35 36 39 40 40 40 37 34 33 29 28 29 30 32 27 24 23 24 23 21 20 20 25 26 30 32 32 33 33 34
43 39 45 47 45 42 41 40 41 45 44 42 37 37 35 36 38 37 39 39 40 38 39 35 31 26 27 27 29 28 27 24 24 23 22 21 22 23 25 28 30 31 33 34 35
41 35 40 38 40 39 40 41 41 40 42 40 38 35 35 35 36 37 36 36 36 37 35 31 28 28 26 29 30 28 27 26 24 24 24 24 23 23 25 26 27 29 31 34 36
38 35 37 35 34 35 34 37 36 36 38 38 38 38 36 36 35 36 36 36 35 34 32 30 27 24 21 22 23 26 29 27 26 25 24 25 24 26 29 30 33 34 34 34 36
41 42 35 34 32 31 33 33 35 34 36 38 38 37 33 35 32 35 34 33 34 31 29 25 24 23 22 22 20 19 21 29 28 27 27 25 25 26 31 32 32 33 34 34 35

GFSSW_sfc_30mbdewp_009.txt.gz
Dewpoint
50 50 50 51 52 53 53 53 54 55 57 57 58 57 57 56 55 53 50 49 51 52 55 57 57 56 49 47 39 36 33 32 31 29 30 27 33 35 35 34 33 33 38 42 50
51 50 50 49 50 51 52 53 53 54 54 55 55 56 56 56 52 50 52 52 52 52 53 56 53 51 46 45 40 36 35 34 34 31 29 29 35 36 36 34 32 32 35 45 49
50 50 50 50 50 51 51 52 53 53 53 54 55 55 55 53 47 45 50 53 53 52 52 55 57 50 46 43 40 38 36 36 36 35 32 34 37 38 35 33 32 30 32 34 42
49 49 49 50 50 50 50 51 52 53 53 54 54 55 54 48 36 44 51 52 52 53 51 53 55 48 46 43 40 38 37 37 37 37 38 37 38 38 36 35 34 34 34 33 33
49 49 50 50 50 50 50 50 51 52 52 53 53 53 51 46 43 44 47 45 46 52 50 51 51 46 46 44 41 38 39 39 39 39 40 40 39 38 35 35 35 34 33 32 31
50 50 50 50 50 51 51 51 50 51 52 52 52 52 47 40 43 43 44 43 42 50 50 51 51 45 45 43 43 42 41 40 41 40 39 37 38 35 37 35 34 32 31 30 31
50 51 51 50 50 50 50 50 50 50 52 52 52 50 45 41 43 45 45 44 42 46 49 51 53 44 44 43 43 42 40 40 39 39 38 36 35 34 35 33 32 31 29 33 38
51 51 52 52 51 51 50 50 50 50 50 51 51 48 40 45 45 44 43 43 44 44 49 50 52 50 44 41 40 41 38 38 39 33 33 32 31 29 30 32 31 28 32 37 40
51 50 50 49 50 53 53 51 51 51 50 50 48 46 39 44 44 43 42 41 45 49 50 49 50 50 45 39 36 36 37 36 37 35 35 31 27 29 29 29 28 27 33 36 38
51 51 51 49 50 51 53 52 50 49 48 47 46 41 42 40 43 44 44 41 43 49 48 48 49 47 44 40 36 34 35 32 31 30 29 28 28 28 29 29 28 27 34 37 38
51 51 51 51 51 52 52 51 43 42 44 38 39 37 40 40 44 43 43 41 41 47 39 44 43 41 41 42 39 33 32 32 34 30 27 27 27 29 29 29 28 28 34 36 38
52 52 52 52 52 52 53 44 39 38 35 41 41 40 41 43 41 42 41 37 40 39 38 40 40 43 43 42 38 35 33 32 31 30 29 31 29 28 29 28 27 28 34 36 37
51 52 52 51 53 53 49 46 45 45 36 39 39 41 42 41 39 40 40 38 40 35 36 36 41 42 42 42 40 37 35 34 34 32 30 27 26 26 26 26 29 31 35 36 37
53 53 52 53 51 51 47 51 49 45 31 34 36 37 41 41 37 41 41 39 40 34 33 40 43 42 42 40 40 38 35 36 34 36 33 27 25 26 26 25 29 33 36 36 38
53 53 52 53 50 47 49 50 50 43 20 34 36 41 42 36 37 40 42 39 38 32 35 40 43 41 41 41 40 39 39 38 35 33 26 26 25 25 24 23 28 32 36 37 39
53 53 52 51 52 51 52 51 47 30 21 33 37 38 38 38 37 41 39 42 44 33 34 42 45 44 41 42 42 33 34 34 29 26 25 25 25 24 23 23 27 31 34 37 39
53 53 52 51 48 53 51 45 30 24 33 32 33 37 33 35 37 36 35 35 35 31 29 40 43 45 47 38 36 35 37 32 29 26 25 25 24 24 25 24 27 30 33 37 39
54 53 52 51 51 52 47 37 25 32 30 35 35 34 32 34 37 36 33 33 39 36 29 34 34 39 45 40 36 38 36 31 25 23 23 25 23 21 25 29 29 31 33 37 38
54 49 48 49 53 51 40 29 29 34 33 34 33 31 33 33 37 35 34 32 37 37 27 32 33 36 37 36 39 35 36 31 26 25 25 26 25 26 27 28 29 30 33 37 38
47 45 47 51 53 45 34 32 34 37 37 34 26 30 28 31 33 31 34 37 39 39 35 34 27 30 23 33 29 35 34 33 27 23 21 24 23 24 23 25 29 30 33 36 37
47 42 50 53 48 40 31 33 37 42 37 30 32 31 29 32 34 34 34 40 41 37 34 28 27 26 23 26 29 31 34 31 27 26 23 19 19 23 23 24 28 30 33 35 37
43 41 51 49 39 38 35 38 41 40 39 37 36 37 34 34 33 37 36 38 42 38 30 27 27 24 24 29 27 27 30 29 25 23 23 21 23 24 26 27 29 30 32 35 37
40 45 52 49 35 36 39 41 43 40 40 40 37 37 36 36 36 38 38 40 40 37 32 31 29 27 27 29 31 27 24 25 25 24 22 21 22 25 29 31 31 31 32 33 36
42 41 44 45 45 41 40 39 40 44 43 43 37 36 35 36 38 38 39 39 40 37 38 33 30 29 27 27 28 27 25 24 25 24 23 22 22 23 27 30 31 32 33 33 34
42 38 43 39 40 41 43 40 40 39 44 43 39 35 34 35 37 37 40 37 37 38 36 32 28 27 26 29 28 27 27 24 24 24 23 24 23 24 25 28 30 29 30 33 35
40 36 38 36 35 42 41 41 39 41 41 39 37 35 36 36 37 37 37 37 35 34 35 32 28 24 22 27 28 28 28 26 24 24 24 24 24 26 28 29 31 34 33 34 35
41 42 36 34 33 37 37 39 40 40 42 36 37 35 36 33 34 37 37 37 36 33 31 33 27 24 24 22 21 24 25 28 27 27 25 24 26 26 30 32 33 33 34 34 36

GFSSW_sfc_30mbdewp_012.txt.gz
Dewpoint
50 51 50 50 51 52 53 53 54 55 58 58 58 57 58 57 56 53 48 47 47 50 52 53 56 55 54 48 44 39 34 30 31 31 31 29 32 37 37 35 32 32 34 37 46
50 51 50 50 50 51 52 53 53 53 54 56 56 56 57 56 52 50 51 53 53 53 48 52 52 53 50 47 44 39 35 32 34 33 32 33 35 37 37 34 32 30 33 35 36
49 50 50 50 50 51 51 51 53 53 53 54 55 55 56 54 48 45 49 53 55 54 49 50 56 53 48 45 43 40 36 35 36 35 34 36 37 38 38 36 33 31 30 33 34
49 49 49 50 50 51 51 51 52 53 53 53 54 55 55 50 37 48 51 52 53 53 50 46 52 51 48 44 42 39 39 37 37 38 38 37 38 38 39 39 39 37 37 35 33
50 50 49 50 50 51 51 50 50 52 52 53 54 54 51 46 41 47 47 45 46 50 49 44 49 48 46 45 42 40 38 39 39 39 39 39 39 39 39 40 39 39 37 34 33
51 50 50 51 50 50 51 51 51 50 52 53 53 53 46 39 42 43 44 43 41 47 49 45 48 46 45 44 43 41 41 40 39 39 40 39 39 39 38 38 38 36 35 34 33
52 51 51 51 51 51 50 50 50 50 51 52 52 49 45 40 41 42 43 40 41 42 46 46 47 50 44 44 45 42 40 40 40 40 39 40 37 36 37 33 30 30 32 35 39
51 51 51 52 51 51 50 50 50 50 50 52 51 48 40 43 43 43 42 42 43 40 45 45 47 51 49 44 44 42 42 37 37 39 40 37 33 33 33 30 30 29 31 37 39
51 52 51 51 50 51 52 53 51 51 51 51 47 44 37 43 42 42 42 39 43 41 40 44 47 48 48 41 39 41 36 37 35 38 37 35 32 31 30 30 29 29 32 35 37
51 51 52 51 50 50 51 53 53 51 49 47 46 41 40 37 40 40 41 39 37 43 41 45 44 45 46 41 35 35 35 34 35 34 32 33 32 31 30 30 29 28 32 35 36
52 52 52 52 51 51 51 50 44 42 44 37 36 34 37 39 43 41 41 39 39 41 38 40 39 37 41 43 36 31 32 33 33 33 32 33 33 31 33 32 30 29 32 34 36
52 52 53 52 52 52 52 45 42 41 39 41 40 38 41 41 39 39 42 35 36 33 39 36 36 40 44 41 36 36 34 33 32 32 31 33 34 35 33 30 30 29 32 34 36
52 52 52 53 51 51 50 48 49 47 37 38 39 39 39 39 37 38 40 35 33 31 35 34 35 39 45 41 37 36 33 31 32 34 35 32 31 31 27 27 28 28 33 35 35
53 53 53 52 50 51 49 50 48 45 31 33 37 37 40 40 37 37 39 33 35 31 36 33 36 40 44 40 38 36 36 36 36 37 33 33 28 29 28 27 28 31 34 35 36
53 53 53 52 50 47 49 49 47 42 21 33 36 38 38 34 35 37 40 34 32 36 37 33 32 41 40 41 37 35 38 37 38 36 34 33 29 27 26 25 27 31 34 35 37
54 53 53 50 50 50 51 49 44 29 20 33 37 37 36 36 31 39 39 36 39 36 37 31 43 39 42 42 40 38 36 36 34 32 30 30 28 25 24 23 26 31 35 36 37
54 53 51 48 44 53 50 44 29 24 33 32 33 37 33 32 32 37 35 34 33 31 31 33 40 42 43 42 39 38 37 33 31 32 28 25 25 24 26 25 27 31 34 36 38
55 53 51 49 49 53 46 36 25 31 31 36 36 35 31 32 32 37 31 28 36 37 29 30 33 43 43 40 38 37 35 29 24 25 25 25 24 23 26 28 27 30 34 36 38
55 52 50 50 51 49 40 28 29 33 34 34 33 31 29 31 34 34 28 27 35 36 29 31 34 42 42 40 38 39 37 32 26 26 24 24 26 27 27 28 28 29 34 37 38
48 45 44 48 52 47 34 31 34 37 36 36 26 28 26 29 33 29 26 27 32 36 37 33 32 37 36 41 36 39 38 32 29 24 22 23 24 22 24 24 28 29 34 36 38
46 42 48 51 49 39 31 32 37 38 37 32 25 27 25 28 32 28 27 33 32 34 38 34 32 31 33 39 37 37 38 37 31 27 22 19 21 24 24 25 26 29 33 36 38
45 40 51 49 37 37 33 37 39 39 40 33 31 27 25 28 31 34 28 36 32 36 35 34 28 33 31 30 34 36 35 34 31 26 25 23 21 24 26 28 28 29 33 36 37
40 44 49 46 34 34 37 38 38 40 38 32 33 30 29 30 31 34 34 33 36 37 34 31 28 27 32 32 29 35 33 35 31 26 25 24 23 25 30 31 31 30 33 35 37
41 40 44 45 44 39 37 37 38 41 37 39 36 37 33 30 33 31 37 38 40 39 37 32 30 25 25 27 29 30 31 34 34 29 26 24 24 24 28 30 31 31 32 34 36
41 41 42 37 38 40 40 39 39 39 42 44 38 36 31 31 34 37 39 39 40 40 38 34 28 29 28 29 29 28 30 28 30 31 27 27 26 26 26 30 31 32 32 32 34
38 39 39 40 41 41 39 39 39 40 41 40 40 36 34 33 34 36 39 37 37 38 36 34 30 26 25 29 28 27 28 29 30 30 28 27 26 27 27 30 30 31 32 33 34
43 42 39 35 34 40 40 39 40 42 42 42 40 36 35 36 36 39 39 38 37 35 34 33 30 27 25 24 26 26 27 27 27 27 26 25 27 27 28 28 30 32 33 34 34

GFSSW_sfc_30mbdewp_015.txt.gz
Dewpoint
51 51 51 51 50 51 52 53 53 54 57 57 58 58 58 58 57 53 48 47 47 51 51 49 47 52 52 49 46 42 35 31 30 30 29 32 31 32 36 35 33 32 32 36 38
51 51 51 51 50 51 51 52 53 53 54 55 57 57 58 57 52 50 50 52 53 54 47 45 44 45 49 47 44 40 34 31 31 31 31 32 33 35 36 34 33 33 32 34 34
51 50 50 50 51 51 52 51 52 54 53 54 55 56 57 54 48 46 49 52 54 55 49 45 48 51 46 46 43 41 36 34 33 33 34 33 34 35 36 35 35 33 33 34 35
51 50 50 50 51 51 51 51 51 52 54 53 54 55 55 49 34 47 52 52 52 54 50 44 43 47 46 45 43 39 38 37 35 35 36 36 36 35 36 37 38 39 39 38 36
51 51 50 50 51 51 51 51 50 51 52 53 54 54 51 46 42 48 48 45 47 51 48 44 39 41 42 42 44 40 38 37 37 37 37 37 36 36 37 38 39 38 38 39 37
51 51 51 51 51 51 51 51 51 50 50 52 53 54 47 39 41 41 44 44 41 44 46 45 40 39 39 40 41 42 39 38 37 37 37 37 37 36 37 38 37 37 36 36 36
50 52 51 51 52 51 51 50 51 50 50 51 53 50 44 39 39 40 40 39 40 39 42 45 42 41 41 40 40 41 39 38 37 37 37 37 36 35 36 37 35 28 28 31 35
50 51 53 52 52 51 51 50 50 51 50 51 52 47 42 42 42 41 40 39 39 39 39 43 44 41 47 47 41 38 41 39 38 37 37 38 34 33 34 33 28 28 28 33 37
52 51 53 52 53 52 52 53 52 51 51 51 46 44 38 42 41 40 40 37 37 39 38 39 43 43 45 44 41 40 37 37 38 36 35 37 34 32 33 30 28 28 28 33 36
54 52 53 53 52 51 51 52 53 52 49 47 43 40 38 36 38 39 39 39 36 36 36 37 41 41 42 42 35 36 36 34 36 33 36 35 34 33 33 31 30 28 27 32 35
54 53 53 53 53 51 51 50 44 42 46 38 37 35 35 36 39 40 38 38 37 34 34 34 36 34 36 39 38 34 35 33 33 33 33 33 32 32 31 32 31 30 28 32 35
54 53 53 53 53 52 51 46 42 42 39 41 38 37 36 40 37 38 38 36 34 31 31 33 34 35 34 38 41 41 34 31 31 33 33 31 31 31 32 33 33 29 29 32 35
54 53 53 52 52 51 48 47 47 45 38 39 41 39 37 40 34 35 37 35 30 29 29 30 33 37 32 37 40 39 35 29 30 32 33 32 33 33 34 34 31 30 29 33 35
53 53 52 52 48 46 48 50 50 47 32 34 38 40 39 41 37 37 38 35 30 28 28 32 32 35 33 35 40 39 36 32 32 34 30 34 25 26 29 28 28 28 30 33 34
54 54 53 51 47 47 49 49 49 44 22 34 38 40 40 38 34 33 34 36 30 28 35 33 33 35 34 38 42 40 35 33 35 35 36 35 32 27 29 26 28 28 31 34 35
55 54 53 50 48 47 49 48 45 30 22 33 36 36 36 39 34 34 33 35 32 30 36 32 32 36 36 40 42 43 35 36 35 33 30 30 30 24 26 26 26 29 32 35 35
55 54 52 44 42 50 48 43 29 24 33 32 33 37 36 35 34 33 32 33 32 29 30 33 33 38 41 42 45 44 37 33 31 31 24 27 28 26 23 25 25 29 32 35 36
55 55 52 46 48 50 45 35 25 29 31 37 36 35 32 32 30 27 31 31 32 33 31 28 28 35 39 42 38 40 37 27 22 23 23 26 25 24 26 27 27 31 33 35 36
55 54 51 50 51 48 39 28 30 32 35 34 35 31 32 30 28 29 30 31 30 32 31 30 31 38 42 44 40 38 35 32 28 26 23 26 26 25 26 27 27 29 33 35 36
51 47 46 50 51 47 36 31 34 38 37 36 30 28 25 26 28 30 33 32 27 30 36 35 31 38 43 43 43 39 38 31 28 23 21 22 22 23 24 25 27 28 33 35 36
47 42 45 50 51 40 31 32 37 39 39 35 32 26 24 28 29 30 27 26 27 27 35 38 32 33 40 40 38 40 38 35 30 27 22 20 21 25 24 25 27 28 33 36 37
45 38 50 51 38 37 32 35 38 38 39 38 37 24 23 25 29 28 25 23 26 29 36 40 38 32 34 35 38 38 38 34 29 26 25 23 21 24 25 28 28 28 32 36 37
41 43 50 46 33 33 36 36 38 38 38 37 29 26 24 27 26 31 29 26 33 28 36 37 32 32 33 33 36 38 35 35 33 30 26 22 23 25 29 30 28 29 32 36 37
40 39 42 44 41 38 35 35 35 39 38 36 32 27 25 27 27 28 32 31 35 30 38 37 31 29 26 27 35 36 37 34 32 29 27 26 24 24 28 29 30 30 33 35 37
42 39 40 36 38 39 39 38 37 38 39 37 37 30 28 26 27 31 31 33 34 34 34 36 29 28 26 27 31 32 33 34 33 32 28 27 26 26 27 29 30 31 33 34 36
40 34 42 42 39 39 39 36 36 38 36 40 38 34 31 27 26 32 32 35 34 38 37 36 31 28 28 29 28 27 29 31 32 32 31 29 28 29 28 27 30 31 32 33 34
45 43 39 35 37 39 38 37 38 39 41 42 41 36 33 30 30 36 37 36 36 36 36 35 33 28 25 26 28 27 28 28 29 29 29 27 29 30 27 28 30 30 31 32 33

GFSSW_sfc_30mbdewp_018.txt.gz
Dewpoint
51 51 52 52 51 51 51 53 53 54 56 58 58 59 59 58 58 54 50 48 51 53 52 47 46 46 52 51 49 45 40 36 34 33 32 31 31 32 34 34 34 34 32 37 41
51 51 51 51 51 51 51 52 53 54 54 55 57 57 58 57 53 52 52 52 53 54 49 43 42 41 44 49 48 44 40 37 34 33 31 32 32 33 35 35 34 35 34 34 35
51 51 51 51 50 51 51 52 51 53 54 54 55 56 57 55 49 47 51 53 54 55 52 47 44 45 46 46 46 44 41 39 35 34 33 33 34 34 34 34 36 35 38 39 38
51 51 51 50 50 51 51 51 51 52 53 54 54 55 56 51 39 49 51 52 52 53 52 48 42 43 46 44 44 42 42 40 39 37 36 35 36 35 35 36 38 38 39 39 39
51 51 51 51 50 51 51 51 51 50 52 53 53 55 51 45 42 49 48 47 48 51 50 47 43 39 41 41 43 43 43 40 38 37 37 36 36 37 36 37 38 38 39 39 39
51 51 52 51 51 51 51 51 51 51 50 52 53 54 49 40 41 43 47 44 42 43 47 47 43 40 37 38 39 42 43 43 41 37 36 36 36 37 37 37 37 38 38 37 37
51 51 52 52 52 52 52 51 50 51 51 51 53 50 44 39 39 39 40 41 41 39 37 43 43 42 38 36 40 38 40 41 41 39 37 37 35 36 38 38 36 37 36 30 34
52 51 52 54 52 53 52 51 51 51 51 51 52 48 41 43 44 42 39 39 39 38 38 38 42 42 41 45 43 42 39 38 40 39 38 37 34 37 37 37 35 35 28 33 37
54 53 52 53 53 53 52 52 52 53 51 51 47 45 37 42 41 41 40 37 37 37 37 37 38 42 41 39 39 40 36 36 39 40 38 36 34 36 37 35 33 31 28 33 36
55 54 53 53 53 53 51 51 51 52 52 47 44 40 39 36 39 40 40 39 37 35 36 36 36 39 40 37 30 34 37 36 38 39 38 37 34 36 36 33 30 30 29 32 36
55 55 54 53 53 52 51 49 45 44 46 39 39 35 35 37 38 37 38 37 37 36 32 34 34 33 36 37 37 35 34 36 35 37 37 35 34 35 35 34 33 33 31 32 36
55 55 54 53 53 52 50 45 44 44 39 44 42 39 38 38 35 36 38 36 36 33 33 32 32 33 33 35 36 36 36 36 37 36 35 34 34 35 34 33 33 32 32 32 37
55 55 54 53 51 50 49 46 48 45 39 41 42 40 39 38 37 35 37 35 33 32 30 30 30 33 30 31 32 32 37 37 38 37 34 33 31 32 32 32 32 34 34 34 36
55 54 53 52 48 46 44 47 49 48 33 34 38 40 40 41 38 39 37 36 33 30 29 29 30 28 31 30 31 30 35 38 39 38 34 33 28 30 31 33 34 34 30 35 36
55 54 53 49 48 45 50 50 49 44 22 35 38 41 41 39 38 37 39 39 33 30 28 30 30 29 31 33 35 34 38 39 40 40 37 35 31 31 30 32 33 29 29 35 36
55 54 53 51 49 49 50 48 44 31 21 33 37 37 38 39 38 39 36 38 36 33 30 30 34 33 31 34 35 36 37 41 41 38 33 34 32 29 28 29 28 28 32 35 35
55 55 53 49 44 50 49 43 30 24 32 33 33 36 33 35 36 37 35 32 30 28 28 31 34 35 36 35 35 36 35 31 31 31 28 29 30 30 24 26 28 28 33 35 36
55 55 53 48 50 49 44 36 24 26 30 37 36 35 32 35 35 35 35 31 31 31 29 26 22 34 36 33 35 36 34 31 27 27 25 27 27 27 26 27 29 31 34 36 37
55 54 52 50 51 48 40 28 28 33 36 34 34 31 31 33 31 31 31 32 33 31 29 28 29 36 32 34 40 37 31 37 32 23 25 26 26 25 27 27 29 32 35 36 37
52 50 49 51 51 46 37 31 33 37 38 37 30 33 28 29 30 27 26 28 28 31 33 32 28 36 37 39 40 42 39 35 33 22 23 26 25 24 25 27 27 32 34 36 37
48 44 47 52 49 41 31 32 36 38 38 35 33 34 28 26 32 26 27 27 30 29 34 34 31 34 39 38 35 37 37 40 33 28 24 22 22 27 26 27 27 31 35 36 37
46 39 50 52 39 38 33 36 38 38 40 38 38 36 32 26 28 26 26 27 31 29 33 35 32 30 34 39 39 39 38 36 28 27 27 24 22 26 27 27 28 28 35 37 37
43 43 51 48 34 34 37 35 37 38 38 38 37 35 30 24 28 28 29 30 28 32 33 36 31 30 32 36 42 39 39 39 37 33 27 22 22 28 29 28 29 30 35 37 38
43 38 43 44 42 37 35 32 34 39 38 39 36 33 27 23 26 30 29 31 32 31 41 41 36 32 31 32 38 37 38 37 37 31 29 27 23 28 29 28 29 30 34 37 38
43 39 40 35 37 39 37 36 34 33 39 38 35 33 30 24 26 27 30 32 33 31 36 38 36 36 36 36 36 36 37 36 34 33 29 27 25 25 29 30 30 32 35 37 37
41 37 41 40 37 37 38 35 34 37 39 37 35 36 35 25 26 26 29 34 34 34 31 35 35 34 28 32 34 35 36 36 35 32 31 32 31 29 28 31 31 32 34 36 37
47 45 41 37 39 38 38 37 37 38 39 39 37 35 36 30 30 31 33 35 38 33 34 35 34 32 25 28 29 27 32 33 34 34 33 32 32 32 27 29 30 31 34 35 36

GFSSW_sfc_30mbdewp_021.txt.gz
Dewpoint
51 51 51 52 51 51 52 52 53 54 55 57 58 59 59 58 58 56 51 50 52 53 53 47 45 44 45 49 52 50 43 39 38 36 34 35 31 31 33 33 35 35 34 38 46
51 51 51 51 51 51 51 52 52 53 54 55 56 57 59 57 55 53 54 54 54 54 49 46 44 43 42 48 51 47 43 41 39 37 35 35 33 32 34 35 36 36 37 39 46
52 52 51 51 50 51 51 51 52 52 53 54 54 56 58 56 49 48 53 55 55 55 54 51 49 44 45 43 48 47 44 42 40 39 37 34 34 35 34 34 35 36 37 39 39
51 52 51 51 50 51 51 51 51 52 52 54 54 55 56 53 36 49 51 51 53 54 53 50 48 42 44 45 45 45 46 45 44 43 41 37 36 35 35 35 37 37 38 39 39
52 51 52 52 51 51 51 51 51 51 51 53 54 55 52 46 46 50 48 48 50 51 52 50 47 43 39 42 42 43 43 44 44 43 41 39 37 36 36 38 38 38 37 38 39
54 52 52 52 52 52 52 51 51 51 51 51 53 54 49 40 44 45 47 44 44 49 50 50 47 45 41 38 37 40 41 42 44 44 42 38 37 37 37 38 38 37 37 38 38
55 53 52 53 52 52 52 52 51 51 51 51 51 51 47 41 42 43 45 45 43 40 39 44 47 46 42 38 41 42 40 39 39 43 43 42 37 36 37 38 37 37 37 37 36
55 54 52 53 53 52 53 52 52 52 51 51 51 50 42 43 45 43 43 39 39 39 38 39 38 41 42 42 40 39 40 36 38 40 42 41 37 37 38 38 37 37 37 34 37
55 55 53 53 54 54 53 52 51 52 52 51 48 47 39 43 44 43 43 39 38 38 37 37 37 40 41 38 37 39 34 36 37 39 40 39 37 38 38 37 36 36 35 34 37
55 55 55 53 54 53 53 51 50 51 52 50 46 41 42 36 40 42 41 41 38 37 37 36 36 36 39 37 30 29 33 36 37 37 39 39 39 39 37 37 36 35 32 33 37
55 55 55 54 54 53 51 47 44 43 47 41 40 36 35 39 39 40 41 39 39 37 33 35 33 32 34 36 34 33 34 34 36 38 38 37 38 38 39 36 35 33 30 33 37
54 55 56 54 53 53 49 43 43 43 39 44 44 41 38 39 37 37 39 37 37 34 35 33 32 33 35 36 37 35 34 33 35 38 38 37 37 37 37 36 36 35 34 35 39
53 54 55 53 53 51 48 45 47 46 39 40 43 43 42 40 38 37 38 37 35 34 34 31 30 32 32 32 33 34 34 33 32 36 39 38 37 36 36 36 35 35 35 37 38
53 54 54 53 48 48 47 48 48 47 34 33 38 41 41 41 38 39 38 36 35 33 34 32 32 30 32 31 31 29 32 32 31 34 33 39 32 35 35 33 32 32 33 36 38
53 54 54 48 45 45 48 50 49 46 20 34 38 41 41 38 38 38 40 38 36 32 33 30 29 30 28 30 32 29 31 32 32 33 34 36 36 34 32 32 32 32 33 36 38
52 54 53 47 48 50 50 49 44 31 20 33 37 36 37 39 38 39 37 40 41 38 36 32 32 31 29 29 31 33 32 31 35 34 29 33 36 30 30 30 31 32 34 36 37
54 55 53 49 44 50 48 41 29 24 30 33 33 35 33 34 36 36 36 35 33 29 28 33 32 35 36 33 34 34 31 23 23 25 24 33 34 35 29 28 32 30 34 36 38
55 55 52 49 50 49 44 36 24 25 29 36 35 33 32 32 35 35 34 31 36 33 29 26 22 31 34 32 30 33 29 22 19 20 23 35 33 33 33 30 31 33 35 37 40
55 54 51 51 50 46 39 28 25 28 35 35 35 31 31 34 33 32 32 32 33 34 26 26 26 34 32 32 31 31 29 28 31 32 29 33 29 26 28 30 32 34 35 37 40
52 51 49 51 50 45 36 31 30 37 38 36 30 33 29 30 31 32 30 31 31 32 31 31 26 28 32 36 34 33 33 28 30 25 27 28 24 24 26 29 33 34 35 37 39
49 45 50 51 49 42 31 32 34 37 38 36 33 33 33 30 30 29 26 27 30 31 32 32 31 29 31 33 31 34 32 32 33 30 27 24 24 26 26 29 32 34 35 37 39
47 40 50 50 39 37 33 35 37 38 40 38 37 36 35 34 30 28 26 26 31 30 31 35 32 27 29 39 36 34 34 32 27 31 30 23 22 27 27 28 32 34 36 38 39
43 44 50 45 33 33 37 37 37 37 37 37 36 37 36 33 31 30 27 31 33 32 33 35 30 25 30 36 38 36 37 39 37 37 29 21 22 29 28 28 29 34 36 38 38
43 38 43 45 42 38 36 34 34 38 37 39 37 37 35 33 31 30 29 31 33 33 37 36 33 30 29 34 38 35 36 37 36 33 29 25 25 28 27 28 29 35 37 38 38
43 39 40 36 37 38 38 36 33 32 38 39 37 36 34 29 27 28 31 31 32 34 39 38 31 34 34 36 38 37 35 36 37 35 29 24 24 28 27 28 30 36 37 37 38
41 40 41 39 38 38 38 36 35 36 37 37 35 34 35 33 29 27 31 31 32 37 36 37 31 37 34 37 37 36 37 36 36 34 34 32 31 28 30 30 31 36 37 37 37
47 46 42 40 38 37 36 36 36 37 38 39 37 36 35 36 36 35 38 32 36 34 32 34 35 36 28 36 36 34 35 36 36 35 33 31 31 29 30 30 31 35 37 37 38

GFSSW_sfc_30mbdewp_024.txt.gz
Dewpoint
51 51 51 52 52 52 52 52 52 54 54 56 57 60 60 59 59 56 52 50 52 54 54 47 44 44 45 46 50 50 43 39 38 36 35 36 35 34 32 32 35 35 35 36 44
52 51 51 51 52 51 52 52 53 52 54 54 56 58 60 59 56 54 55 55 55 55 50 46 44 47 43 46 48 49 45 42 41 40 36 37 35 34 34 35 36 36 38 44 48
53 52 52 52 51 51 51 52 52 52 53 54 54 56 58 56 50 49 54 55 56 56 53 51 50 46 43 43 46 48 45 44 42 41 40 38 37 36 34 33 35 35 37 38 45
53 52 52 52 51 51 51 51 51 51 53 54 54 55 56 54 36 49 52 54 56 56 53 50 48 43 42 45 45 42 46 46 46 45 44 42 39 38 36 34 36 38 38 38 39
54 53 52 52 52 51 51 51 51 51 51 53 54 55 51 47 46 48 49 50 51 54 53 51 47 44 39 41 42 41 43 44 46 46 45 44 42 40 38 37 38 38 38 37 38
55 54 52 52 52 52 52 51 51 51 51 51 53 54 48 39 45 46 49 46 46 50 52 51 48 46 42 40 39 39 40 41 43 43 44 44 43 40 39 38 38 38 37 38 38
56 55 54 53 53 52 52 52 52 51 51 51 51 51 47 40 43 44 44 45 44 44 44 50 50 47 45 41 41 41 38 40 40 39 40 43 42 42 41 38 37 37 37 38 38
55 56 55 54 53 53 53 52 52 52 51 51 51 50 40 45 46 43 41 42 41 40 39 39 39 38 41 42 40 39 38 35 36 38 40 42 39 41 40 38 37 37 37 38 38
55 55 55 54 54 54 54 52 52 51 52 52 48 46 35 43 44 43 44 41 38 38 38 38 37 37 40 38 36 37 33 33 36 37 39 40 37 40 40 39 38 37 37 37 36
54 55 56 54 54 54 53 52 50 51 52 51 47 42 42 36 41 43 42 42 40 38 37 36 35 35 38 36 29 29 31 33 33 37 38 37 38 40 41 38 37 38 37 36 35
53 53 54 54 54 54 52 48 43 42 47 43 41 38 35 40 41 41 42 40 39 38 34 36 33 30 32 35 35 32 31 31 35 36 37 37 37 37 39 40 39 38 36 35 34
52 54 54 54 54 53 48 42 42 42 39 43 44 41 40 40 37 38 41 38 37 35 36 34 32 33 32 34 36 35 33 32 33 33 34 36 37 39 39 38 38 39 37 34 36
52 52 53 54 53 52 47 44 46 45 39 40 43 43 43 42 39 38 39 38 36 35 34 31 29 32 33 33 33 34 34 32 31 33 32 31 30 34 37 39 38 38 37 35 37
51 51 53 54 49 49 45 47 47 46 32 33 38 41 42 43 39 40 39 37 36 33 33 32 33 31 32 31 33 30 34 34 33 31 27 35 26 30 35 36 37 37 37 36 38
51 52 54 50 45 45 44 49 48 46 14 32 37 42 42 39 39 39 40 38 36 34 34 32 32 32 30 31 31 30 31 30 31 31 30 28 28 30 35 34 36 36 36 35 39
54 53 54 49 48 48 50 49 45 29 15 33 36 37 37 39 38 39 38 40 42 38 35 32 34 32 30 30 32 33 32 31 30 30 24 24 28 26 32 35 35 36 34 35 39
52 54 52 48 46 50 48 43 29 20 30 32 33 35 34 34 35 36 36 36 33 30 28 33 34 35 34 30 31 30 29 21 21 22 17 21 25 25 33 35 34 34 34 36 39
52 54 52 48 51 49 44 34 21 23 29 34 33 34 31 31 34 35 35 32 36 34 30 27 24 33 35 30 29 30 28 21 13 18 14 27 25 28 34 32 32 34 34 37 40
51 53 50 50 50 47 38 28 24 26 33 32 33 30 31 33 33 33 33 31 31 35 28 26 26 32 32 32 30 31 28 27 22 23 25 28 32 33 33 32 31 33 36 38 41
50 50 48 50 50 44 35 31 28 36 37 35 29 33 29 31 31 31 29 30 30 34 34 28 24 30 31 34 33 30 30 26 27 17 16 26 31 27 29 30 33 34 36 39 42
48 44 49 50 47 40 30 32 33 38 37 34 33 33 33 31 31 29 29 29 33 32 34 31 28 29 32 31 27 31 29 30 25 25 23 18 26 31 28 30 33 35 37 40 41
48 35 49 49 37 36 32 35 35 37 39 38 37 36 34 34 31 29 28 27 31 32 31 31 31 25 25 29 34 35 31 30 23 20 30 29 25 27 28 31 34 35 37 40 41
43 43 49 45 32 32 37 35 37 37 38 37 35 36 37 35 31 31 30 29 32 31 33 36 30 24 25 30 33 32 32 34 30 29 22 28 26 29 29 32 35 35 38 39 41
42 35 42 44 42 36 35 35 35 38 37 38 37 38 36 33 35 32 30 30 32 32 38 37 33 28 25 31 36 32 33 33 33 29 24 27 31 27 27 30 34 36 38 39 40
44 38 39 34 37 37 36 37 34 34 37 38 36 36 34 31 32 32 32 31 35 36 38 36 30 33 32 33 34 35 33 34 31 33 30 32 29 28 27 28 34 36 38 38 39
41 40 41 38 39 38 38 36 35 36 36 35 34 36 36 34 30 28 30 31 33 38 37 37 30 31 30 35 35 34 37 35 34 33 33 35 32 28 29 31 35 36 37 38 39
46 45 40 39 38 37 37 37 37 37 38 39 38 37 35 36 36 35 35 34 34 36 34 35 32 31 31 37 36 33 37 33 33 37 35 34 30 29 29 30 34 36 37 38 39

GFSSW_sfc_30mbdewp_030.txt.gz
Dewpoint
55 53 52 51 51 52 52 52 52 53 53 54 56 58 60 59 59 57 52 52 53 54 54 48 45 46 45 45 50 47 43 38 37 35 34 36 35 36 36 32 34 35 38 37 46
56 54 53 52 51 52 52 52 52 53 53 54 54 57 59 59 58 55 56 57 57 56 52 48 44 45 42 44 47 48 43 40 41 38 36 37 37 37 37 37 36 36 38 46 51
57 55 54 53 51 52 52 52 52 52 53 53 54 55 58 57 50 49 56 57 57 58 52 49 48 45 41 43 46 47 42 43 43 43 43 41 40 39 38 37 36 35 37 42 50
56 56 55 53 52 52 51 52 51 52 52 53 54 55 56 53 36 47 52 54 56 56 52 50 47 42 40 40 44 40 44 45 46 46 46 45 44 43 39 38 37 40 39 38 39
55 56 56 54 53 52 52 52 51 51 51 53 54 55 51 46 46 48 52 49 53 55 53 50 45 42 38 40 42 42 43 43 43 42 44 46 45 45 45 44 44 44 41 40 38
55 54 55 55 53 52 53 52 51 51 52 51 52 54 47 34 41 44 45 45 50 55 54 51 48 46 43 41 39 39 39 40 40 39 40 40 41 43 43 44 43 42 41 42 39
55 54 54 54 54 53 53 52 52 51 51 51 52 50 45 39 44 44 43 42 43 51 52 52 50 46 46 42 42 41 39 39 39 39 38 39 38 39 40 43 43 44 43 43 42
54 55 54 54 54 53 53 52 53 52 51 51 51 49 35 43 46 44 43 40 41 42 42 43 51 47 39 39 39 38 38 35 35 37 38 38 32 35 38 40 42 43 43 42 41
50 54 54 53 54 54 54 53 53 52 52 52 48 43 35 41 42 44 42 38 39 40 39 39 40 37 38 36 33 35 31 32 33 36 37 39 34 39 39 39 40 41 41 40 40
46 52 54 53 54 53 54 53 51 50 50 51 46 40 39 36 41 43 43 41 38 37 36 36 37 35 36 34 27 28 28 29 30 34 35 34 34 36 37 37 37 38 40 40 40
46 49 52 55 53 53 52 48 43 41 46 40 42 39 36 40 42 41 42 40 39 36 34 35 33 32 35 34 33 33 33 33 33 34 33 32 32 32 33 35 37 38 39 39 40
46 48 52 54 53 54 49 43 41 39 37 41 43 43 41 42 38 39 41 37 37 34 35 34 31 32 32 33 34 33 31 29 31 32 32 31 30 31 32 32 34 37 38 40 40
47 47 50 53 55 52 47 43 45 44 35 37 42 42 43 42 39 38 39 38 36 34 34 30 29 32 32 31 30 30 29 29 28 28 30 29 26 22 23 26 29 30 32 36 40
44 45 48 51 52 50 46 46 46 41 27 29 38 41 43 42 37 41 40 37 36 33 34 34 34 32 32 30 31 28 31 31 30 29 24 31 19 21 23 23 25 27 31 37 39
44 44 46 50 50 46 47 47 45 32 17 32 38 43 43 36 38 39 40 37 34 34 34 31 32 33 31 30 31 29 31 31 31 31 30 28 26 22 23 22 23 26 32 35 37
46 45 47 48 51 48 47 47 42 25 19 32 37 37 38 38 38 39 39 39 40 36 35 32 35 33 32 32 31 33 31 31 33 31 23 23 24 18 17 17 17 22 29 34 38
47 46 48 50 46 49 48 42 27 23 29 30 32 33 33 33 34 36 36 36 33 29 29 33 34 35 35 31 32 34 31 23 21 21 18 21 23 20 19 20 22 23 29 35 37
47 48 48 49 50 49 45 33 23 23 28 33 32 31 29 30 31 34 34 32 36 34 30 27 23 33 35 31 28 30 30 23 15 15 15 20 17 17 21 22 23 24 27 30 36
46 46 47 49 50 47 38 27 22 24 31 31 32 28 29 31 31 33 33 31 29 34 28 27 25 33 34 34 30 31 28 29 26 26 22 21 21 24 24 22 24 28 27 25 29
45 44 43 50 50 44 34 27 27 29 32 31 26 29 27 29 30 32 29 31 31 33 32 30 24 28 32 35 33 32 33 26 27 17 15 16 16 15 18 15 15 21 22 26 35
45 38 46 51 47 39 30 30 30 37 33 31 30 30 29 29 30 29 28 29 32 31 32 31 29 26 32 31 28 31 29 30 28 26 16 11 9 12 11 13 26 31 28 26 36
41 33 47 48 35 36 33 34 36 36 38 36 34 35 33 32 32 30 28 28 31 33 31 31 31 25 24 29 30 30 29 28 22 20 22 18 15 18 22 28 30 33 35 36 40
38 39 48 43 30 31 35 35 37 36 36 35 34 35 36 34 31 33 31 32 32 33 31 31 30 23 23 28 29 31 31 29 27 24 21 18 14 17 18 21 30 36 40 42 41
37 34 39 41 38 34 33 34 34 38 37 37 36 36 35 34 36 33 33 32 33 33 35 34 32 25 22 23 31 28 29 32 31 25 22 24 20 21 22 24 26 37 41 42 40
39 34 36 31 33 34 33 34 33 34 37 38 35 34 35 31 33 34 34 33 33 33 35 34 29 31 31 31 32 31 31 31 29 29 26 24 24 23 23 29 33 38 42 42 41
39 38 39 34 37 33 35 35 34 34 35 35 35 36 37 34 31 29 30 32 31 35 36 37 30 31 29 32 32 30 32 32 32 31 31 30 29 33 34 36 37 38 41 42 41
44 46 40 37 36 35 34 35 35 36 38 36 37 36 35 36 38 37 34 35 35 35 36 34 31 29 25 31 31 30 32 33 33 35 33 29 30 32 36 38 37 38 41 42 41

GFSSW_sfc_30mbdewp_033.txt.gz
Dewpoint
56 57 55 53 52 51 52 53 52 52 53 53 54 56 59 59 59 57 52 52 53 55 54 49 46 46 46 45 50 46 42 38 36 35 33 36 35 37 37 34 37 35 36 41 49
56 56 56 54 53 51 52 52 52 52 53 53 54 55 59 59 57 55 55 57 57 56 52 48 44 44 42 44 48 47 43 40 41 38 36 37 37 38 37 37 37 37 38 44 51
55 55 56 55 53 52 52 52 52 52 52 53 54 54 57 56 50 49 57 58 58 58 53 49 48 44 40 43 45 47 42 43 43 43 44 44 42 40 39 38 38 36 37 39 48
56 55 55 56 55 52 52 52 52 52 51 53 54 54 55 52 40 47 53 53 55 56 52 48 46 41 39 39 43 41 44 45 45 45 45 45 45 45 43 41 39 39 42 41 41
54 55 55 55 55 53 52 52 52 51 51 52 54 54 51 46 47 48 51 49 54 54 52 49 44 41 38 40 42 43 42 43 43 41 41 44 43 44 44 46 45 46 45 44 42
49 54 55 54 55 54 53 52 52 51 52 51 52 53 46 32 41 44 44 45 53 54 52 50 47 44 41 41 39 40 40 40 40 39 40 40 39 42 41 45 45 45 45 43 42
46 49 54 55 54 54 53 53 52 51 51 51 52 50 45 37 44 44 43 42 44 53 51 52 49 46 45 42 42 41 38 38 39 39 38 39 37 38 40 41 40 42 44 44 45
42 47 50 54 54 54 54 53 52 52 52 51 52 47 34 42 46 44 43 40 41 44 47 52 52 48 44 39 38 37 37 33 35 37 38 37 29 35 37 39 40 40 40 41 42
44 45 46 52 54 54 54 53 53 53 52 52 47 41 36 41 41 44 41 38 39 40 41 45 43 39 39 37 33 35 30 32 32 35 37 38 34 37 39 38 38 39 42 43 43
45 45 47 49 52 54 53 53 52 50 51 51 47 41 39 37 41 43 43 40 38 38 37 37 37 36 35 34 24 28 31 30 29 31 34 33 33 34 35 35 35 36 38 39 40
45 45 47 48 52 55 53 49 42 40 46 39 41 38 37 40 42 42 42 40 39 36 35 35 33 31 34 34 32 32 32 30 32 33 33 31 31 32 33 33 33 33 34 35 39
44 45 45 47 51 53 51 44 41 38 35 41 43 44 42 42 37 41 42 37 36 34 34 34 31 33 34 35 34 33 32 28 29 30 31 30 29 29 30 30 30 30 32 34 34
43 43 45 45 49 51 47 44 43 40 32 36 40 40 42 41 39 38 40 38 36 34 34 30 30 33 32 31 31 31 30 30 29 29 29 28 24 20 21 25 27 29 31 32 33
43 42 43 44 45 49 46 45 46 37 25 28 37 40 42 42 37 41 40 37 36 33 34 33 34 32 32 31 31 28 30 30 29 28 23 29 17 17 19 20 21 24 27 29 31
44 44 44 45 46 47 48 48 44 36 14 31 38 44 43 37 36 39 41 37 34 33 34 29 32 33 31 30 32 28 30 29 30 30 28 26 24 20 23 22 22 23 23 27 30
47 47 46 44 47 46 49 47 38 26 16 32 37 38 38 37 38 39 39 39 39 34 35 31 34 33 31 32 32 32 31 31 32 30 23 23 25 20 20 19 19 21 22 25 31
47 47 46 45 41 50 49 44 28 21 29 31 32 36 34 33 35 36 36 35 32 28 28 33 34 35 34 31 32 31 31 22 21 21 18 20 24 21 21 22 23 21 21 23 28
48 47 46 47 50 51 45 35 22 24 27 31 32 33 30 32 32 34 34 33 35 34 30 26 22 33 35 32 29 30 30 22 16 15 15 20 20 19 23 23 22 22 23 26 29
45 45 45 47 50 50 38 28 21 24 30 31 30 28 28 30 31 31 32 30 31 36 29 27 24 32 34 34 31 31 28 29 25 24 23 21 20 21 22 23 23 23 25 27 27
44 43 42 49 50 46 34 30 25 30 33 31 27 28 27 30 30 31 30 31 31 32 34 30 24 27 31 35 34 33 32 26 27 17 15 18 20 17 17 15 14 19 31 32 30
43 38 45 49 46 37 30 30 32 34 32 29 30 29 28 29 29 30 28 29 33 32 34 30 28 25 32 30 27 31 29 30 28 26 17 13 12 15 13 13 15 30 32 35 35
41 33 45 48 33 32 32 32 37 36 37 35 34 32 30 30 29 28 28 28 32 33 31 31 29 25 24 28 31 28 28 28 24 20 25 22 18 18 19 23 29 24 34 39 40
38 40 46 41 29 31 35 35 37 35 35 34 33 35 35 32 30 31 31 32 32 32 30 31 29 23 20 27 29 29 29 29 31 28 24 20 15 18 20 20 24 28 36 40 41
38 33 35 39 38 35 33 34 34 38 36 37 36 35 33 33 34 32 32 33 32 32 34 32 30 24 20 20 28 28 29 31 30 25 23 24 21 20 21 23 25 29 36 41 39
39 35 36 31 33 34 33 33 34 33 37 37 36 34 32 31 31 32 33 32 34 34 34 33 29 30 30 29 29 31 31 31 29 28 25 24 27 27 27 27 30 36 38 41 39
39 38 38 35 36 34 33 32 32 35 34 34 35 34 34 33 32 31 33 33 30 33 34 35 30 32 29 32 32 30 32 32 31 31 31 30 29 30 30 33 35 38 39 41 40
40 44 40 35 35 34 33 32 34 35 36 35 35 35 34 36 37 38 36 34 34 35 34 35 32 30 26 30 32 30 33 35 33 33 31 28 29 31 31 32 36 37 40 42 42

GFSSW_sfc_30mbdewp_036.txt.gz
Dewpoint
56 56 56 56 54 53 52 52 53 53 52 53 53 54 56 59 59 57 52 51 52 55 54 48 45 44 45 42 49 47 32 27 27 28 28 34 31 31 36 34 36 34 35 41 46
54 56 56 56 55 54 52 52 53 52 52 53 53 54 57 59 56 55 53 56 56 56 50 45 42 42 40 41 44 41 34 29 32 33 32 33 34 36 35 33 33 36 38 42 48
51 54 56 56 56 54 53 52 52 52 52 52 54 54 56 56 51 50 56 57 58 57 52 48 45 42 38 42 42 41 36 35 40 39 41 39 39 39 35 34 35 34 36 40 42
47 50 54 56 55 56 53 53 52 52 52 52 54 54 55 52 40 50 54 54 57 57 53 49 45 40 39 37 40 39 39 40 40 43 43 42 41 41 39 35 36 40 40 42 42
44 46 51 54 55 55 54 53 52 52 51 51 53 54 51 44 42 48 50 49 53 55 52 48 44 41 38 38 40 38 36 38 39 41 39 38 38 38 38 40 42 43 43 43 43
43 43 48 50 55 55 55 53 52 51 52 51 52 53 44 35 42 43 44 47 53 53 50 49 45 43 40 39 38 38 39 39 39 39 38 37 36 36 36 36 36 37 38 40 41
44 45 43 47 52 55 54 54 52 51 52 51 52 49 45 36 42 44 43 44 49 52 51 51 48 44 43 40 41 40 37 36 35 35 36 37 33 33 35 35 34 34 35 36 37
45 46 45 46 48 54 55 54 53 52 52 51 52 47 35 43 45 42 42 42 47 50 51 52 51 46 41 40 37 35 34 30 33 35 35 35 26 28 33 34 35 35 34 34 36
43 44 46 46 50 52 55 55 53 53 52 52 46 40 37 41 40 39 41 41 43 42 42 49 46 42 40 37 33 33 28 30 31 33 34 34 31 34 37 35 35 35 36 37 38
43 44 45 47 47 51 53 55 53 52 51 50 46 41 40 37 39 42 41 40 40 40 40 41 38 34 32 32 24 24 27 28 27 29 31 30 30 32 34 33 34 35 35 35 37
43 44 45 46 46 49 51 51 43 42 43 36 39 37 38 41 42 41 40 38 39 39 35 37 34 31 30 31 29 30 29 28 29 30 29 28 28 29 30 30 29 30 30 31 33
44 42 44 44 46 46 50 45 42 40 37 41 42 41 42 41 37 40 40 35 34 33 35 34 31 31 31 32 32 31 29 28 28 28 28 26 24 24 24 24 25 25 25 24 25
42 42 43 44 44 45 46 45 45 41 34 38 40 40 41 41 37 38 38 36 33 33 33 30 29 31 32 31 31 30 29 27 27 27 26 25 22 20 19 20 21 24 24 25 24
44 44 44 44 42 42 43 48 49 43 32 32 37 37 40 40 35 39 38 36 35 31 33 31 31 30 31 29 29 25 27 28 26 26 22 27 18 20 20 20 20 20 21 24 25
46 48 46 46 41 41 46 50 49 40 22 32 37 42 39 34 37 40 39 36 32 32 33 30 32 32 29 29 30 27 29 28 27 26 25 25 25 19 22 21 21 21 21 22 24
45 45 47 45 44 43 50 49 44 30 21 32 37 38 37 34 36 39 38 39 35 33 34 29 34 32 30 31 31 31 30 29 28 28 23 22 24 18 16 18 19 19 20 20 21
44 46 46 44 39 46 49 43 28 25 29 30 31 37 34 32 36 35 36 35 32 29 29 30 30 33 33 30 32 31 31 21 21 22 17 17 17 20 17 20 21 19 19 21 22
45 46 46 43 45 48 46 34 25 26 27 31 32 34 31 32 32 34 34 32 33 31 29 26 25 31 35 31 27 30 28 20 14 10 12 19 17 15 18 20 21 21 22 23 24
46 45 44 45 47 45 37 28 27 25 30 29 31 29 29 30 30 31 31 30 31 32 28 28 26 30 33 32 30 31 28 28 25 24 21 17 15 17 17 18 20 20 20 24 27
43 43 41 45 47 43 33 31 26 32 31 29 26 27 26 28 29 28 28 30 29 32 32 30 26 27 31 34 33 31 29 26 27 16 12 12 13 13 15 16 18 18 21 26 28
42 38 43 46 43 36 30 31 33 33 32 30 28 28 28 28 29 28 28 29 31 31 33 31 27 26 30 29 27 30 29 30 25 22 17 13 12 13 14 14 15 15 24 26 32
41 33 44 45 33 33 32 34 34 34 36 34 32 30 28 30 28 28 27 28 31 33 31 29 28 24 24 25 27 25 25 26 24 20 24 22 20 20 18 17 22 23 22 28 35
38 38 46 44 29 32 35 36 36 34 35 33 33 33 32 29 28 29 30 32 32 32 29 30 29 23 20 28 28 27 27 25 28 28 25 23 19 23 21 20 21 21 23 27 37
37 32 36 38 39 34 35 35 34 38 36 36 34 33 32 32 32 31 31 33 32 31 32 32 29 24 18 19 27 29 29 31 30 25 24 24 23 22 25 25 23 25 26 33 39
40 35 36 31 34 34 33 34 32 33 36 35 34 33 31 30 31 33 32 32 34 33 33 31 29 28 28 28 28 30 30 32 30 30 26 24 25 29 29 31 29 29 34 37 40
37 38 39 34 35 35 34 32 32 34 34 34 32 34 33 31 31 31 31 31 32 33 33 34 30 32 29 30 31 31 34 34 33 33 31 31 30 30 30 31 30 29 32 38 40
41 42 40 36 33 33 31 32 32 34 35 34 34 33 33 33 35 35 37 35 33 32 32 33 32 30 26 30 31 31 35 36 36 36 33 29 30 29 30 31 33 37 38 39 41

GFSSW_sfc_30mbdewp_039.txt.gz
Dewpoint
51 53 55 56 56 56 54 53 52 53 53 53 53 53 54 57 59 56 52 52 51 56 54 48 45 43 42 40 42 44 35 28 26 22 24 27 27 30 30 30 31 30 31 41 44
48 49 52 54 56 56 55 53 52 53 53 52 53 53 54 57 55 52 53 55 55 55 51 45 42 42 40 39 41 41 33 27 24 24 25 28 30 29 30 31 29 32 34 40 45
46 46 48 52 54 56 56 54 53 53 53 52 53 54 54 56 51 49 54 55 57 57 50 45 42 40 38 38 38 38 34 29 28 36 36 33 31 33 33 31 28 28 33 37 41
44 45 44 48 53 54 56 55 53 52 52 52 53 54 53 52 41 51 54 56 58 57 51 46 43 39 36 36 37 36 36 34 34 37 40 39 36 34 34 33 32 33 38 40 40
42 44 45 44 48 52 55 57 53 52 52 51 53 54 50 43 44 52 50 50 53 56 52 46 42 39 37 35 35 36 35 33 36 38 38 39 37 36 36 37 37 37 38 40 40
40 43 46 46 45 49 53 55 54 52 52 51 52 53 45 38 43 45 45 46 47 51 52 49 45 42 39 36 36 36 36 35 36 36 36 36 35 34 33 33 33 35 36 37 39
41 41 45 47 46 47 51 55 56 52 52 51 52 48 42 35 38 42 43 46 50 50 48 50 48 43 42 39 39 38 36 36 35 35 34 35 33 33 34 33 32 32 32 32 33
38 42 43 45 46 47 51 55 56 53 52 51 51 44 38 42 41 41 42 45 49 50 50 50 48 45 43 40 37 35 34 31 30 32 32 33 28 27 29 31 31 31 31 31 31
40 41 44 45 46 47 49 52 55 53 52 51 46 41 36 41 37 38 40 42 44 46 49 51 49 44 43 37 33 32 28 28 27 31 31 33 31 29 35 33 30 32 32 32 32
41 42 44 44 46 47 47 51 55 53 50 48 44 40 39 37 37 38 40 42 41 41 43 43 40 37 37 35 27 26 27 27 26 27 30 29 28 29 29 31 32 32 33 33 32
42 43 43 43 45 45 47 48 47 46 47 40 39 35 38 39 39 37 39 41 40 38 34 36 32 30 29 29 29 26 27 25 26 28 28 27 26 26 27 27 28 29 30 30 31
39 44 44 43 44 44 44 43 43 45 39 40 39 39 39 38 37 36 38 36 37 35 34 34 32 30 29 29 29 29 28 26 26 27 27 25 24 24 24 24 24 24 25 27 27
38 44 45 44 45 44 40 41 47 49 39 38 39 38 39 40 35 36 37 34 33 32 32 31 29 30 30 30 29 29 27 26 25 26 25 23 22 20 21 22 22 23 24 24 24
40 46 47 46 44 42 38 41 48 48 34 34 37 38 40 38 36 37 37 34 33 29 31 30 30 29 28 29 28 26 26 25 25 25 22 26 20 20 19 19 20 20 21 21 23
40 43 45 45 45 37 41 44 49 45 23 34 35 38 39 34 36 37 37 36 30 29 31 30 30 29 28 27 27 26 29 27 27 26 26 24 23 21 17 17 20 21 21 21 22
40 43 45 45 44 41 46 48 43 28 23 32 38 35 34 32 35 37 37 37 33 30 31 29 31 31 30 29 29 30 28 28 27 27 24 21 20 16 14 11 13 17 20 19 20
42 44 45 46 39 44 48 41 27 23 30 31 31 35 33 30 33 36 35 34 31 29 28 30 29 30 30 29 30 29 29 22 23 22 17 15 15 16 16 17 17 18 18 20 19
43 45 45 44 42 46 41 33 24 29 27 29 33 33 31 31 32 32 32 31 31 29 28 26 26 29 32 31 28 28 27 21 14 8 11 17 15 15 16 16 18 19 19 19 21
45 44 44 44 45 42 36 27 30 27 29 29 32 32 31 29 30 32 31 29 30 30 29 26 26 29 32 31 29 28 27 27 24 21 19 15 14 16 17 16 16 16 17 19 20
44 42 40 43 45 42 34 31 28 29 30 30 26 27 26 29 29 29 30 29 29 30 30 31 27 27 30 31 31 29 28 25 27 18 13 12 12 12 14 15 15 16 16 19 24
43 37 43 46 44 37 30 33 31 30 30 29 27 26 26 27 27 27 28 29 29 29 30 31 27 26 29 29 26 29 28 27 24 24 17 15 14 16 18 20 18 15 15 21 23
40 32 45 43 34 33 32 36 32 31 34 32 29 27 27 27 27 27 27 28 30 29 29 30 29 25 24 25 26 26 27 26 24 19 23 25 22 23 22 22 22 23 23 22 24
35 37 45 45 30 31 36 36 33 33 33 32 32 30 29 28 27 28 28 31 31 30 28 30 28 23 24 26 25 25 26 25 27 30 26 24 21 23 23 23 26 26 26 22 25
37 32 36 39 38 34 35 34 32 37 34 33 33 31 30 29 30 28 29 32 32 30 33 30 28 25 20 22 25 29 28 28 32 27 24 25 25 26 26 27 32 29 29 29 28
40 36 37 33 33 32 34 33 32 31 35 34 32 31 30 29 30 30 30 32 34 33 32 31 28 26 27 27 27 29 30 31 32 32 28 28 29 31 31 30 33 35 33 31 31
37 38 39 33 33 31 32 32 34 33 31 31 30 32 31 29 29 29 32 31 30 33 32 34 28 32 28 29 29 30 31 33 36 35 34 34 32 34 31 31 31 32 31 30 35
40 41 41 35 31 32 30 31 31 32 34 34 32 32 31 32 33 34 36 34 32 34 32 33 32 29 26 28 28 30 36 36 36 36 36 30 31 31 31 33 36 38 40 39 39

GFSSW_sfc_30mbdewp_042.txt.gz
Dewpoint
46 48 49 51 53 55 57 56 54 53 53 53 53 54 53 55 57 56 51 52 53 54 54 52 47 44 42 41 40 41 38 34 32 29 27 24 26 29 30 29 29 30 30 42 50
42 45 46 47 50 54 55 56 55 53 53 53 53 53 53 55 55 50 51 52 55 56 49 46 43 43 41 40 39 42 39 37 33 29 28 26 27 28 29 29 30 31 36 43 45
40 41 45 46 45 49 52 55 56 54 53 53 52 53 54 54 50 47 52 53 56 56 53 47 43 40 40 39 38 38 38 33 31 29 37 36 34 31 31 30 31 29 31 38 44
41 39 41 44 45 47 49 52 56 55 53 53 52 53 54 51 40 52 53 54 58 57 52 49 42 39 38 37 37 35 36 36 35 35 38 38 37 37 33 33 34 34 35 39 39
41 40 42 43 47 47 47 50 54 56 53 52 52 54 50 47 46 54 54 54 56 56 53 48 42 39 36 34 35 35 35 35 35 36 36 39 38 38 37 37 36 36 36 37 40
42 41 39 43 45 47 47 48 52 56 54 52 51 53 48 38 44 47 45 46 48 53 53 51 43 41 40 37 34 35 35 35 34 33 35 34 35 36 34 33 34 35 36 37 38
42 41 41 41 43 46 47 48 51 55 55 52 50 49 42 39 38 43 43 44 47 48 51 52 48 43 41 39 40 37 36 36 36 35 35 35 33 34 35 35 34 32 32 33 34
41 40 41 41 44 45 47 47 49 55 55 52 50 47 40 42 42 40 43 44 47 50 50 51 49 45 44 40 38 37 37 35 33 35 34 34 30 31 32 33 33 33 32 32 33
41 42 42 43 44 45 46 47 48 52 55 52 47 44 37 41 39 39 41 43 45 46 51 50 47 44 42 38 36 34 30 30 30 32 31 32 31 32 33 33 32 32 31 31 31
42 43 43 43 44 44 46 46 48 52 54 50 45 41 39 37 36 37 39 42 42 45 47 47 45 41 40 37 30 29 30 30 28 30 31 30 30 31 30 30 30 33 33 33 33
42 41 42 44 44 44 45 44 43 41 47 41 40 36 37 38 38 36 39 41 39 42 37 40 38 35 37 37 35 31 27 26 26 27 27 27 27 27 28 27 27 28 29 31 32
42 39 44 44 45 44 45 39 41 45 40 45 40 37 38 39 36 37 40 38 37 35 34 34 32 32 31 30 29 28 27 27 28 27 26 25 25 26 26 25 25 26 27 28 30
40 39 43 47 45 43 40 39 47 47 37 40 39 37 38 37 35 36 38 36 36 34 34 31 29 32 32 29 28 29 28 28 26 26 26 25 23 23 23 24 24 24 25 25 25
39 40 42 44 44 42 38 40 47 46 30 36 38 38 39 38 35 37 37 34 34 33 33 32 32 28 29 29 29 27 28 27 25 25 23 26 22 22 21 21 21 21 23 24 24
39 40 41 44 43 40 40 43 46 41 19 37 37 40 39 35 36 36 37 35 30 30 31 30 29 30 28 27 28 26 29 28 27 26 26 25 23 22 19 18 18 20 22 22 23
40 41 43 43 44 41 43 45 41 27 19 33 36 36 37 35 35 35 36 37 34 29 29 30 31 30 30 29 28 30 28 28 28 27 23 24 22 20 15 15 16 18 21 22 22
42 43 44 45 40 44 45 39 24 20 34 31 32 33 33 32 35 34 35 33 30 28 28 30 30 30 31 29 29 28 27 24 24 22 16 17 22 18 15 16 17 17 18 20 21
44 46 45 44 46 44 43 33 20 26 32 30 33 32 30 31 33 33 33 30 31 29 28 25 24 29 30 29 28 27 27 23 19 17 19 20 17 16 18 19 17 17 18 19 20
45 44 44 44 46 40 36 26 24 29 29 32 33 31 30 30 31 32 31 29 30 30 27 25 27 29 31 31 30 27 26 28 24 21 19 16 13 14 16 16 16 17 18 19 20
44 42 42 46 43 39 33 31 32 31 31 32 28 28 28 28 30 31 30 29 28 29 30 31 26 28 31 30 30 28 28 25 25 17 16 15 14 14 16 21 23 21 19 20 21
43 36 43 45 42 37 30 32 34 31 31 29 27 25 26 28 29 27 27 29 29 29 30 29 28 26 30 29 28 28 27 26 25 25 19 17 16 20 22 23 24 25 24 23 23
40 33 44 45 34 34 32 34 35 34 34 29 28 26 26 26 28 26 27 28 30 30 28 29 29 25 26 27 30 28 27 26 22 19 22 24 22 24 23 23 26 25 24 24 23
37 36 43 45 30 31 34 36 33 33 33 32 29 28 27 28 27 27 29 30 31 29 29 30 27 24 24 26 25 25 26 27 27 28 24 22 20 23 24 26 28 30 28 28 29
38 32 37 41 39 34 35 34 34 37 33 33 31 30 28 29 28 28 30 31 31 31 31 30 28 26 24 25 27 27 27 26 27 27 24 24 24 26 30 33 35 35 34 34 31
41 35 36 31 33 37 36 35 31 32 34 33 31 30 28 27 29 28 29 33 32 33 31 30 28 28 28 27 27 27 28 29 32 32 28 30 31 34 37 36 35 33 34 35 35
37 37 39 33 32 34 35 32 32 32 32 30 31 30 30 29 30 28 30 31 32 33 31 31 28 31 26 27 29 28 30 31 31 32 35 36 34 36 34 32 36 39 39 38 38
40 41 39 33 32 30 31 33 33 33 34 33 32 32 31 33 33 34 34 32 32 32 31 32 31 28 25 29 30 29 31 33 35 37 36 33 35 36 35 36 39 41 41 41 41

GFSSW_sfc_30mbdewp_045.txt.gz
Dewpoint
42 42 42 47 48 49 51 54 56 56 54 53 54 53 54 54 55 55 51 52 54 57 53 53 49 47 45 41 41 41 37 35 35 34 32 32 29 29 30 28 30 31 39 49 55
43 42 41 41 45 47 48 51 53 56 55 54 54 53 53 54 52 51 52 52 55 56 54 48 48 46 42 40 41 39 38 38 37 35 33 32 35 32 29 29 29 30 43 47 54
41 41 42 39 45 45 47 49 51 53 56 54 54 53 53 54 50 47 53 53 56 57 50 48 47 43 41 41 39 38 39 40 40 37 36 37 35 37 33 30 29 29 35 43 51
43 42 42 42 42 44 47 48 50 52 55 55 54 53 54 51 38 53 55 54 55 56 53 51 48 42 40 39 39 37 38 38 38 37 37 38 40 39 38 34 37 36 35 38 43
43 42 42 43 42 41 44 47 48 51 53 55 53 52 52 46 46 54 56 54 57 56 53 51 48 42 37 37 38 36 36 37 37 36 35 36 37 38 38 39 38 36 37 37 38
43 43 42 42 42 41 43 46 47 50 53 56 53 53 49 42 47 51 52 55 55 54 53 52 45 41 39 38 36 34 35 36 37 37 36 34 35 35 36 36 35 34 34 35 36
43 43 42 42 41 42 44 45 47 48 51 56 53 51 45 42 40 46 45 46 49 52 51 52 51 43 43 39 41 38 36 37 36 37 36 36 34 34 36 36 36 36 35 33 34
43 44 43 43 43 43 45 45 46 47 50 55 53 49 42 44 42 41 43 43 47 50 51 53 52 45 43 40 38 35 36 34 35 35 36 35 31 33 35 35 35 35 35 34 34
43 43 43 42 44 44 45 46 45 46 50 56 50 47 38 42 41 40 41 43 47 51 50 52 52 46 43 38 35 35 31 32 34 33 34 34 32 33 34 33 32 33 34 34 34
43 43 42 42 45 45 45 45 45 46 51 53 46 42 42 37 39 40 38 43 45 49 49 48 46 42 41 37 32 31 32 31 30 31 32 31 32 32 32 32 31 30 32 33 33
42 42 42 43 44 45 45 42 39 40 45 39 40 38 39 39 39 38 38 40 46 46 41 45 39 37 37 38 35 34 33 28 28 29 27 27 29 29 29 30 30 30 30 30 31
40 41 41 42 45 46 44 39 37 43 34 40 43 41 38 37 35 37 39 38 40 39 36 36 34 37 38 38 37 34 30 27 28 28 26 26 25 25 26 27 27 27 28 29 29
41 41 41 42 43 45 42 39 45 42 34 40 44 40 38 38 36 36 39 38 37 37 34 33 30 32 33 32 29 29 28 28 28 27 26 25 21 22 25 25 26 26 26 27 28
41 41 41 42 42 42 40 41 45 43 29 34 39 40 38 38 35 38 40 37 36 33 34 32 32 30 31 31 29 27 28 28 27 25 21 27 20 24 20 20 21 23 25 25 26
39 41 42 43 42 41 40 45 43 39 18 36 39 41 39 38 36 36 38 36 34 34 34 31 30 30 27 29 30 28 29 28 28 27 26 25 22 22 24 19 19 20 21 24 25
39 41 44 43 43 42 45 43 40 24 17 33 39 37 37 36 35 36 36 36 34 31 32 30 31 30 31 29 29 29 28 28 28 26 21 23 22 16 18 16 18 18 20 22 23
43 45 46 46 40 44 44 39 19 19 31 31 34 35 35 34 33 34 34 32 29 27 27 29 30 30 31 29 29 29 26 22 21 22 16 22 23 21 19 19 18 17 18 21 21
45 47 45 46 46 45 41 33 15 20 26 36 35 34 34 34 33 34 33 30 32 30 27 24 22 29 30 30 28 28 26 21 15 19 19 21 20 19 20 21 20 19 19 19 20
48 44 43 47 46 43 35 26 22 31 35 34 34 30 32 32 34 32 31 29 30 31 26 25 25 30 30 30 29 28 26 28 24 22 19 17 14 15 18 22 23 22 21 22 20
44 40 41 46 43 38 33 30 31 36 35 33 29 30 28 30 31 30 30 30 29 30 31 31 24 30 31 30 30 26 28 24 23 12 12 17 16 13 17 20 23 24 25 25 24
38 35 43 43 41 36 29 31 34 36 34 30 28 29 27 30 30 30 29 30 28 29 30 29 26 29 30 28 27 28 27 25 25 24 19 17 17 19 20 23 23 26 27 29 27
38 32 43 45 32 34 31 32 39 35 35 30 27 28 27 29 29 27 26 28 28 28 28 29 28 25 27 29 30 29 27 25 21 17 23 22 21 23 24 25 26 29 33 31 29
35 37 42 42 30 31 33 35 37 36 33 31 28 27 29 28 25 28 29 30 31 29 29 29 28 22 24 26 29 28 28 27 26 27 23 21 20 23 24 27 31 36 37 36 35
37 31 36 40 38 34 35 35 36 36 33 31 28 27 28 28 30 30 31 31 31 32 33 30 28 24 21 25 27 25 26 27 27 26 24 23 23 25 27 33 36 37 37 37 36
40 34 36 32 35 37 37 35 33 32 34 33 29 29 29 28 27 27 31 31 32 33 30 30 26 28 28 29 28 27 27 28 27 28 27 25 27 31 34 38 38 38 39 39 40
37 36 37 36 37 35 37 36 33 33 33 31 31 32 31 30 30 27 30 31 30 32 30 31 26 30 25 26 27 27 29 29 29 30 32 33 33 36 38 39 38 41 41 39 39
40 41 39 34 33 31 31 32 33 33 33 34 32 34 33 35 35 35 35 32 33 32 29 31 28 27 22 27 29 28 30 30 30 33 34 33 35 39 39 40 38 38 37 39 41

GFSSW_sfc_30mbdewp_048.txt.gz
Dewpoint
45 42 42 43 41 44 47 48 51 53 54 57 54 54 54 54 54 54 50 52 51 57 53 53 49 48 47 43 41 41 37 35 33 31 30 33 32 32 30 28 30 32 45 51 55
43 44 43 43 44 43 45 46 48 51 52 54 55 54 54 54 52 48 51 53 53 55 57 49 49 47 44 41 41 38 37 36 37 36 35 34 35 35 31 29 29 39 46 54 55
46 44 42 41 41 43 43 42 47 48 51 53 56 54 53 54 47 47 50 53 53 54 55 53 48 45 43 41 40 39 37 38 39 40 39 37 37 39 35 29 31 36 47 50 54
46 45 44 43 43 43 40 40 42 47 49 52 56 54 53 52 36 50 57 53 54 56 53 50 49 44 41 39 40 37 39 39 40 39 38 36 39 39 38 34 39 39 37 37 47
47 46 45 45 43 42 41 41 43 46 48 51 54 53 52 45 44 49 56 54 55 56 52 49 48 44 40 40 40 38 37 37 38 38 36 36 36 38 38 39 39 37 36 36 38
44 44 44 45 43 43 43 42 44 46 47 50 52 54 48 39 45 48 55 54 55 55 53 51 48 46 39 38 38 37 37 36 37 37 37 36 35 35 36 38 37 36 36 35 35
43 44 44 44 44 44 43 44 44 45 46 48 50 52 46 40 42 50 54 54 55 54 51 52 51 43 42 39 40 38 35 37 36 36 36 36 34 34 36 36 36 36 36 36 35
43 44 44 43 44 44 44 45 46 46 46 47 49 51 40 45 43 42 44 45 49 52 52 52 53 46 43 41 38 36 36 32 34 35 35 35 30 33 35 35 35 35 35 35 36
43 44 43 43 44 45 45 44 45 45 45 46 49 46 37 45 42 41 43 43 49 52 53 54 51 46 41 38 35 34 31 32 33 35 34 34 32 33 34 34 33 33 33 34 35
42 42 42 42 43 45 46 44 44 45 46 48 50 41 41 38 41 40 40 44 48 50 49 49 48 43 41 36 31 31 31 32 31 31 32 33 34 34 33 33 33 33 32 32 33
41 41 41 42 42 46 45 41 35 39 43 38 39 39 38 40 41 40 39 41 48 46 42 45 40 37 40 39 35 33 33 31 30 29 27 27 27 28 29 30 30 31 31 31 31
41 42 42 42 43 44 43 39 37 40 34 40 42 41 41 39 38 39 39 41 44 39 41 41 36 38 41 39 38 36 33 31 29 29 27 26 26 26 26 26 27 27 28 28 30
39 40 42 43 43 44 41 40 43 41 35 36 40 41 37 37 36 36 39 40 41 38 35 34 31 35 35 36 35 31 28 28 28 28 26 25 20 20 23 25 25 26 27 28 28
39 39 40 42 41 43 39 42 44 41 29 32 38 41 40 38 35 38 41 38 38 36 33 33 32 32 33 31 30 27 28 28 27 25 21 27 15 23 21 22 23 22 24 26 27
43 43 43 44 42 39 41 45 44 39 17 35 39 44 40 38 37 37 39 36 34 34 33 30 31 29 29 30 30 28 29 28 27 26 25 24 22 18 22 19 19 20 19 21 25
44 45 46 46 45 41 45 44 41 24 17 32 40 39 37 35 36 37 36 36 35 34 32 30 32 31 29 29 29 30 27 27 28 25 19 21 22 16 16 18 18 18 18 20 22
46 47 47 46 40 44 46 39 21 18 31 30 35 36 34 33 35 36 34 32 30 30 30 29 30 30 31 29 30 28 24 20 19 18 12 23 23 20 21 21 21 21 20 20 21
48 47 46 47 46 46 41 30 17 25 26 36 34 35 34 32 34 35 33 30 32 29 27 26 25 29 30 29 27 27 25 18 10 16 19 22 18 15 22 22 19 21 24 26 25
46 42 44 46 46 42 35 25 25 28 33 35 33 31 33 34 35 32 31 30 31 30 25 24 25 30 30 30 29 28 24 27 24 21 19 18 17 14 21 24 24 25 27 28 29
41 40 43 46 43 39 32 29 31 35 36 33 30 31 29 32 32 31 30 30 28 30 31 28 25 30 30 31 30 26 28 23 22 8 8 14 17 11 15 21 24 26 28 30 32
38 35 41 45 41 35 27 30 33 37 37 31 31 28 30 30 30 28 28 30 29 29 30 30 26 30 30 28 27 28 26 26 23 21 16 15 13 20 19 24 26 27 30 36 37
37 32 41 44 33 34 30 31 38 37 36 34 29 29 29 30 29 28 27 29 30 29 28 30 28 25 28 29 30 29 27 25 19 16 23 21 18 23 23 24 26 26 34 37 38
34 36 43 41 30 31 33 35 38 37 36 32 28 28 30 29 26 28 29 31 30 29 29 30 26 22 24 26 30 28 28 27 25 26 21 20 19 23 24 25 26 34 38 38 38
36 30 35 40 37 34 34 34 35 36 31 30 29 29 28 28 29 30 29 31 32 32 32 30 27 23 19 21 26 25 28 28 26 25 23 22 22 24 26 28 34 38 39 39 40
38 34 37 33 36 36 36 36 32 32 33 31 29 27 28 28 29 30 31 31 32 33 32 29 26 28 28 28 29 27 27 27 26 26 25 24 26 28 31 34 37 40 41 42 41
36 35 37 36 36 35 36 34 32 33 33 30 31 32 30 30 30 29 31 30 29 32 30 30 27 29 25 26 27 26 27 28 28 28 28 28 29 32 34 39 39 38 37 35 36
40 41 39 33 33 32 32 32 33 33 34 34 34 34 34 35 35 34 32 32 32 31 30 29 28 26 20 26 28 25 28 28 29 30 30 29 32 36 37 40 37 34 31 31 32

GFSSW_sfc_30mbdewp_051.txt.gz
Dewpoint
43 44 44 42 43 45 45 45 47 48 50 52 53 57 54 54 55 54 48 51 50 54 56 54 54 51 48 44 41 41 37 34 31 32 31 33 32 33 33 29 30 33 45 48 55
48 46 47 45 43 42 42 43 44 44 48 50 52 56 55 54 52 50 50 50 52 50 56 50 48 47 45 43 41 39 36 36 37 34 34 34 36 36 34 32 29 39 49 55 56
48 48 48 47 46 45 43 42 42 41 43 48 50 53 56 53 46 43 48 51 52 53 56 52 49 46 43 41 40 39 36 37 39 39 40 37 36 39 36 32 31 34 43 49 55
47 46 45 47 43 44 43 43 42 41 41 47 48 52 56 51 31 46 54 52 52 53 53 54 48 44 41 40 40 37 39 39 38 39 38 37 38 37 38 37 38 40 39 37 48
44 44 45 46 45 45 44 43 43 42 42 46 48 52 53 45 41 45 52 57 51 53 52 52 47 44 41 40 40 38 38 38 39 38 38 37 35 37 38 38 40 39 37 36 36
43 44 44 44 44 44 44 44 44 44 45 46 48 51 49 37 42 43 45 55 51 55 52 51 48 45 41 39 39 38 38 38 37 36 37 36 36 35 36 38 38 37 37 36 36
43 43 43 44 44 44 44 44 44 44 46 46 47 48 47 39 42 48 53 53 54 54 52 51 49 46 42 38 39 38 36 36 36 36 36 36 34 35 36 36 35 35 36 36 36
42 43 43 43 43 44 45 44 44 45 46 46 46 48 43 45 44 42 48 53 55 55 52 53 52 45 42 40 39 37 36 33 34 36 36 35 29 33 35 35 35 35 35 35 36
43 42 42 42 43 44 45 46 45 44 45 46 45 44 39 46 43 40 42 44 47 52 53 50 50 45 42 37 35 34 32 33 33 34 34 34 32 33 34 33 33 33 32 33 34
41 41 42 42 43 43 46 44 43 43 45 45 46 41 43 39 41 40 40 48 50 50 50 49 46 43 40 36 30 32 32 32 31 31 32 32 32 34 35 34 34 34 34 34 34
43 43 42 43 43 43 44 40 34 36 41 37 40 40 40 40 41 39 39 44 50 47 43 46 40 37 38 38 34 33 32 31 31 30 28 28 27 27 28 28 28 29 32 33 33
40 39 40 41 43 43 43 37 37 39 31 39 40 41 43 43 38 39 42 43 45 40 43 41 37 39 43 41 38 36 34 32 31 29 28 27 26 27 27 27 27 27 28 28 29
39 42 41 41 43 43 40 40 42 42 32 35 38 40 42 39 38 38 40 43 41 39 37 36 34 42 40 38 38 36 32 29 28 28 26 25 22 23 23 24 25 26 27 28 28
43 44 45 45 41 42 37 42 43 41 26 30 36 40 43 38 36 39 40 41 40 36 35 31 32 37 35 35 33 29 29 29 27 26 24 26 18 21 20 21 23 23 23 23 25
44 46 47 46 43 39 40 44 43 39 13 32 36 45 41 36 37 38 39 37 35 34 32 31 30 32 32 31 30 28 29 28 27 25 24 24 21 15 20 16 18 19 20 20 21
47 46 45 46 46 42 45 44 41 25 18 32 39 38 36 36 37 39 37 36 36 33 31 30 32 30 29 31 30 30 27 27 28 24 17 21 21 11 15 18 18 21 24 25 26
47 47 47 46 41 45 45 39 21 18 30 30 34 34 34 34 37 38 34 32 33 31 29 29 30 30 31 29 29 27 24 16 15 17 11 23 22 17 21 23 24 22 26 28 30
46 46 46 47 46 45 40 31 18 24 26 35 35 34 34 34 36 35 32 32 31 30 29 27 26 29 30 29 28 27 25 16 7 13 18 22 18 15 22 21 21 26 28 30 33
43 42 44 46 44 41 36 26 24 28 32 35 33 32 32 34 36 35 32 29 30 29 26 25 25 30 30 31 28 27 24 26 22 19 19 18 17 13 23 24 26 26 28 30 35
38 40 40 45 44 39 32 28 30 34 35 32 29 33 28 32 32 32 30 31 29 31 31 26 24 30 30 30 30 27 28 23 21 6 1 11 15 9 18 21 25 25 26 31 37
38 35 38 45 41 33 26 29 33 37 36 31 31 30 31 30 31 29 29 30 29 29 30 29 27 29 29 27 27 27 26 25 23 19 13 11 8 19 19 23 24 26 27 35 38
36 31 41 44 32 33 30 31 38 37 38 34 30 30 29 30 28 27 27 29 31 30 28 30 28 26 27 29 30 29 26 25 19 16 22 20 16 23 24 24 25 27 29 37 39
34 36 43 41 30 32 35 36 37 37 36 32 28 28 30 28 26 28 28 31 31 29 29 29 24 21 23 25 28 28 28 26 24 24 21 18 16 23 25 25 28 33 36 40 39
35 30 34 39 36 35 35 35 34 37 32 30 29 30 28 28 31 29 29 32 32 30 32 29 25 22 18 20 26 26 28 28 25 23 21 21 21 23 25 27 31 37 40 41 41
36 34 37 31 33 36 36 35 32 31 32 31 28 27 28 28 29 29 30 31 32 34 31 29 26 27 27 27 28 28 26 28 26 25 23 23 24 25 26 29 33 39 38 35 34
35 34 37 35 36 34 34 32 32 33 32 30 31 32 31 30 30 29 30 30 29 31 30 29 27 28 24 26 27 26 27 28 27 27 27 27 27 28 30 36 40 37 32 32 31
40 40 38 33 33 31 32 32 33 34 35 36 35 34 33 35 35 32 31 31 30 30 30 29 28 26 20 25 28 24 27 27 27 28 27 26 28 34 36 39 38 33 29 28 26

GFSSW_sfc_30mbdewp_054.txt.gz
Dewpoint
49 49 49 49 48 47 45 43 43 42 43 45 49 52 55 56 55 54 50 49 51 53 57 55 55 53 47 44 41 41 37 33 31 32 30 33 32 34 34 31 30 31 39 48 59
47 46 47 48 47 47 46 46 44 43 43 43 43 48 51 57 53 50 51 51 51 51 51 54 52 50 46 43 41 39 36 36 35 33 32 35 36 36 35 34 30 36 46 56 64
45 44 45 45 46 47 45 45 45 44 42 40 41 46 49 55 48 44 48 51 51 52 51 51 51 47 44 42 40 39 36 37 38 37 39 37 37 38 36 33 31 33 38 46 60
45 45 45 44 45 46 46 46 46 44 43 42 40 46 49 52 37 41 49 49 52 51 52 52 47 45 43 40 40 37 39 38 36 39 38 37 37 37 37 36 37 39 39 37 44
45 45 44 44 44 44 44 45 44 44 45 44 45 47 51 46 42 45 50 47 52 51 51 51 46 44 41 41 39 38 38 39 39 39 38 37 36 36 36 39 39 40 38 38 36
44 42 43 43 44 44 44 44 44 44 44 44 46 47 48 40 44 43 42 52 50 51 51 52 48 44 42 40 39 39 38 38 38 37 37 36 36 36 36 37 37 38 37 37 37
42 43 43 43 43 43 43 44 44 44 44 44 45 45 45 42 43 44 48 53 50 52 50 53 49 45 42 39 40 38 36 36 36 36 36 37 34 35 36 36 36 36 36 36 36
43 42 42 42 42 42 44 45 44 45 45 45 45 45 40 47 47 45 46 53 53 55 52 52 49 46 41 40 38 37 35 33 35 36 36 35 28 32 34 35 35 36 36 36 36
43 44 43 43 43 42 44 45 45 45 44 44 43 41 40 47 46 45 42 52 53 54 53 50 48 45 41 37 36 35 31 32 34 35 34 35 32 33 35 34 34 34 33 34 34
43 44 41 40 41 43 44 44 43 44 44 44 41 39 42 39 45 41 41 50 49 50 48 47 45 42 40 35 28 30 31 33 32 31 33 33 32 31 31 33 34 34 34 34 34
42 40 40 40 41 43 44 39 32 33 38 34 36 39 41 44 46 40 41 48 48 46 43 45 39 37 38 37 34 33 33 31 32 31 29 30 28 29 29 29 28 28 29 29 31
38 39 42 44 41 43 42 37 36 37 30 38 39 41 44 46 39 40 43 43 44 41 44 41 36 40 40 38 36 34 33 32 32 30 28 28 26 27 27 28 28 28 28 28 29
43 44 45 46 47 43 40 38 41 41 30 34 38 39 43 45 37 38 40 43 41 40 40 36 39 43 42 39 38 36 34 31 30 28 26 26 24 23 22 24 24 25 26 26 25
45 47 47 47 42 42 37 42 42 42 24 29 35 40 43 44 36 39 43 43 41 37 35 33 40 40 39 37 38 33 33 29 27 26 25 26 21 22 21 19 21 21 22 23 24
47 47 45 46 41 39 40 44 42 38 13 31 37 45 43 38 37 37 41 38 36 38 36 32 37 37 37 36 38 30 29 28 27 25 23 23 20 13 19 17 19 24 27 29 30
47 47 46 44 44 43 44 43 39 24 17 31 38 38 37 36 38 39 39 38 37 32 31 30 32 30 29 31 30 29 27 27 26 23 17 20 20 9 15 19 20 23 27 30 34
46 46 46 46 40 45 43 37 22 18 30 29 33 36 35 35 36 37 36 33 35 30 29 29 30 30 31 29 28 27 26 21 13 16 10 23 21 16 20 20 23 25 28 30 35
45 45 46 45 46 43 38 30 20 26 27 35 35 35 34 34 36 37 34 31 31 31 29 27 26 29 30 29 27 26 25 16 3 10 16 22 18 16 22 20 25 27 28 30 35
43 41 43 45 45 41 35 25 26 29 31 35 32 32 32 36 35 35 33 30 30 29 26 24 26 30 30 30 28 26 24 24 20 19 18 17 17 12 23 24 26 25 27 28 33
38 38 38 44 44 38 30 29 31 35 34 32 29 32 29 33 31 32 31 31 29 31 30 26 25 30 30 30 29 27 27 22 20 10 1 6 12 7 18 21 22 25 29 28 33
37 33 37 46 39 32 28 30 34 37 36 31 31 29 31 31 30 29 28 30 29 30 30 28 27 29 29 27 27 27 26 24 22 18 9 4 4 18 19 23 24 26 30 32 37
35 30 40 43 32 34 32 34 37 36 37 30 31 30 29 30 28 27 27 29 31 30 28 29 28 25 26 29 30 28 26 24 17 16 20 19 11 22 23 24 25 27 32 38 40
34 34 40 39 30 33 36 36 37 36 36 30 28 29 30 28 26 27 28 32 31 29 28 28 24 22 24 26 28 28 28 25 23 22 20 16 11 23 24 25 27 30 39 40 39
34 31 34 39 36 35 34 34 34 37 33 30 29 29 28 29 30 28 29 33 31 30 32 29 24 21 17 19 25 26 28 25 24 22 21 20 18 20 23 25 27 32 39 36 34
35 34 37 31 33 36 35 34 32 31 32 31 28 28 28 28 29 29 30 31 33 35 31 28 25 28 27 26 27 27 26 27 25 25 21 20 23 23 25 27 29 38 35 32 31
34 35 36 35 34 32 32 32 32 33 33 31 32 33 31 29 29 28 30 29 29 30 30 29 27 27 24 26 27 27 28 27 27 27 26 26 26 28 28 32 39 37 33 29 28
40 40 38 33 32 31 32 33 33 34 36 36 35 34 32 34 35 32 31 31 30 30 29 29 28 25 21 25 27 23 27 27 27 28 27 25 26 28 32 37 39 35 31 26 25

GFSSW_sfc_30mbdewp_057.txt.gz
Dewpoint
46 46 46 45 46 47 49 49 48 45 45 42 43 44 46 51 54 54 49 50 51 54 57 53 54 54 47 44 41 42 37 32 32 31 29 32 29 34 35 32 31 32 41 50 59
48 46 46 46 46 45 46 47 47 47 46 44 41 42 43 48 50 49 51 53 51 51 50 53 51 52 48 43 41 39 36 35 35 34 31 34 34 35 34 34 32 41 41 60 63
47 46 46 46 44 44 44 45 46 47 47 45 43 42 41 48 47 47 53 52 52 52 51 53 52 50 46 43 40 39 34 36 38 35 38 37 37 39 36 31 33 34 40 56 61
44 45 45 44 43 43 44 44 44 45 45 44 44 45 45 48 37 45 49 52 53 51 51 51 50 47 44 41 41 37 39 37 37 40 39 38 38 37 37 35 36 39 39 38 58
44 44 45 43 43 43 44 44 44 44 45 45 45 45 46 43 44 47 48 47 52 51 50 50 48 46 42 42 40 38 38 39 39 39 38 38 37 36 36 38 39 40 39 38 37
43 44 44 43 43 43 43 43 44 44 44 45 45 47 43 38 45 49 46 45 51 50 49 51 47 45 43 42 38 39 38 38 38 38 37 36 36 36 36 37 37 37 37 38 38
44 44 44 43 43 42 42 43 44 44 44 45 45 45 42 40 46 48 46 48 51 51 49 52 47 43 41 39 41 39 37 37 36 37 36 37 33 35 36 37 36 36 36 36 37
43 44 44 45 44 44 43 43 44 45 45 45 45 43 36 46 47 46 46 51 51 51 51 52 50 43 40 40 39 37 36 33 35 36 36 35 28 32 35 36 35 36 36 36 36
44 44 44 42 41 41 43 44 44 45 45 44 42 40 34 47 44 47 48 48 50 52 52 52 49 45 40 37 36 36 31 32 32 37 35 33 30 33 35 34 33 34 34 34 34
41 40 40 40 43 41 44 44 43 45 44 44 40 35 37 40 47 46 44 48 49 50 46 45 44 41 40 36 27 32 30 32 29 31 35 34 34 35 32 31 31 32 32 34 35
41 43 43 44 44 43 44 39 31 33 38 32 33 36 41 46 47 43 42 49 48 45 39 43 39 35 38 37 32 33 31 31 33 30 30 30 30 30 30 30 30 30 30 30 30
45 45 46 46 46 47 43 36 36 37 28 37 38 37 43 46 42 42 46 43 44 39 42 40 36 39 39 37 34 32 31 32 32 29 29 28 27 29 29 29 29 29 29 29 27
47 47 47 46 48 45 40 37 41 40 28 35 38 37 43 43 40 39 44 45 42 40 38 34 37 41 38 38 35 34 32 31 30 28 27 26 24 24 23 23 23 23 24 26 28
47 47 45 46 41 42 38 42 42 40 24 30 36 39 44 42 38 40 46 44 42 38 37 36 42 41 40 37 37 34 35 30 28 27 25 26 22 24 20 23 26 28 30 32 33
46 47 46 44 41 39 41 43 42 37 15 32 36 46 44 39 38 38 43 39 38 37 38 34 39 37 36 37 37 35 30 28 26 25 23 23 21 19 19 18 23 27 29 32 35
46 46 47 45 43 43 44 42 37 21 17 31 37 36 37 38 38 40 41 40 39 36 33 32 37 36 34 40 38 32 27 26 25 23 18 20 20 11 17 19 21 25 28 31 35
45 45 45 45 40 45 42 36 22 18 30 29 33 36 36 35 36 38 37 35 35 30 30 33 30 30 31 29 29 28 27 21 13 17 13 23 22 18 19 21 23 26 28 29 34
46 43 45 45 45 43 40 29 19 26 28 35 37 36 34 35 36 36 36 31 31 30 28 27 26 29 30 29 28 26 27 21 5 9 13 22 18 16 22 22 25 27 28 29 33
43 41 41 42 44 41 33 26 26 29 32 35 34 32 32 35 35 35 32 30 30 29 26 25 27 30 31 30 28 26 25 23 19 18 17 16 18 16 23 22 26 25 30 32 34
38 37 36 43 43 38 31 30 33 35 34 31 29 30 29 33 33 32 31 30 29 31 29 27 26 30 29 30 29 27 26 21 19 9 3 5 8 6 20 23 22 26 28 32 38
36 32 36 45 39 35 29 32 35 37 35 31 31 30 31 30 31 29 28 31 30 30 29 28 27 29 29 27 26 26 25 23 21 17 7 3 3 16 17 22 24 26 29 35 40
35 30 38 41 33 34 32 34 37 36 37 30 31 30 30 29 28 28 26 29 31 30 28 29 28 26 26 29 29 28 26 22 17 17 19 18 8 20 21 24 25 27 30 40 39
34 33 38 39 31 32 35 35 37 36 34 29 28 30 30 28 26 27 28 32 31 29 28 27 24 23 25 26 28 28 27 24 21 22 19 14 7 22 24 25 25 28 38 37 34
34 30 33 37 37 36 34 33 33 36 32 30 30 29 28 29 30 28 29 33 32 30 32 28 24 21 18 20 26 26 27 24 23 21 20 19 15 18 20 24 27 32 37 33 32
35 33 36 31 33 34 35 34 31 31 33 32 29 28 28 28 29 28 31 31 33 35 30 28 25 28 26 26 27 26 27 26 24 24 21 18 20 21 24 26 28 37 35 32 29
33 34 36 34 33 31 32 33 33 34 34 31 31 33 30 28 28 28 30 29 29 31 29 29 27 27 24 26 27 27 28 27 26 26 25 25 25 27 28 29 37 37 33 29 27
40 40 37 33 31 30 32 33 32 34 36 37 34 33 31 32 35 32 31 31 30 30 29 28 27 24 21 25 26 24 26 27 27 28 27 25 25 28 29 32 39 36 32 27 25

GFSSW_sfc_30mbdewp_060.txt.gz
Dewpoint
47 48 48 48 47 47 45 45 47 49 49 47 45 43 43 45 47 49 49 50 48 53 57 47 52 54 47 43 42 43 32 28 30 29 27 30 29 30 32 27 29 32 37 50 55
45 44 45 47 46 46 44 44 44 46 47 48 47 45 43 42 44 45 49 53 51 51 53 44 50 51 46 42 39 33 29 25 30 32 29 30 27 31 30 30 30 35 42 58 61
43 44 45 46 46 43 44 44 45 45 45 46 47 45 44 43 40 41 47 53 53 52 48 48 50 50 45 43 38 33 28 31 36 34 33 31 33 36 30 30 29 31 40 56 60
44 44 45 45 44 42 43 43 44 44 44 45 45 46 45 42 31 44 51 54 54 52 48 48 49 47 44 41 38 35 32 33 38 39 38 35 34 34 33 29 35 39 39 43 58
44 44 45 45 44 43 44 44 43 43 44 45 45 45 44 38 35 50 51 52 53 51 48 46 46 45 41 41 40 36 36 37 37 39 38 38 36 33 35 37 38 38 40 39 39
45 44 45 45 45 44 43 42 43 44 45 44 45 45 41 34 36 40 52 47 48 50 47 48 45 45 42 40 38 38 36 36 36 37 37 36 36 36 34 36 35 36 35 35 37
45 44 45 44 45 45 44 44 42 43 45 44 45 43 39 35 44 48 52 47 49 50 45 48 45 44 42 40 40 38 36 35 36 35 33 36 32 34 34 33 32 31 32 33 36
45 44 43 44 43 42 41 42 43 44 45 45 45 41 33 37 38 43 50 46 47 50 47 49 49 44 38 40 39 35 34 30 30 34 36 34 20 30 34 32 32 32 31 32 33
42 43 42 42 41 42 42 44 45 44 44 44 43 38 33 40 44 45 48 45 45 48 48 50 48 41 40 35 35 33 24 26 31 35 30 32 23 27 33 33 31 31 31 33 33
46 46 46 46 45 43 44 44 43 44 43 42 40 37 36 35 45 46 46 48 47 47 46 46 45 40 37 32 23 27 27 28 25 32 35 32 27 31 33 33 31 30 30 31 32
46 47 47 47 49 46 45 39 33 36 38 32 32 34 35 42 47 46 44 45 49 43 38 42 39 36 35 32 28 28 28 25 29 30 30 30 31 32 32 31 30 30 29 29 31
46 47 46 47 47 47 44 34 34 36 28 35 35 37 36 44 39 44 45 46 43 38 36 38 36 38 36 35 32 29 26 26 32 31 30 29 29 30 30 30 30 29 29 28 28
45 46 46 46 45 44 40 37 42 39 29 34 39 36 38 44 38 40 45 45 38 35 37 33 35 36 36 35 32 30 26 30 28 29 28 27 26 26 23 23 24 25 28 31 31
45 47 45 44 40 42 37 43 43 41 29 29 35 37 42 42 37 43 48 46 40 35 37 36 39 37 35 33 31 30 33 32 29 29 25 27 15 23 22 26 28 31 33 35 35
45 47 46 44 41 38 42 44 43 38 18 33 36 44 42 39 40 42 48 41 37 36 37 33 36 38 36 34 35 34 34 31 28 27 25 23 22 19 21 23 26 29 32 35 38
46 46 45 44 42 44 44 42 39 27 19 31 37 36 37 39 40 43 42 43 40 37 36 35 41 38 38 41 36 29 28 27 27 26 23 21 21 13 17 20 24 27 30 33 37
48 44 43 44 38 45 44 39 28 21 31 30 33 37 36 36 36 37 37 37 35 31 30 32 34 37 40 34 37 33 28 26 23 24 20 22 19 15 19 20 24 30 32 33 37
47 44 44 44 45 45 40 32 22 29 30 36 36 37 34 34 36 37 34 31 31 32 32 30 27 34 36 31 30 29 29 25 14 11 13 22 17 16 22 23 26 27 31 35 38
44 41 42 41 45 43 36 28 27 30 34 34 31 30 31 33 35 36 31 30 30 29 28 28 29 30 31 30 29 28 28 24 21 20 17 15 18 20 22 22 25 26 30 34 39
41 39 38 44 45 39 36 31 34 36 35 31 28 30 26 30 30 31 31 30 30 30 29 29 28 30 29 30 29 28 27 24 25 14 10 9 8 11 20 22 25 27 31 35 40
39 36 39 44 42 38 31 33 35 36 35 31 30 29 29 28 30 28 28 30 30 29 29 29 28 30 30 29 27 26 26 24 21 18 12 1 3 17 23 24 25 27 31 38 39
38 35 41 43 35 36 33 35 37 36 36 31 31 31 29 29 27 27 26 29 31 30 27 29 29 26 27 29 30 28 26 23 20 20 20 20 9 17 21 25 25 28 34 39 36
37 36 41 43 32 34 35 35 37 34 32 29 29 30 30 28 27 28 28 33 31 30 27 28 27 24 25 27 29 28 27 25 23 24 23 17 10 22 23 24 25 29 37 37 35
37 32 37 40 39 36 33 33 32 36 32 30 30 29 29 28 29 28 29 32 33 32 31 28 26 23 18 23 28 28 28 25 25 24 20 19 16 20 23 22 27 32 38 36 33
38 35 36 33 34 34 35 34 31 31 34 32 29 28 27 26 27 28 31 31 33 34 30 29 26 28 26 26 27 27 28 26 25 26 23 21 20 19 22 26 28 35 37 34 31
36 35 36 35 33 32 33 33 32 34 34 30 29 32 30 26 27 27 29 28 28 31 29 30 28 27 25 26 27 27 27 28 27 26 26 25 25 26 27 28 33 38 36 32 28
40 40 37 34 32 31 33 34 33 35 37 36 33 32 31 32 35 33 31 30 30 29 29 28 28 26 23 26 26 24 27 27 28 28 27 26 26 27 27 29 36 38 35 30 27

GFSSW_sfc_30mbdewp_063.txt.gz
Dewpoint
47 45 45 45 46 47 47 47 46 45 47 49 49 48 46 44 43 44 45 52 50 52 55 43 51 54 48 43 39 40 35 32 30 29 27 29 29 30 28 25 26 27 34 49 58
47 45 45 45 46 46 45 44 45 45 46 47 47 48 47 45 41 36 44 52 54 50 51 40 48 51 45 42 39 37 34 31 31 30 29 28 29 28 28 26 23 27 40 53 58
46 45 45 46 45 45 43 43 44 45 45 44 46 47 48 45 37 32 39 49 56 51 50 47 44 49 43 41 38 34 27 29 27 33 33 29 28 25 28 22 23 25 32 51 56
46 46 45 46 45 44 44 44 44 44 43 44 46 46 46 41 28 32 46 50 54 53 45 47 38 44 42 40 38 33 30 27 33 35 34 30 28 31 29 27 29 35 39 45 53
45 46 45 45 45 45 45 44 42 43 44 45 45 45 43 36 35 41 50 51 51 53 43 42 37 41 39 40 37 35 31 31 35 38 36 30 28 30 30 33 36 37 38 37 40
46 46 46 45 45 45 45 44 44 42 45 46 45 45 39 31 32 34 44 48 52 52 42 42 39 40 39 38 36 36 34 34 34 38 37 35 30 33 32 33 34 33 33 34 36
45 44 45 43 43 44 43 42 44 44 44 45 45 43 36 32 33 47 52 47 49 51 42 42 40 40 39 39 40 36 33 34 33 34 34 36 32 33 33 33 32 30 31 30 32
47 47 47 46 42 42 42 43 42 44 45 45 46 41 35 33 34 35 45 49 48 54 44 42 43 44 41 38 39 37 33 31 32 33 32 33 25 29 32 31 30 28 27 27 27
46 46 47 47 46 45 42 44 44 44 44 45 43 38 31 37 33 38 47 45 45 51 47 43 47 43 41 37 34 33 26 26 26 31 32 33 23 26 30 30 28 27 27 28 28
46 47 46 47 47 46 45 45 42 44 42 40 39 36 32 31 34 43 49 48 45 49 42 44 45 39 38 32 28 26 25 22 21 31 30 28 27 25 28 30 28 27 27 28 28
46 46 46 46 47 47 45 37 35 35 35 31 32 32 34 36 45 45 47 46 47 42 35 41 39 34 32 31 24 21 24 20 21 31 30 26 26 25 28 30 28 28 26 25 26
46 47 45 47 46 45 41 32 34 37 29 32 33 35 35 42 39 44 48 45 44 35 34 38 36 37 33 30 27 26 24 24 28 28 28 24 26 28 29 29 28 27 28 27 28
47 47 45 44 45 39 37 38 40 38 34 33 37 36 38 43 40 40 44 43 41 32 34 35 37 40 39 33 29 25 24 23 25 30 29 26 25 25 26 26 25 25 26 28 29
48 46 45 45 40 39 37 41 41 40 30 31 34 38 41 42 36 45 45 42 40 32 34 35 39 38 38 34 29 25 26 24 29 27 18 26 8 23 24 25 26 28 30 32 32
47 46 46 44 39 37 41 43 42 39 18 34 37 42 42 39 39 41 48 46 37 37 37 35 37 36 37 36 31 31 32 31 30 29 27 25 21 21 23 24 26 29 32 35 36
46 47 45 42 41 42 43 42 39 28 20 32 37 36 37 39 40 42 42 42 39 36 35 34 39 38 40 38 35 35 32 30 29 28 26 23 21 18 20 22 25 27 30 33 36
46 47 45 42 37 43 43 39 30 23 33 31 34 37 37 37 38 38 37 37 35 30 30 32 32 37 39 34 34 32 31 28 27 26 22 21 20 17 18 22 25 27 30 33 36
47 46 43 42 44 44 40 36 25 30 32 36 37 34 33 32 36 36 33 33 35 35 32 30 27 32 37 36 34 34 33 28 20 18 19 21 17 16 20 21 28 29 32 35 38
47 40 42 41 45 44 38 29 28 31 35 33 32 28 28 32 34 33 30 30 31 32 31 31 29 36 37 33 36 33 31 27 22 19 16 14 17 21 22 22 25 27 31 35 38
41 39 39 43 45 42 37 31 33 36 34 30 27 29 25 28 29 29 29 30 29 29 29 29 28 32 30 30 29 30 29 26 28 18 10 12 10 12 19 22 24 27 31 35 39
41 39 41 44 43 38 31 34 33 34 34 31 28 26 25 27 28 27 28 30 30 28 28 29 28 30 30 30 28 27 27 25 23 18 14 1 4 17 19 20 25 28 31 37 39
40 37 42 44 38 37 35 36 37 34 33 30 30 28 26 27 26 26 25 29 30 28 26 30 29 27 28 29 30 28 26 24 20 19 20 21 12 19 23 25 26 28 33 38 37
37 37 43 45 34 35 35 34 35 31 30 29 28 30 30 27 26 27 28 33 31 29 26 28 29 24 24 27 28 28 27 25 23 25 25 18 14 21 24 25 25 29 35 38 37
37 36 40 38 38 34 31 31 30 35 31 30 29 29 28 27 27 27 28 32 32 31 30 27 26 25 19 26 28 27 27 27 28 25 20 19 16 19 22 24 24 30 36 38 35
36 35 36 35 33 34 34 31 29 29 32 30 28 27 26 25 25 25 29 30 31 32 29 28 26 25 25 25 27 28 28 27 27 26 23 22 19 19 22 24 28 32 37 36 33
36 35 36 35 33 32 33 31 31 31 33 28 27 28 27 24 23 24 27 27 26 30 28 29 28 29 26 26 26 27 27 28 28 27 25 25 24 24 24 27 31 34 38 36 32
37 38 37 34 32 31 31 32 31 34 35 34 30 28 27 30 33 31 30 28 28 27 28 28 30 27 22 25 25 24 26 27 28 28 27 26 25 27 26 29 31 38 38 36 31

GFSSW_sfc_30mbdewp_066.txt.gz
Dewpoint
49 48 47 46 47 47 47 47 45 46 47 46 48 49 49 48 46 43 41 48 51 53 52 45 48 54 54 50 43 41 40 39 41 37 32 31 29 31 29 28 27 27 48 58 63
47 48 47 46 47 46 46 45 45 46 47 47 47 47 49 48 44 39 38 45 53 53 50 42 45 51 49 48 43 37 37 37 39 35 32 32 30 30 28 27 26 30 49 58 62
46 46 46 47 46 45 45 45 44 45 44 44 45 46 48 47 40 35 39 43 52 55 48 46 41 47 46 44 41 37 35 36 34 34 34 31 29 30 28 27 27 25 41 53 59
47 47 47 46 46 46 45 45 45 44 45 45 45 46 46 43 30 44 38 41 53 55 48 48 40 43 44 41 41 35 35 33 31 35 34 30 30 28 27 28 33 38 42 52 54
45 47 47 46 45 45 46 45 45 43 44 45 45 46 44 36 34 35 47 44 51 54 47 45 38 42 41 41 38 38 34 32 32 37 36 32 30 29 30 34 37 37 38 38 45
47 47 47 47 46 43 44 45 45 45 45 46 46 46 40 32 33 32 38 41 50 52 49 42 40 38 38 40 39 37 36 33 33 38 35 31 30 29 31 32 34 35 35 36 37
46 46 46 47 48 43 42 42 42 43 44 44 46 43 38 33 32 46 48 46 47 50 48 43 40 35 40 38 41 37 34 35 32 37 36 36 32 31 32 32 32 33 33 32 32
45 46 46 46 47 47 43 43 44 44 46 45 46 41 36 36 36 33 42 43 44 50 50 43 40 43 39 40 40 37 35 33 33 34 36 35 30 32 33 33 32 31 29 30 30
46 45 46 46 46 48 45 44 45 44 44 44 42 40 31 34 34 33 33 40 42 47 51 48 42 43 40 39 36 36 32 32 31 33 32 33 30 30 32 32 32 30 30 28 27
47 47 46 47 47 48 46 46 43 43 44 40 38 36 34 29 32 32 48 47 44 46 46 44 41 39 39 38 29 32 31 27 28 31 32 33 32 29 30 29 28 28 27 27 28
47 46 45 46 47 46 45 43 37 36 35 31 31 32 32 37 37 38 47 44 47 47 41 42 37 35 36 37 33 29 28 26 26 30 31 31 31 30 28 30 30 29 27 27 28
46 47 46 45 45 44 42 33 35 36 31 31 32 33 37 42 38 42 48 41 42 37 39 39 34 35 36 36 34 30 26 25 25 31 30 29 28 27 27 30 30 29 28 27 27
47 47 46 45 45 40 38 39 40 39 35 35 38 38 41 39 39 41 44 42 38 36 35 32 34 36 33 31 32 27 25 23 25 29 29 26 24 26 28 28 27 27 27 27 29
46 47 47 46 43 39 37 42 42 41 31 33 35 39 43 40 38 45 46 44 41 33 34 34 39 37 38 36 32 29 25 25 27 28 23 27 13 23 26 25 25 25 26 30 31
46 47 47 47 42 36 40 41 41 40 17 33 37 44 43 39 40 39 48 42 37 35 37 35 37 37 34 35 35 27 28 28 30 27 26 25 23 21 25 23 25 27 32 34 34
46 46 48 43 43 41 43 42 41 29 20 32 38 38 38 39 39 42 42 43 38 35 36 35 39 39 38 39 41 35 32 31 30 29 26 26 22 21 22 24 27 31 33 35 37
47 47 46 43 40 43 43 41 31 23 34 31 34 38 36 36 37 39 37 37 34 30 30 34 33 36 40 35 38 36 29 26 25 26 24 22 23 22 22 25 27 28 31 34 37
47 48 42 43 44 44 42 37 24 30 31 37 36 32 32 34 36 37 37 35 37 35 32 29 26 34 37 37 35 33 31 27 18 21 21 21 20 18 22 26 27 30 33 35 38
46 44 43 43 45 44 40 28 29 31 36 34 33 30 28 32 33 32 31 34 37 37 32 30 29 36 37 37 37 35 32 28 23 18 18 19 19 21 21 27 28 28 32 36 39
42 41 41 43 45 44 36 31 33 36 33 31 27 27 26 28 28 29 29 30 30 33 33 32 28 35 36 39 36 37 35 26 26 13 12 14 16 15 20 24 25 28 31 36 39
44 41 43 45 45 40 31 33 33 33 34 30 27 25 25 26 27 26 28 30 29 28 29 30 29 31 33 33 32 33 32 29 24 21 17 10 10 19 21 23 24 28 32 37 39
43 39 43 45 40 38 34 35 36 32 32 30 30 28 25 26 26 26 27 29 30 29 27 31 29 26 28 29 29 29 27 27 22 20 20 20 15 20 21 24 27 29 33 39 38
38 37 45 46 35 35 36 34 34 31 29 29 28 30 30 26 25 27 29 33 31 31 28 29 29 24 25 28 28 28 28 27 25 26 24 21 15 23 25 25 25 29 35 38 37
38 35 40 39 38 35 31 30 30 35 32 29 28 29 28 27 27 28 29 32 32 31 30 29 26 25 22 27 29 27 27 27 26 22 23 21 17 22 24 24 24 31 36 38 37
36 35 36 34 34 34 33 32 29 28 32 30 28 27 27 25 25 25 29 31 31 30 30 30 26 26 25 25 28 29 28 28 26 26 22 23 19 18 21 24 26 33 37 37 35
34 34 34 34 34 32 33 31 31 30 31 28 28 27 26 25 25 24 27 28 28 31 28 31 27 28 23 26 26 26 27 28 28 28 27 27 25 26 26 27 30 34 37 37 35
36 37 35 32 31 32 32 33 32 33 34 33 33 29 28 30 32 31 30 28 28 28 28 28 29 26 23 25 25 21 26 27 28 29 28 25 26 27 27 29 31 37 39 38 34

GFSSW_sfc_30mbdewp_069.txt.gz
Dewpoint
47 46 47 47 47 47 47 47 47 46 47 47 48 48 49 49 49 46 41 45 50 54 51 47 46 50 55 52 47 48 43 39 40 41 39 39 37 29 29 28 36 48 56 62 63
46 47 47 48 47 47 46 46 47 45 46 46 46 47 48 50 46 43 44 43 47 54 49 45 44 50 50 49 43 41 41 37 37 40 41 39 34 36 28 27 41 55 62 63 63
46 47 48 48 47 47 46 46 46 46 46 46 45 46 48 48 41 39 41 45 44 53 52 45 45 50 48 48 44 40 37 40 39 40 44 39 35 34 28 27 28 49 59 61 62
48 48 47 46 47 47 45 46 45 45 44 45 46 46 47 45 30 39 43 47 44 52 51 47 42 45 45 43 45 36 37 36 37 38 41 39 31 29 28 34 37 38 56 60 61
47 46 45 45 45 48 44 45 46 45 45 45 45 46 45 39 38 36 38 44 45 53 48 47 40 42 43 43 42 39 37 35 36 37 37 34 30 30 29 37 37 37 45 56 58
48 46 46 46 46 48 43 44 43 44 45 45 46 46 41 33 36 36 39 37 44 51 47 47 43 43 43 42 41 40 39 38 35 37 36 31 31 30 30 35 36 35 35 36 45
47 45 46 47 46 48 44 42 44 43 44 45 46 44 39 35 36 43 45 45 48 50 48 47 44 39 39 38 41 42 37 37 36 37 36 34 29 30 32 33 33 34 33 33 33
47 46 45 47 47 48 46 42 44 44 46 46 46 42 35 38 38 37 40 41 43 47 50 48 45 42 39 41 40 39 35 33 34 36 37 31 27 31 33 33 33 33 32 32 31
47 46 45 47 48 48 46 44 45 45 44 44 42 40 34 37 36 35 34 33 42 45 50 49 45 40 41 37 37 37 34 33 32 36 36 32 30 31 33 32 32 33 32 31 29
47 47 46 46 46 47 46 46 45 43 44 43 38 35 36 33 37 34 46 43 42 47 47 46 41 38 38 37 29 34 33 33 31 33 33 33 32 31 30 31 32 32 31 29 29
47 48 46 46 46 46 45 43 36 35 36 31 31 33 33 40 41 37 46 43 43 43 40 43 38 35 35 37 35 34 33 30 31 32 32 32 32 32 32 29 30 30 30 28 27
46 47 47 46 46 46 41 35 36 37 32 36 34 36 41 41 36 41 43 38 41 36 41 39 35 36 37 38 36 32 31 30 28 28 32 31 31 33 32 30 29 30 29 29 28
46 46 47 47 47 42 40 41 43 41 35 37 40 39 40 40 38 37 41 41 39 38 37 36 35 37 37 36 36 34 31 29 26 30 30 28 29 30 30 29 30 30 29 28 29
47 46 48 48 42 39 39 43 42 41 30 34 37 40 42 39 37 45 45 43 38 36 37 37 37 35 35 34 33 30 31 29 28 28 27 27 21 23 27 27 27 26 26 27 31
46 47 48 48 43 37 39 42 42 40 19 34 37 44 44 39 38 41 47 43 37 38 37 35 37 36 36 35 38 33 32 28 29 27 26 25 22 20 25 26 25 25 26 31 32
46 47 48 45 45 42 43 43 41 25 20 32 38 38 37 38 39 42 42 45 39 35 36 36 39 39 38 39 40 41 33 30 30 29 24 26 24 20 24 25 25 27 34 35 37
47 48 47 44 41 43 44 41 26 22 33 30 35 37 37 36 38 38 38 36 34 31 30 33 34 38 39 34 37 38 34 27 24 25 21 25 25 22 24 25 26 32 34 36 38
48 49 45 44 45 44 43 33 21 29 30 35 36 36 33 36 37 37 36 35 37 33 31 27 27 36 37 36 33 34 31 22 17 20 22 22 23 23 22 26 30 33 34 36 40
48 45 42 45 45 44 39 25 26 30 34 34 31 30 30 33 36 36 35 35 36 37 29 28 28 36 37 38 37 35 32 30 23 21 20 20 20 20 27 28 29 32 35 38 40
44 41 41 45 46 43 32 29 33 35 35 33 27 27 27 28 30 30 29 34 34 36 37 34 27 35 37 39 38 37 36 27 26 18 16 18 17 17 25 27 29 31 33 38 40
44 40 43 46 45 35 29 32 34 35 34 31 29 26 25 26 27 27 29 30 30 32 35 35 31 32 35 33 33 34 33 31 26 23 17 12 13 19 23 27 27 29 33 38 39
41 34 44 46 37 37 33 34 36 34 33 31 31 29 27 26 26 27 29 29 31 30 28 31 29 28 29 36 35 34 33 32 23 21 19 20 16 21 22 26 26 29 35 39 37
38 37 44 45 34 34 35 36 36 32 30 29 28 29 30 27 25 27 31 33 31 31 28 30 28 25 25 27 29 28 28 33 28 26 23 17 16 22 25 26 29 31 37 38 37
39 33 35 39 38 34 33 32 31 34 32 30 29 29 28 27 27 28 30 31 32 30 31 30 28 25 19 24 27 26 27 28 25 23 22 22 20 23 25 26 26 30 34 38 37
35 35 35 28 33 34 33 32 31 30 32 31 29 28 27 26 25 27 31 32 32 30 30 30 25 25 25 26 29 28 27 28 25 24 20 22 20 23 25 25 25 29 37 38 35
31 30 33 32 33 33 32 32 30 32 31 30 29 31 27 26 27 25 29 30 29 31 29 31 27 26 22 26 26 25 28 28 28 27 25 26 25 26 24 25 31 33 37 36 35
35 35 34 28 29 30 30 29 33 34 34 33 33 33 28 31 33 31 30 29 29 29 28 30 27 23 21 26 25 21 25 26 28 29 27 25 25 27 26 29 32 35 37 37 37

GFSSW_sfc_30mbdewp_072.txt.gz
Dewpoint
47 47 48 49 48 48 47 47 47 46 47 46 47 49 49 50 50 47 43 43 49 53 54 48 46 51 54 50 52 53 42 38 39 41 40 44 43 38 32 34 45 54 58 60 63
48 48 48 47 47 48 47 46 46 46 47 46 46 47 48 49 47 44 44 46 45 51 52 45 43 49 50 50 46 46 43 40 41 42 43 45 45 41 33 39 53 59 62 63 63
48 46 44 46 45 47 47 45 47 45 46 44 45 46 48 48 42 38 40 45 46 47 52 46 46 48 47 49 45 42 39 40 40 40 46 46 44 45 37 32 48 55 60 61 62
48 47 47 46 46 47 47 45 46 46 45 45 45 46 46 45 30 38 40 46 45 47 51 47 46 46 44 45 46 40 39 41 41 47 45 46 47 42 31 33 36 56 59 60 61
48 46 45 46 46 48 46 44 45 45 46 45 45 46 44 38 36 41 40 40 46 47 49 47 43 45 43 44 44 40 38 38 37 44 44 46 45 43 31 37 41 57 59 58 59
46 46 46 48 47 48 44 43 44 44 45 46 46 45 40 32 37 42 43 41 43 46 48 48 41 44 43 43 42 42 40 38 37 36 37 43 42 41 33 35 41 44 53 58 58
47 46 46 47 47 48 44 42 45 43 45 45 46 44 40 33 38 38 38 44 48 48 47 49 43 43 43 39 43 42 37 40 38 37 35 33 37 38 32 33 34 34 34 36 51
47 47 45 47 48 48 45 43 45 44 46 46 46 43 32 38 39 38 39 40 44 49 50 50 47 40 39 40 41 40 38 35 36 37 36 32 29 31 33 32 33 33 33 32 32
47 47 47 46 47 47 46 45 45 45 44 45 44 39 31 37 36 36 35 34 41 46 51 51 46 40 40 37 37 38 33 33 33 37 36 31 28 30 32 33 31 33 33 31 30
48 47 48 47 47 47 46 46 46 44 44 44 41 33 35 33 37 41 46 42 43 47 47 46 42 37 38 35 30 34 33 33 32 35 35 33 32 32 33 31 31 32 33 32 30
47 46 47 48 47 46 44 39 34 32 36 32 32 32 33 40 42 43 45 41 43 43 38 43 38 34 35 36 34 35 33 32 33 33 33 34 33 33 32 32 30 31 31 30 28
47 47 47 48 48 46 40 36 38 38 32 38 38 38 40 41 37 41 43 38 40 36 42 40 35 36 37 37 35 35 33 31 30 31 32 32 32 33 33 33 30 30 31 30 28
47 48 47 48 49 42 40 40 43 40 34 38 40 38 39 41 38 38 42 40 38 35 38 35 35 37 37 37 35 35 32 30 29 30 30 30 30 31 33 32 31 31 30 30 29
45 47 47 48 42 41 38 42 42 41 30 33 36 39 42 39 37 43 45 41 38 34 37 36 37 36 36 36 36 33 33 32 28 28 26 28 24 24 31 31 31 30 29 28 29
46 46 47 48 43 37 38 43 42 39 20 35 37 44 43 38 39 40 47 42 36 36 38 35 36 35 36 35 35 32 37 31 30 28 27 26 25 24 22 27 29 29 27 28 32
47 48 48 45 45 42 44 43 40 21 21 32 38 37 38 38 40 41 41 44 42 37 37 37 38 38 37 39 39 39 31 31 31 30 25 25 24 22 20 23 26 26 26 30 33
47 49 48 45 41 44 44 40 23 21 30 30 35 38 36 36 38 37 36 38 34 31 31 35 35 38 37 34 36 37 30 27 26 26 24 25 24 22 24 25 26 27 30 35 36
48 48 46 44 44 44 42 29 19 28 29 33 35 36 35 37 36 37 35 34 36 32 31 29 27 35 37 35 32 35 33 25 19 21 20 23 22 23 24 24 27 30 35 37 39
47 45 42 44 45 44 36 23 23 27 31 34 32 29 32 37 36 36 35 34 35 35 28 28 28 36 37 38 35 34 32 33 22 21 20 20 21 21 26 27 31 34 36 38 40
43 41 41 45 45 42 31 28 31 34 35 35 29 28 27 30 33 34 33 35 34 37 36 32 27 34 36 39 38 36 37 28 26 17 16 19 19 19 25 27 31 33 35 39 40
42 40 43 46 44 34 29 31 34 36 35 32 29 28 25 26 27 28 29 31 33 35 36 35 29 31 36 33 31 34 32 32 27 22 17 14 15 19 23 28 31 33 37 39 39
39 30 44 45 36 35 30 33 36 34 34 32 31 30 28 27 26 28 28 30 31 30 30 32 30 27 30 36 37 35 34 30 24 24 20 19 14 21 22 28 31 32 36 39 38
37 37 43 43 31 33 34 36 36 32 31 29 29 30 30 28 25 27 30 32 31 30 30 31 27 26 27 30 34 33 35 35 30 25 20 16 13 23 24 27 29 30 35 39 37
36 23 31 36 37 33 32 32 30 35 32 31 29 29 28 27 27 27 29 31 32 30 31 30 28 23 21 22 28 27 29 34 34 28 24 23 20 21 25 26 28 33 37 38 37
33 33 34 21 22 32 34 32 32 31 32 32 29 29 29 26 26 27 31 32 32 31 30 29 24 25 25 28 28 27 27 29 30 30 27 27 23 21 25 26 28 31 35 38 37
27 27 32 28 31 31 32 33 34 33 32 30 29 32 32 26 27 25 30 30 28 31 29 31 27 26 24 26 25 25 27 28 27 26 25 24 25 27 25 26 26 27 33 36 37
34 35 33 25 27 28 28 21 27 31 34 34 34 34 31 30 33 32 30 29 29 29 28 29 26 23 19 26 24 21 24 25 28 29 27 25 25 27 26 25 27 29 33 37 36

GFSSW_sfc_30mbdewp_075.txt.gz
Dewpoint
49 48 47 46 47 46 48 47 47 47 47 47 47 47 48 50 49 47 42 39 48 52 53 49 48 52 54 50 53 52 40 35 36 38 40 45 43 45 44 35 49 58 58 60 63
49 48 47 46 47 46 48 47 46 46 46 46 47 47 48 48 46 44 46 47 47 47 52 46 44 49 50 50 48 47 39 39 40 41 40 44 44 45 43 38 47 59 62 63 65
49 48 45 47 47 47 48 45 46 45 46 44 45 46 47 47 38 38 42 44 46 47 48 49 45 47 47 49 45 45 40 41 41 46 47 45 44 47 43 33 36 56 60 62 62
48 46 47 47 47 48 46 45 46 46 46 45 45 46 46 45 31 42 44 45 46 47 47 46 46 43 43 44 45 40 42 42 45 49 47 45 46 43 44 40 43 39 61 61 61
48 47 46 47 47 48 44 44 45 45 45 45 45 46 43 36 36 40 42 41 46 48 45 46 44 43 42 44 44 39 39 40 47 46 44 44 42 42 43 44 42 47 60 60 61
48 46 46 48 48 47 43 43 44 45 45 46 46 45 40 28 39 42 40 44 47 47 45 47 43 45 43 43 42 42 39 43 44 45 42 42 42 45 43 43 37 57 57 58 60
48 46 46 48 48 47 43 44 45 44 45 45 46 44 38 28 38 43 39 41 47 46 45 49 45 43 43 42 44 42 39 40 39 40 42 45 43 42 43 42 37 41 55 56 57
48 47 47 47 47 47 45 44 46 45 46 46 45 42 30 37 39 39 39 39 43 50 48 51 49 43 40 41 43 39 38 35 37 37 39 41 35 44 44 43 35 33 33 41 49
46 47 47 48 48 48 46 46 46 45 45 45 43 38 30 37 36 36 39 38 40 49 50 49 47 39 40 38 37 38 32 35 34 37 35 34 31 40 44 42 34 32 33 31 32
46 46 47 48 48 48 46 47 46 44 44 44 42 31 32 33 38 43 45 42 42 46 45 46 43 37 38 36 29 33 33 33 32 35 36 33 30 33 34 33 32 31 33 32 31
46 46 46 48 49 48 43 36 33 30 36 37 37 32 35 40 43 43 45 40 42 42 38 44 37 32 36 35 34 35 33 32 33 35 35 34 32 33 34 33 31 31 31 33 31
45 47 46 47 49 47 40 35 37 37 32 39 38 39 40 41 36 40 42 38 38 37 39 38 34 35 37 36 35 34 33 31 32 31 33 33 33 33 33 33 33 31 31 32 30
45 46 46 48 49 41 39 39 43 41 34 38 40 39 39 40 35 37 42 40 37 36 36 34 35 37 37 36 34 34 33 31 29 30 30 30 30 32 33 33 33 33 31 31 30
45 46 47 48 41 41 37 42 42 40 30 33 38 38 41 38 36 42 44 41 38 35 36 36 37 36 36 35 36 32 34 32 29 28 26 29 25 26 29 31 32 32 32 31 30
46 47 48 48 41 37 38 43 42 38 19 35 37 44 42 38 38 39 45 42 35 36 36 34 36 36 35 35 36 33 37 32 31 29 28 26 26 26 24 26 30 32 32 30 29
47 48 48 46 45 43 44 42 39 21 20 33 38 37 38 39 39 40 40 43 42 37 38 37 38 38 37 39 37 38 32 32 33 30 25 26 26 25 24 23 24 28 30 30 31
47 49 48 44 40 44 44 38 23 20 28 30 35 37 36 36 36 36 35 36 33 29 31 35 36 38 38 34 36 35 33 27 25 25 23 26 25 25 24 24 25 25 27 28 33
48 49 48 44 44 45 42 29 20 26 29 32 34 36 35 35 36 37 36 34 37 33 32 29 28 36 37 34 33 34 29 25 18 21 21 25 23 24 26 27 26 27 27 32 35
46 44 42 44 45 44 34 23 22 25 30 33 32 30 34 36 36 35 34 34 35 33 27 27 28 36 37 38 35 34 32 30 23 21 20 21 22 21 23 24 26 28 32 35 38
42 41 42 46 45 41 29 28 30 32 34 35 29 28 27 34 34 34 33 35 34 36 34 29 26 34 36 38 38 35 36 29 27 21 17 18 20 17 20 23 29 32 34 38 40
42 39 43 46 43 33 28 29 34 36 36 32 29 29 26 29 33 32 31 31 34 36 36 32 28 31 34 34 32 34 33 33 31 24 17 15 15 20 19 21 28 34 37 39 40
37 29 43 45 35 33 31 32 35 34 35 33 32 30 28 27 26 28 28 29 32 36 32 34 29 27 30 35 35 34 32 33 26 24 20 18 17 21 21 23 31 34 38 40 39
35 36 42 44 28 31 33 35 35 33 31 29 29 30 30 28 25 27 30 32 32 31 30 32 30 26 28 32 36 34 34 35 32 25 20 19 18 23 24 26 32 34 38 39 39
34 19 27 34 35 33 32 31 31 35 33 32 29 29 28 28 28 26 29 31 31 31 31 33 27 25 21 22 29 31 32 34 34 27 24 21 21 21 22 26 29 33 37 39 38
30 29 31 17 20 31 33 32 32 31 33 32 30 29 30 27 26 26 29 31 32 31 30 29 25 27 25 24 28 28 28 31 31 31 27 27 25 25 24 24 28 32 35 38 37
22 23 30 26 29 29 30 31 32 30 33 30 30 30 32 29 27 25 29 30 28 31 29 30 26 26 25 25 28 26 27 28 32 32 33 31 26 27 26 26 27 30 36 37 37
32 35 32 23 25 22 27 22 23 27 31 34 34 34 33 31 32 32 31 30 29 29 28 28 26 24 21 25 24 22 24 25 28 29 29 27 29 27 26 25 26 28 32 35 37

GFSSW_sfc_30mbdewp_078.txt.gz
Dewpoint
50 48 46 46 45 47 48 49 47 47 46 47 47 47 47 49 50 48 43 38 45 51 53 50 50 52 53 50 52 51 38 34 36 35 36 45 41 45 45 40 39 59 59 60 64
48 47 46 47 46 48 48 46 46 46 46 45 46 47 48 47 47 43 50 48 48 47 50 47 46 46 48 48 49 45 39 37 39 42 42 45 44 45 42 41 42 46 57 63 65
47 46 46 47 47 48 45 45 46 46 46 45 46 46 47 47 38 39 46 48 47 47 49 50 46 44 44 47 45 45 39 41 45 47 46 44 45 46 43 36 39 43 43 56 64
48 46 46 47 48 48 44 45 46 46 46 45 45 47 46 44 30 43 45 47 48 47 48 48 46 41 42 43 44 42 43 42 47 48 45 44 44 42 44 43 44 43 43 50 61
47 46 46 48 48 46 43 45 44 45 46 46 45 46 42 35 35 41 43 41 45 47 46 45 43 41 39 42 43 39 42 45 47 45 43 44 43 42 41 43 44 42 51 58 60
47 45 46 47 47 45 43 44 45 45 46 46 46 44 39 27 39 41 40 41 47 47 45 47 43 43 41 41 41 41 40 45 46 44 44 42 44 44 41 43 43 43 40 57 60
46 46 47 46 47 47 44 44 44 45 46 46 46 44 37 29 39 40 40 42 47 47 45 48 45 43 43 42 44 42 41 42 44 43 43 45 41 43 43 43 43 42 39 49 58
46 46 47 48 48 47 46 46 45 45 45 46 45 41 27 34 39 38 38 37 46 50 46 49 47 43 41 43 42 39 40 37 41 44 45 42 36 42 44 45 44 42 40 35 53
47 46 47 48 48 48 48 46 46 45 44 45 41 39 29 37 36 39 43 38 43 49 50 48 46 40 39 39 37 38 34 34 37 43 44 41 36 40 45 45 44 43 39 33 33
46 46 46 47 49 49 46 46 46 44 43 43 42 30 31 35 39 41 44 41 40 45 44 44 43 37 37 37 29 32 32 34 33 37 41 40 33 42 45 44 44 43 39 33 32
46 46 46 47 49 48 40 36 33 30 37 37 37 33 35 39 43 41 44 39 41 41 37 40 36 33 35 35 33 34 33 33 34 35 35 38 34 40 41 44 44 42 39 32 33
45 46 46 47 49 46 39 35 36 37 33 39 39 38 40 41 35 38 43 37 37 36 38 37 33 34 37 35 35 34 33 32 32 33 35 34 33 34 35 38 40 39 34 31 32
44 46 47 47 49 41 39 39 43 40 34 38 40 40 39 40 37 36 43 40 37 35 35 33 35 37 36 34 33 33 32 31 30 30 32 32 31 33 34 34 34 34 33 32 32
45 46 47 48 41 40 37 42 42 39 30 34 36 38 40 38 34 42 45 41 37 35 35 36 37 36 36 35 33 30 34 32 31 29 28 29 26 28 31 32 33 33 34 33 32
46 47 47 48 39 36 38 43 41 37 19 34 38 45 41 36 35 38 45 40 35 35 36 34 36 35 35 35 34 32 36 32 30 28 28 27 26 26 26 26 30 31 32 33 32
47 48 49 47 45 42 44 42 37 21 21 33 38 37 38 38 38 39 39 42 39 37 38 37 39 37 37 38 36 37 32 32 32 28 25 26 26 26 25 25 25 27 31 32 31
48 49 48 44 40 45 43 37 22 21 27 31 35 37 35 35 35 35 36 35 31 29 31 36 36 38 38 35 37 34 32 27 25 25 22 25 25 25 26 25 24 24 25 29 31
48 49 48 44 44 45 40 29 20 26 28 31 34 36 34 34 33 34 35 33 37 34 32 29 28 36 37 34 33 33 31 25 18 20 21 24 23 23 27 27 27 26 27 27 30
46 44 43 44 45 43 34 23 22 24 29 32 32 33 31 35 35 35 32 33 35 34 29 28 29 36 37 38 36 34 30 27 26 21 20 21 23 22 23 24 24 25 27 29 32
41 41 42 45 44 40 29 27 29 30 32 35 28 28 28 33 32 33 32 34 34 34 33 29 26 34 36 38 37 35 34 28 28 21 18 18 19 18 18 19 23 26 29 32 36
41 37 43 45 42 33 26 28 33 35 36 32 29 28 26 32 33 32 31 32 35 36 35 30 26 30 35 33 33 34 33 32 28 24 18 15 15 20 20 20 20 25 33 36 38
35 27 42 44 33 31 32 32 34 34 36 35 32 30 28 27 29 31 29 30 35 37 33 32 28 26 29 36 35 34 31 33 27 23 22 18 18 20 21 22 23 29 36 39 39
34 35 39 41 24 28 31 33 36 34 31 30 29 30 30 28 26 28 29 31 33 35 32 32 28 25 28 31 35 34 34 33 32 27 23 23 21 21 24 24 30 33 38 39 39
29 16 24 33 33 32 32 30 31 34 35 32 29 29 28 28 28 26 29 31 32 32 34 35 31 25 20 22 29 30 31 33 33 27 25 24 24 22 22 23 28 33 38 39 39
28 26 29 16 19 27 31 32 31 32 34 33 30 29 29 28 26 27 28 30 32 31 32 33 28 27 26 25 29 29 31 32 31 31 28 26 25 25 26 26 25 30 36 39 38
20 21 29 23 27 26 29 30 28 29 30 31 30 32 31 30 28 25 28 30 28 31 30 30 28 26 24 25 27 27 28 29 32 32 32 31 30 32 29 27 26 28 34 38 38
32 35 27 22 23 19 23 24 22 23 21 30 24 22 27 34 34 32 30 31 30 29 28 28 26 25 23 25 24 22 24 26 27 31 31 29 31 31 29 29 27 28 34 36 37

GFSSW_sfc_30mbdewp_081.txt.gz
Dewpoint
49 48 46 48 49 48 48 47 46 46 46 47 47 47 48 49 50 50 45 41 44 51 52 51 52 53 52 51 52 49 40 37 36 34 37 44 41 45 45 41 46 53 55 60 64
49 47 47 47 48 48 46 46 46 46 46 45 46 47 47 48 45 41 46 51 50 49 50 48 47 48 48 49 50 45 39 37 38 40 41 44 43 45 42 37 40 42 43 46 65
48 47 47 48 46 46 44 46 47 46 46 45 45 46 47 47 40 40 48 50 51 49 50 50 46 44 45 47 46 46 40 42 45 46 45 44 44 45 42 35 42 43 42 46 58
49 46 47 48 47 45 43 46 45 45 46 46 45 46 45 43 31 43 50 50 48 49 49 48 45 41 41 43 45 43 43 44 47 47 45 44 44 42 43 42 44 44 43 49 50
49 45 46 46 46 45 44 45 45 45 46 47 46 45 41 34 34 41 43 45 45 48 47 46 43 41 40 43 42 40 43 46 47 43 43 44 44 42 42 43 44 44 44 44 56
48 47 48 46 46 46 45 45 45 46 46 46 46 45 37 27 36 41 41 43 46 47 47 47 44 42 40 43 41 40 44 45 44 43 44 41 44 44 43 43 43 43 43 43 49
48 47 47 48 48 47 46 45 45 45 45 46 46 42 33 30 37 39 39 39 46 47 44 48 46 43 43 41 44 42 41 43 44 43 43 40 38 39 44 44 43 43 44 43 39
47 48 46 47 48 48 48 46 46 46 45 46 45 39 29 33 39 39 38 39 45 49 46 48 45 42 42 43 42 39 39 37 42 43 44 38 35 38 44 43 43 44 44 43 40
47 47 47 47 48 49 48 47 46 46 45 45 40 36 29 37 37 40 45 39 45 47 47 51 45 41 40 39 38 37 34 34 39 42 43 39 35 37 44 44 42 43 44 44 42
45 47 47 46 48 49 46 46 45 42 41 41 41 27 32 36 40 42 44 42 43 44 41 45 41 38 38 36 30 33 33 34 35 41 42 40 39 40 43 44 43 42 43 43 43
44 46 47 46 48 49 39 36 30 30 38 36 36 33 35 40 42 40 43 40 43 40 35 42 36 33 35 35 33 33 32 31 33 37 40 40 38 38 43 42 42 43 43 43 42
45 46 47 46 48 46 39 33 36 36 33 39 39 38 40 41 34 37 43 37 38 35 37 35 33 34 36 35 35 33 32 32 33 35 38 37 38 37 42 42 42 42 41 42 39
45 46 48 46 49 40 38 38 42 41 34 37 40 40 40 39 37 36 43 39 36 34 35 32 36 36 36 35 34 33 32 31 31 32 34 34 34 34 36 41 42 42 42 41 38
46 46 46 48 41 40 36 42 42 38 30 34 37 38 40 37 33 42 44 40 37 34 36 36 38 35 34 33 33 31 34 32 30 30 30 30 28 31 34 37 37 39 37 37 35
46 47 46 48 39 36 38 43 41 35 19 32 38 45 41 33 35 36 44 40 35 35 36 34 36 35 34 33 33 31 35 32 30 29 28 27 28 27 29 33 33 34 35 35 35
47 47 49 47 43 42 44 40 36 21 20 32 38 37 37 38 37 38 39 40 39 36 37 37 39 37 36 38 36 34 32 32 31 28 25 27 27 26 26 26 27 32 34 34 34
48 49 45 44 40 45 42 36 22 21 26 30 32 35 35 34 33 35 36 34 29 28 31 35 36 38 37 35 37 34 30 26 24 24 22 26 26 25 27 27 26 26 27 31 33
49 49 46 44 44 45 39 29 20 26 28 31 34 34 33 34 32 34 33 32 35 33 32 30 26 36 37 34 33 33 31 23 16 19 20 24 23 23 27 27 28 27 26 28 29
47 43 43 45 44 44 32 22 22 24 28 32 32 34 30 35 34 31 33 32 35 34 29 28 29 36 38 37 35 33 30 28 26 21 20 21 23 23 23 24 24 25 26 27 28
41 41 42 45 44 39 28 26 29 29 31 35 28 28 28 31 31 32 31 33 34 35 31 30 26 34 36 38 37 34 32 27 29 21 18 19 19 17 17 19 21 21 23 29 32
41 36 43 45 42 32 25 28 32 34 35 33 29 28 27 32 32 30 30 31 35 35 33 29 26 31 35 34 33 34 32 32 27 25 19 16 14 20 21 20 19 21 23 31 35
36 25 42 44 31 30 30 32 34 34 36 35 33 31 29 27 33 31 30 31 36 36 33 30 28 27 30 35 35 34 32 31 25 23 23 20 20 21 19 22 23 24 30 37 38
33 34 39 40 15 23 30 31 35 34 32 30 29 30 30 28 26 28 29 31 36 35 32 32 30 25 27 31 34 33 33 33 30 27 23 22 20 21 23 24 27 30 35 39 39
26 12 23 32 32 30 28 28 30 34 34 33 30 30 28 28 28 28 28 31 34 36 35 34 31 25 20 21 28 29 30 32 32 27 24 24 24 25 25 25 25 29 35 39 39
26 21 27 10 19 26 30 31 30 31 33 33 31 29 29 29 27 27 28 30 32 33 37 36 30 30 28 25 30 29 29 31 31 30 26 25 24 26 26 26 26 26 32 38 39
19 21 28 22 26 25 27 29 28 27 27 29 30 26 31 32 31 31 33 32 29 32 32 32 30 27 27 27 26 26 28 31 30 30 30 29 29 31 31 29 31 32 30 35 38
33 34 24 22 23 18 19 25 23 21 19 25 25 22 22 26 36 34 34 34 34 30 29 30 31 28 25 24 24 23 25 27 28 31 31 29 30 31 31 32 33 34 33 32 37

GFSSW_sfc_30mbdewp_084.txt.gz
Dewpoint
49 48 48 49 48 47 46 46 46 47 46 45 46 47 48 50 50 45 45 44 47 50 51 50 50 51 54 51 51 48 40 35 34 34 32 41 38 44 43 43 45 46 49 52 61
49 48 48 47 46 45 45 46 47 46 46 45 46 46 47 48 43 42 47 50 51 52 48 47 46 47 46 48 49 45 41 37 36 36 35 40 38 42 39 41 41 42 45 50 65
50 47 47 46 45 45 44 46 46 46 46 45 46 46 47 46 39 40 47 50 51 51 49 49 45 44 40 46 46 43 41 40 39 38 39 41 42 44 37 39 42 41 43 50 59
49 45 47 47 46 45 44 45 45 46 46 47 46 46 45 40 30 42 49 50 48 48 48 48 44 41 39 40 45 42 42 42 44 46 43 41 42 41 42 41 43 44 43 51 51
48 48 48 47 45 46 45 45 45 46 47 46 46 45 39 31 34 45 45 46 45 46 46 45 40 38 35 38 43 40 42 44 46 44 43 44 42 38 41 43 43 43 43 44 50
48 47 46 48 48 47 46 46 45 46 46 47 46 44 34 29 36 39 39 46 43 47 46 48 40 38 37 40 39 40 41 43 43 43 42 41 43 43 41 43 42 43 42 43 42
48 48 47 46 49 48 48 46 46 45 46 47 46 39 33 33 38 39 38 40 41 46 45 49 47 42 37 40 41 39 39 43 43 42 42 40 38 41 40 43 41 41 42 43 43
47 47 47 46 47 48 49 47 46 47 45 45 45 37 31 34 39 38 42 39 45 47 45 50 47 43 40 42 41 36 35 34 40 42 42 40 34 35 40 40 38 39 40 42 43
45 47 47 47 47 49 49 47 46 46 45 44 39 35 29 37 37 40 43 40 44 46 46 49 45 41 41 37 35 36 29 30 38 42 41 39 34 35 40 40 37 37 38 40 42
46 46 47 46 47 49 46 46 45 39 40 40 39 30 34 36 40 42 42 42 42 43 43 44 42 37 36 35 27 31 28 30 30 38 39 36 35 36 40 40 37 36 37 39 41
44 46 47 47 46 49 40 38 32 33 38 35 36 34 36 40 41 40 42 41 42 39 36 39 38 31 30 34 31 31 31 30 32 37 36 34 34 34 36 39 38 38 37 37 40
44 46 47 47 47 46 40 33 36 37 34 40 39 38 39 41 32 40 41 38 38 34 37 35 34 32 36 35 32 31 28 28 32 35 37 34 34 35 35 37 37 37 38 37 39
46 46 47 46 48 41 38 38 43 41 35 37 40 38 39 39 36 39 41 40 35 33 34 33 35 35 33 33 31 30 26 28 28 32 36 34 30 33 35 37 38 38 41 40 39
45 47 46 48 41 40 36 42 42 40 33 32 35 38 39 38 35 42 44 38 35 32 34 35 37 35 32 31 31 29 33 32 31 30 26 33 23 28 30 33 36 36 37 39 41
46 47 46 48 40 38 39 43 42 37 21 32 36 44 40 32 35 36 43 40 33 34 35 34 35 33 32 32 32 29 34 32 31 30 29 29 27 24 28 29 32 34 35 37 40
46 47 49 45 43 42 44 41 38 28 22 32 37 36 35 36 34 37 39 40 38 36 37 37 39 35 30 37 35 35 33 32 30 28 23 22 26 21 23 24 27 32 34 36 37
47 49 46 45 40 45 42 38 29 25 28 30 31 34 33 32 33 33 34 33 32 29 31 36 36 38 38 34 35 33 29 25 23 25 18 25 24 19 22 27 26 27 28 32 36
49 49 45 44 45 44 41 31 24 27 29 32 33 33 32 32 31 30 29 29 34 31 32 30 27 36 37 34 32 29 26 20 15 15 15 25 20 17 24 27 28 29 28 28 29
46 44 44 45 46 45 34 28 26 27 30 32 33 32 29 33 32 31 28 26 31 34 29 29 29 36 37 37 35 32 31 29 26 22 21 19 23 24 23 24 25 26 28 28 29
43 42 43 46 45 40 33 29 31 29 31 34 28 29 26 30 30 31 28 28 31 34 33 30 28 35 37 37 37 34 31 27 30 21 17 18 19 14 17 20 20 20 22 23 29
42 39 44 46 43 34 27 30 32 34 34 33 29 28 28 30 31 30 30 31 34 35 33 30 28 32 37 34 33 33 30 31 26 24 19 13 13 20 21 20 21 22 25 29 31
41 32 44 45 34 34 31 32 34 34 36 35 33 31 29 28 31 31 30 30 35 35 32 30 28 28 29 34 35 33 29 29 24 22 24 22 18 21 20 21 23 26 31 36 37
36 37 40 43 17 25 30 30 35 35 33 32 30 31 30 29 27 29 30 32 35 34 32 32 31 26 28 31 34 34 32 32 29 28 26 21 18 21 23 24 26 29 31 36 38
30 19 27 32 33 27 25 27 29 34 34 34 32 30 29 28 28 29 28 31 35 36 36 33 32 27 20 22 27 29 29 31 32 28 24 25 22 21 23 25 26 26 27 34 38
27 22 27 17 20 26 28 29 28 28 34 33 32 30 30 25 26 26 28 29 34 37 37 36 30 31 28 27 29 29 28 30 31 31 25 25 23 24 23 23 24 27 28 31 37
22 22 27 23 26 24 25 25 29 28 27 26 29 27 26 29 30 31 32 33 32 35 36 37 30 32 30 32 29 28 28 29 29 29 28 27 27 27 27 27 29 29 29 31 32
34 34 23 23 23 17 15 24 23 22 20 23 24 24 22 22 27 29 36 35 32 33 34 33 32 29 26 29 29 26 26 27 28 29 29 28 28 28 28 29 30 30 31 32 33

GFSSW_sfc_30mbdewp_087.txt.gz
Dewpoint
50 49 49 47 46 46 45 47 47 46 46 46 46 46 47 49 49 45 41 48 49 53 54 52 48 45 50 50 50 49 42 35 28 29 31 36 36 41 42 43 44 46 48 53 60
50 47 47 46 46 45 45 47 46 46 46 46 46 46 47 48 43 40 47 48 50 53 50 47 43 42 45 48 49 45 41 35 31 31 33 37 33 37 37 40 42 42 49 60 64
49 48 49 46 46 45 45 46 46 46 47 47 46 46 46 46 39 43 48 50 51 51 49 49 43 39 38 44 47 43 40 36 38 42 38 40 36 39 33 37 41 42 46 58 64
48 49 46 48 45 46 46 46 46 46 47 47 46 45 45 40 33 42 49 50 51 48 47 47 43 37 34 39 46 42 41 42 39 45 40 39 38 37 34 39 42 43 46 56 60
49 49 47 48 49 47 47 46 46 46 46 47 46 45 40 31 34 44 45 44 45 44 46 45 40 36 31 33 41 41 43 41 44 43 40 39 38 35 39 42 43 43 44 48 57
48 48 48 47 48 48 48 47 46 46 46 47 46 44 34 29 36 40 39 45 43 46 45 46 39 37 32 30 36 39 46 42 45 42 41 40 38 42 37 42 42 42 41 44 46
47 48 48 48 46 48 48 48 46 46 45 46 46 37 30 32 36 37 39 41 41 46 44 49 47 37 34 34 35 35 38 41 39 43 40 40 37 40 36 41 39 41 41 42 45
44 47 48 48 46 48 49 48 47 47 45 45 45 36 28 35 37 38 40 39 43 46 46 50 48 42 39 37 36 32 35 36 40 39 39 39 30 35 37 38 38 37 38 40 43
46 45 47 47 46 48 49 47 47 46 46 45 38 34 28 36 36 39 41 39 42 45 48 50 47 40 40 35 34 32 28 30 34 37 37 38 32 32 35 39 38 36 35 38 40
47 44 47 48 46 48 49 45 45 42 41 37 35 33 32 33 37 40 41 42 40 45 42 44 42 35 33 31 26 28 24 23 26 36 37 36 34 31 36 39 38 36 35 35 37
45 44 47 48 46 48 43 39 35 35 36 33 34 32 34 37 37 38 41 40 39 41 35 39 37 31 29 29 28 23 24 21 23 32 35 34 32 32 33 36 37 36 34 33 35
46 46 47 48 46 49 41 32 36 39 32 37 36 34 37 40 35 39 40 35 34 34 37 37 32 32 29 29 31 30 24 25 29 32 32 29 29 29 31 32 34 35 34 34 34
45 46 47 46 48 43 36 38 41 40 34 35 37 35 37 37 38 37 40 37 31 31 34 34 33 34 32 31 29 28 25 29 27 30 32 30 29 29 30 31 33 35 35 36 37
45 46 46 47 45 39 36 41 41 40 34 30 31 36 37 36 35 41 42 39 33 29 34 35 36 34 31 28 28 26 28 25 27 28 24 29 18 18 23 28 31 33 34 34 39
46 46 46 48 41 39 40 42 42 39 23 31 34 41 38 33 34 37 42 38 29 31 34 33 34 32 29 27 29 26 32 30 29 28 27 28 26 21 24 26 28 30 32 33 36
46 47 48 43 42 41 42 41 39 31 21 31 34 33 30 32 31 35 37 39 35 33 35 36 39 32 29 32 33 34 31 29 30 28 28 24 24 20 20 24 25 26 29 31 34
47 48 48 44 40 44 42 39 32 27 30 30 30 33 30 29 30 31 31 33 32 30 30 35 35 35 37 33 33 31 26 24 23 25 20 21 18 20 19 22 23 24 26 30 32
49 49 45 43 45 44 41 33 28 27 31 33 32 31 30 29 29 27 28 28 31 32 33 29 27 34 33 31 28 27 26 20 15 13 14 23 17 17 20 22 21 26 28 28 29
49 46 45 45 46 45 37 32 28 31 33 30 32 31 27 30 30 29 26 25 25 30 30 30 31 36 36 34 35 28 27 26 25 22 18 16 19 19 20 23 25 26 27 28 29
44 43 44 46 46 42 36 31 31 31 31 33 27 27 23 28 29 29 26 24 24 29 33 35 29 35 36 37 36 36 31 27 28 18 13 9 15 13 15 18 20 20 21 24 25
43 39 45 46 44 37 29 30 31 33 34 32 27 26 25 25 28 29 26 26 26 28 28 28 31 32 37 34 28 31 30 30 27 19 15 9 12 18 18 19 22 23 27 30 30
42 35 45 45 37 34 31 29 34 32 34 34 33 30 26 25 25 28 26 28 31 30 30 30 31 30 30 35 35 32 28 27 23 21 22 20 19 19 20 21 23 28 32 34 36
35 38 40 44 31 29 27 27 33 33 32 31 30 29 27 26 23 23 26 27 34 34 30 31 32 26 29 33 35 35 35 33 28 25 29 21 19 22 23 23 25 28 27 29 36
32 29 31 34 30 22 19 20 22 34 33 32 30 30 27 24 24 23 24 30 34 35 39 37 32 26 22 26 27 29 29 30 30 30 25 25 22 21 22 24 24 26 26 27 30
27 24 30 26 21 22 24 22 18 21 30 32 27 28 26 23 16 14 19 23 30 35 39 36 30 32 29 27 27 29 28 28 30 31 27 26 24 24 24 24 24 24 25 27 29
23 22 25 21 23 21 21 19 21 21 26 13 23 21 23 16 12 15 25 30 32 35 36 38 31 33 30 34 28 27 27 28 28 28 29 29 27 27 26 26 26 26 26 28 29
33 29 22 21 19 15 9 16 19 23 17 20 21 20 16 17 24 24 24 27 34 31 31 32 31 29 27 32 31 27 29 28 28 28 27 27 28 28 27 27 27 28 28 28 29

GFSSW_sfc_30mbdewp_090.txt.gz
Dewpoint
50 50 48 48 46 46 45 48 47 46 46 46 46 46 46 48 48 46 41 48 51 52 55 51 50 47 49 51 51 50 43 38 37 32 33 35 38 40 41 43 44 47 53 58 66
49 50 46 47 46 46 46 46 47 46 47 47 47 46 46 47 45 42 49 49 50 51 52 49 48 45 45 46 49 45 42 39 38 39 35 35 36 37 41 42 42 49 60 62 65
49 49 48 49 46 46 46 46 46 46 47 48 47 46 46 46 38 42 46 50 50 51 50 50 51 41 45 46 48 45 41 41 38 44 44 38 34 36 38 40 42 43 58 63 64
48 50 49 47 49 48 48 46 46 46 46 46 47 46 44 41 31 38 45 48 51 51 47 49 48 42 38 41 45 44 44 42 43 45 44 42 39 37 36 41 43 45 58 62 63
47 48 49 48 47 49 48 48 46 46 46 46 47 46 43 31 33 40 44 46 46 46 45 46 42 38 34 40 42 42 42 44 46 45 45 45 41 37 41 42 42 44 54 59 61
45 47 49 49 46 48 49 48 47 46 46 46 46 46 38 29 36 38 38 42 43 46 46 46 44 42 35 35 41 42 41 45 46 44 42 40 41 40 41 42 42 42 45 52 59
47 45 47 48 46 46 48 48 48 47 47 45 46 41 31 31 36 37 39 41 41 46 45 48 46 43 40 31 40 42 39 43 46 44 41 41 38 39 40 41 41 41 42 45 47
48 46 46 48 46 46 48 49 48 47 47 46 46 40 28 35 37 38 40 39 42 47 47 47 47 44 40 36 36 37 41 37 41 41 42 41 34 39 40 40 39 40 41 42 45
48 46 44 46 46 46 48 49 46 47 46 45 40 34 29 35 35 39 40 40 45 47 45 44 45 41 39 34 32 32 33 36 38 44 40 40 34 33 38 37 38 38 37 40 43
47 45 45 46 46 47 49 48 43 45 44 37 34 32 32 32 36 39 41 41 44 41 40 41 43 38 36 35 29 29 27 29 33 40 39 40 36 35 33 37 37 38 37 36 39
48 46 46 47 47 47 47 40 39 36 35 32 33 31 33 36 38 39 40 40 41 40 36 38 38 34 31 32 27 27 26 24 29 38 38 34 34 35 34 38 38 37 37 35 35
46 45 46 48 46 48 46 34 38 41 34 33 33 34 36 38 36 38 41 36 37 35 38 37 34 32 30 29 28 30 24 23 32 36 38 32 32 32 32 33 37 37 36 35 35
47 45 47 48 46 47 38 39 41 40 36 34 35 32 36 37 37 38 39 37 32 32 34 33 37 35 32 29 30 30 28 27 29 31 31 30 29 28 29 30 31 34 35 35 35
46 45 47 46 46 39 37 40 40 40 33 30 31 35 36 35 35 40 41 39 32 31 33 34 35 34 32 31 29 28 28 32 32 29 26 29 24 26 28 28 29 31 33 35 35
47 46 46 47 45 40 40 41 41 40 21 31 34 40 37 33 34 37 41 39 30 30 34 33 35 33 31 28 29 28 29 32 32 28 27 28 27 24 24 27 28 30 32 34 35
48 46 47 45 44 41 42 41 40 32 17 31 33 33 32 31 31 36 37 39 37 30 33 35 38 37 32 32 29 33 32 29 29 28 27 28 26 24 21 22 26 29 31 32 34
47 47 48 44 41 43 43 40 32 26 30 30 29 31 29 28 29 31 33 32 31 29 29 33 35 35 37 34 34 33 29 25 24 25 23 21 24 24 23 22 24 25 27 30 32
48 48 46 44 44 43 42 35 25 27 31 33 32 30 30 28 28 28 28 27 32 31 30 26 26 35 35 35 31 31 29 22 17 18 17 20 19 19 19 22 24 26 27 28 28
50 48 45 45 46 45 40 32 29 32 34 30 29 29 29 29 29 28 27 26 27 30 29 28 27 34 35 33 32 29 26 28 29 24 18 21 21 21 20 22 24 26 27 29 28
46 45 44 46 46 43 37 31 31 31 31 31 26 27 23 28 30 28 27 26 25 27 31 35 29 35 35 36 36 35 34 27 29 20 14 11 11 15 16 18 24 23 25 27 27
45 42 46 46 45 40 23 31 30 32 32 30 28 25 23 23 29 28 27 26 26 25 30 35 34 33 36 34 32 34 33 34 28 23 14 14 15 18 19 22 23 27 31 32 32
43 38 45 46 40 39 35 30 32 30 33 33 32 31 28 25 23 22 27 24 32 33 29 30 34 29 31 36 35 32 32 34 28 24 23 21 21 20 21 22 24 31 34 35 35
41 41 42 44 37 32 28 25 30 31 31 31 30 29 27 25 22 19 21 29 33 35 35 33 32 27 30 33 36 35 33 31 31 31 25 21 19 22 22 23 24 29 27 33 36
36 31 35 40 33 26 21 18 21 32 32 30 28 28 27 24 22 21 21 25 32 32 37 38 33 25 20 26 31 31 32 32 32 29 26 26 24 23 23 24 24 28 28 27 29
33 29 33 27 25 24 20 20 15 19 29 29 27 26 21 23 20 16 13 14 25 36 33 35 29 33 29 27 31 33 30 31 33 33 27 26 27 26 25 25 25 26 27 27 28
29 22 22 22 22 20 22 17 17 18 25 15 19 17 20 18 16 15 19 21 22 33 34 33 30 31 31 34 33 31 30 29 30 31 32 30 28 29 30 30 29 28 28 28 29
33 30 26 21 19 16 15 16 18 22 17 19 20 18 16 20 25 24 23 23 28 30 29 29 29 28 27 32 31 27 30 29 29 29 30 29 29 29 29 28 28 28 29 28 29

GFSSW_sfc_30mbdewp_093.txt.gz
Dewpoint
50 50 50 49 46 46 46 46 46 46 47 48 47 46 46 47 48 45 44 49 49 52 55 51 48 48 50 50 52 52 42 39 38 35 36 37 36 39 43 46 50 52 56 62 66
48 49 50 47 50 47 46 46 46 46 47 47 47 47 46 46 44 39 44 50 50 52 51 50 47 48 45 48 49 47 41 40 42 41 35 38 36 40 42 43 54 59 60 64 65
47 49 49 49 47 50 48 48 46 46 46 47 47 47 46 45 40 34 43 48 51 51 50 50 50 49 44 47 48 46 41 43 46 46 41 38 36 39 41 41 45 58 61 63 64
46 48 49 49 47 48 49 48 48 46 46 45 47 48 47 44 29 38 44 46 49 48 48 48 46 44 43 41 48 43 45 45 46 48 42 42 43 36 40 42 47 59 62 63 63
47 46 48 48 48 47 48 49 48 47 46 45 46 47 45 33 34 40 43 45 45 47 47 46 44 44 39 42 43 43 42 46 48 49 46 46 44 43 41 43 49 59 61 63 63
48 47 46 48 46 46 47 47 48 48 47 47 46 46 41 30 36 38 38 40 42 44 47 47 46 46 42 41 40 43 43 42 45 46 48 43 44 47 41 42 43 56 59 61 62
49 48 46 47 46 46 47 48 49 48 48 47 47 45 34 31 36 38 40 41 41 44 46 49 49 46 42 41 43 42 40 41 40 46 46 45 44 42 42 42 41 44 54 58 60
49 48 46 46 46 46 47 48 49 48 48 47 46 45 30 35 37 40 40 42 46 48 48 47 47 44 41 40 42 41 38 35 41 45 44 46 39 45 43 41 41 41 45 47 53
48 47 46 45 47 46 47 49 49 47 48 47 41 39 30 36 36 40 40 45 45 45 43 44 44 41 39 35 36 35 35 35 38 44 44 42 38 40 40 40 40 40 41 44 46
49 48 46 47 47 47 48 48 49 46 44 44 38 31 34 34 37 39 41 44 42 42 38 39 40 36 36 33 29 31 32 36 34 39 42 42 40 39 37 37 39 39 38 40 45
48 47 47 46 48 47 48 42 38 36 35 33 33 32 34 38 40 39 41 42 41 38 33 39 32 30 33 34 32 30 29 29 34 40 37 38 39 37 35 37 37 37 38 38 39
48 46 46 47 48 47 47 38 38 40 33 34 34 35 37 39 36 39 42 38 37 34 37 34 29 35 35 33 31 29 27 27 36 40 38 38 37 37 35 36 38 38 38 37 37
48 47 46 48 47 47 41 39 41 41 36 35 35 33 35 38 36 38 41 38 35 35 35 32 36 38 34 32 29 29 29 27 31 36 38 35 33 32 34 33 37 38 37 37 37
48 47 46 47 46 41 38 40 41 41 28 29 34 36 38 35 34 39 41 40 32 33 34 34 36 35 34 32 31 29 32 32 33 33 29 30 23 26 29 29 30 34 37 37 36
49 47 46 47 46 41 40 41 42 39 11 30 35 40 38 34 34 38 41 40 32 33 33 32 34 34 32 31 30 29 33 32 33 29 28 28 27 28 26 25 28 29 32 35 35
49 47 47 46 45 42 42 42 40 29 9 30 35 34 34 32 33 37 38 40 39 31 33 34 37 36 34 34 33 33 31 31 29 28 25 27 28 26 24 22 27 29 30 32 35
48 47 47 47 42 43 43 40 28 13 30 28 30 32 30 29 31 33 34 32 31 26 27 31 32 37 36 32 34 32 30 26 24 24 20 25 26 25 26 25 24 27 30 31 34
48 48 48 45 44 43 42 34 5 27 29 31 32 31 29 29 29 30 29 29 31 32 30 25 19 33 36 34 31 32 30 23 16 19 18 22 21 21 23 24 25 27 27 28 29
49 48 44 46 45 45 39 26 11 30 32 31 31 29 29 30 28 28 28 27 27 30 29 27 25 35 35 35 33 30 28 29 27 27 21 20 22 22 22 22 24 26 28 28 28
47 45 44 47 46 43 36 27 29 33 32 31 27 28 25 28 28 29 27 28 27 28 31 31 27 34 34 36 37 34 34 26 30 21 17 14 19 15 17 19 24 25 27 28 27
45 42 46 47 45 41 25 31 31 32 32 31 29 28 25 23 29 27 26 27 28 30 31 33 33 32 35 34 31 34 32 32 29 25 14 12 13 19 19 23 26 30 32 33 32
44 38 46 45 38 38 35 31 31 31 33 32 32 31 29 27 25 23 27 27 33 35 33 35 34 29 32 36 35 34 33 32 24 24 23 20 18 22 23 27 30 32 33 33 34
41 40 45 44 31 32 30 23 30 31 32 32 32 31 29 26 24 23 22 31 31 34 33 36 32 26 28 33 36 34 35 35 34 32 24 18 17 21 23 23 30 32 33 34 35
38 33 35 41 39 30 26 21 24 30 31 32 30 29 28 26 26 23 19 22 26 32 35 36 32 29 24 29 32 32 31 33 34 28 26 24 22 21 22 23 24 28 28 32 36
37 31 31 27 30 24 20 20 20 24 31 28 28 29 23 22 22 21 17 19 27 34 36 35 29 31 31 31 33 33 32 33 32 31 26 25 26 26 27 27 25 26 27 28 30
30 27 27 25 26 24 23 16 17 21 24 19 26 20 18 18 17 17 22 21 22 30 31 32 28 30 28 32 33 30 32 33 33 34 33 31 29 29 29 31 30 29 29 28 28
35 31 21 22 20 17 18 16 21 20 18 20 20 18 17 21 25 25 24 23 23 26 26 27 26 20 23 32 31 27 30 31 29 32 33 31 31 31 31 30 30 29 29 28 29

GFSSW_sfc_30mbdewp_096.txt.gz
Dewpoint
48 49 50 50 48 50 47 47 46 46 47 47 47 47 47 47 47 42 41 46 50 52 53 51 48 49 51 48 51 53 42 36 36 32 33 38 35 41 46 49 55 54 59 61 66
47 47 50 49 48 48 50 48 48 46 46 47 47 48 48 48 44 35 39 46 50 52 49 49 46 48 46 44 50 48 41 39 43 42 35 37 37 42 45 51 56 60 64 65 65
48 47 49 49 48 47 48 49 48 48 47 46 46 47 48 48 41 34 41 46 49 50 51 51 48 48 44 45 48 46 41 45 47 49 46 37 39 41 43 44 55 57 61 64 63
48 47 46 48 49 47 48 49 48 48 47 46 46 47 48 43 28 36 42 47 48 47 49 47 45 44 41 40 45 44 46 46 48 50 46 43 41 40 41 42 53 59 61 63 62
49 48 47 47 48 46 47 47 47 48 48 48 47 48 45 33 33 37 41 43 46 47 45 43 44 44 40 43 43 44 46 46 48 48 48 47 45 43 42 48 59 62 62 62 62
49 49 48 47 48 47 47 48 49 49 49 48 47 48 38 30 34 37 38 39 41 45 46 44 45 45 44 43 40 44 45 43 46 48 48 45 45 42 42 49 58 60 61 62 62
49 50 48 46 46 46 47 48 49 50 49 48 47 46 39 32 35 38 40 40 41 47 46 48 47 46 42 41 44 44 41 42 43 47 47 48 41 41 44 42 53 56 60 61 62
49 49 47 47 47 47 47 48 49 50 49 49 48 44 31 34 38 39 40 47 46 48 49 50 49 46 42 42 41 40 39 35 43 45 46 45 39 43 47 43 43 50 55 58 60
49 49 48 47 47 47 48 48 49 49 48 47 40 39 31 37 38 38 41 44 44 44 43 47 46 41 39 38 36 37 33 35 38 44 44 42 40 41 45 44 41 42 47 52 56
49 49 47 47 48 48 48 48 48 48 43 45 39 29 31 35 38 39 42 43 41 40 37 39 38 35 35 33 29 31 34 35 34 41 43 42 40 42 42 43 40 40 41 44 46
49 48 46 46 48 48 48 41 37 34 35 31 32 32 34 38 40 39 42 42 40 38 31 37 29 30 33 34 32 31 34 33 34 39 39 38 39 42 43 42 38 39 40 40 43
49 48 46 47 48 48 47 37 39 39 32 35 35 35 36 39 37 36 42 38 36 33 37 30 27 36 37 35 32 31 29 28 35 37 36 36 33 38 43 41 37 37 39 38 38
49 48 46 47 48 47 41 39 41 41 34 34 34 33 34 38 36 36 41 39 36 35 33 29 34 37 35 33 30 29 27 29 33 39 39 36 34 36 38 38 37 38 38 38 38
49 47 46 47 45 43 38 40 41 40 24 29 34 35 37 36 32 38 41 39 32 33 33 33 36 34 33 32 31 28 32 30 34 35 31 37 26 27 31 33 34 34 37 38 38
49 48 47 47 46 40 40 41 42 36 5 27 35 39 38 34 33 37 40 40 33 33 32 31 34 34 32 32 32 29 33 33 34 31 28 31 28 27 28 27 29 31 33 37 37
50 48 47 47 46 43 43 41 39 26 0 30 36 36 35 33 33 37 37 39 38 32 33 33 36 36 35 35 34 32 32 32 35 32 27 27 28 26 27 26 26 27 30 32 36
49 48 47 47 42 43 43 39 28 9 27 27 31 33 30 30 31 33 33 31 28 26 25 29 31 36 36 32 33 33 34 27 26 25 24 26 28 26 26 27 24 25 27 30 32
49 48 48 47 44 44 42 33 12 22 26 30 31 31 29 30 30 31 30 30 32 30 30 25 18 31 36 32 30 31 33 25 17 19 20 26 23 22 25 27 27 26 29 30 31
49 47 44 45 45 44 38 28 -3 25 31 31 32 29 28 30 28 29 29 27 28 30 27 27 25 33 35 36 32 31 29 29 27 26 21 20 21 22 23 21 25 26 28 28 29
45 45 44 46 45 43 36 24 27 33 32 32 24 29 25 29 28 28 28 28 27 28 29 29 28 32 34 36 37 32 32 29 30 22 18 17 20 17 18 21 24 26 27 28 28
45 41 46 46 44 39 28 24 32 32 32 30 29 28 26 25 28 28 27 27 28 31 30 30 31 31 35 33 31 33 31 30 27 24 18 13 14 17 19 19 24 27 29 30 30
43 38 46 44 37 37 33 33 31 31 33 32 32 31 29 27 25 27 26 28 34 33 28 32 33 28 29 37 38 34 31 30 24 23 22 18 16 23 25 26 29 32 33 33 34
41 40 46 44 30 33 34 25 30 31 32 32 30 32 31 26 23 24 23 28 30 32 32 35 31 25 27 32 36 34 34 33 31 30 22 19 16 23 24 30 31 30 32 33 34
39 34 38 41 39 35 28 22 24 31 32 33 30 30 28 26 26 24 19 22 30 32 36 35 30 27 22 27 32 30 34 34 32 28 24 23 19 21 22 25 30 31 32 34 34
36 31 35 32 34 33 26 21 23 25 29 30 28 26 24 22 22 22 19 19 28 32 34 33 26 29 30 31 32 31 33 33 32 31 25 25 25 25 23 25 25 27 28 28 30
34 30 31 27 28 30 21 16 16 23 27 25 23 19 18 18 18 15 20 20 21 27 29 31 25 26 20 28 31 29 32 33 33 34 31 31 29 29 28 28 29 30 30 29 28
36 31 23 24 24 20 18 15 18 21 21 20 21 18 16 17 24 24 24 23 23 23 25 26 25 19 16 24 29 24 28 32 32 34 34 31 32 32 32 32 32 31 30 29 29

GFSSW_sfc_30mbdewp_099.txt.gz
Dewpoint
49 48 49 50 51 48 50 50 48 49 47 46 47 46 48 49 48 41 36 43 49 52 51 49 50 49 51 47 47 50 42 34 34 31 30 35 38 43 49 50 56 57 59 61 66
49 48 46 49 49 49 48 49 49 47 48 47 46 46 48 49 44 39 39 47 50 52 48 48 44 49 45 44 44 47 41 37 46 44 35 37 39 44 47 52 56 60 63 64 65
50 48 48 46 49 49 48 48 49 48 47 47 46 47 49 47 37 34 41 46 50 51 50 51 50 48 44 43 42 47 40 46 48 49 46 38 40 43 47 47 54 58 61 62 63
50 49 48 47 47 49 47 48 48 48 48 48 48 49 48 40 28 35 42 43 47 50 47 45 47 43 42 36 42 40 48 48 48 48 46 43 41 42 41 43 52 61 62 63 62
50 50 50 48 47 49 47 48 48 49 49 48 49 49 42 32 33 35 41 41 43 48 46 44 44 43 40 40 40 39 43 46 48 48 47 45 44 41 46 57 60 62 62 62 62
50 50 50 48 47 47 47 48 49 49 50 49 49 48 35 31 35 35 38 40 41 44 45 42 41 44 43 41 37 41 46 44 47 46 47 45 43 42 42 57 59 60 60 62 62
50 49 50 48 47 47 48 48 49 49 50 49 49 46 34 32 35 37 40 43 41 45 44 45 46 44 44 40 43 44 39 40 43 45 45 47 40 43 46 50 57 58 58 60 61
50 50 49 48 47 47 48 49 49 49 49 50 49 43 29 33 38 39 40 46 46 48 49 50 49 45 43 45 43 40 38 34 42 44 44 44 39 43 46 43 46 52 57 58 60
50 50 49 48 47 48 49 49 49 49 49 49 42 37 31 38 38 40 40 41 44 43 42 47 46 41 40 38 36 37 32 33 36 44 42 43 40 41 44 43 41 41 48 55 57
51 50 50 48 47 49 49 49 49 46 41 44 40 28 32 35 37 40 42 43 42 39 35 38 36 36 36 32 26 33 33 36 34 41 42 39 40 43 44 43 42 40 40 44 51
51 50 49 47 47 49 48 40 36 33 35 32 32 32 34 37 40 37 42 41 39 36 31 35 31 32 34 34 33 34 34 33 36 40 39 38 39 41 43 42 40 40 39 40 43
52 50 49 47 48 48 47 37 38 37 31 34 35 35 36 39 35 36 42 36 36 28 34 28 28 36 36 35 32 31 32 31 35 40 37 38 37 40 42 42 41 40 39 38 40
53 50 49 47 48 46 41 39 41 41 33 34 34 32 34 38 35 34 40 38 35 33 31 25 32 36 34 32 30 29 29 29 31 38 38 36 35 36 39 41 42 41 39 38 39
52 50 48 47 45 43 38 41 41 37 24 25 35 34 37 36 31 37 41 38 32 32 33 32 35 34 33 31 30 28 31 29 36 35 31 35 23 28 36 37 39 40 38 37 38
52 51 48 48 43 39 40 42 41 33 10 26 35 39 38 34 33 36 40 39 32 33 31 28 33 33 31 32 32 29 33 32 36 32 29 34 27 27 29 33 34 37 36 36 37
51 51 48 47 46 43 42 41 37 26 3 29 36 36 34 34 32 36 37 39 38 32 33 32 36 35 34 34 34 32 33 35 35 31 27 28 29 26 27 27 29 32 32 33 34
49 51 48 46 41 44 42 37 27 21 26 27 31 35 32 30 31 33 32 31 26 25 25 27 30 35 37 33 33 34 31 27 26 26 23 26 30 27 28 27 26 27 28 28 30
51 50 48 47 44 44 40 32 23 14 24 28 31 31 29 30 30 31 29 29 31 28 27 23 17 30 35 32 30 33 32 25 18 20 24 27 26 27 25 26 28 27 26 28 29
51 48 45 45 44 43 36 25 17 19 28 30 32 28 28 30 28 30 29 26 28 31 24 26 24 30 34 36 32 32 30 33 29 25 20 25 22 21 22 23 24 25 28 28 30
46 45 43 45 46 42 34 30 23 31 32 31 21 28 24 29 28 28 27 28 27 30 30 28 25 30 33 36 37 32 33 29 30 21 18 18 18 16 18 20 23 26 27 28 28
45 40 45 46 44 38 29 28 29 33 32 30 27 28 27 26 28 28 27 27 30 30 30 29 30 28 35 32 29 33 30 30 29 27 20 15 14 20 21 19 22 26 28 28 29
43 36 46 45 35 36 33 31 32 31 33 32 31 29 28 26 25 28 27 29 33 33 28 31 30 25 27 35 38 35 31 30 25 24 21 17 16 23 25 25 23 27 31 32 32
41 40 46 44 31 33 36 31 31 31 31 31 29 30 31 26 22 25 25 27 28 30 30 31 29 23 23 32 35 34 34 33 31 28 23 20 17 22 25 30 31 30 32 32 34
40 34 39 41 40 35 31 24 23 32 32 33 31 31 28 27 27 24 21 24 30 32 37 34 29 25 19 23 30 28 32 33 32 27 24 23 21 20 23 28 31 31 32 33 34
39 34 37 32 34 35 29 24 24 25 29 32 29 27 26 23 22 23 18 18 26 32 32 32 23 26 28 30 31 30 30 32 31 30 25 24 24 22 21 23 25 29 28 29 29
36 30 36 34 33 34 29 20 22 27 27 26 23 21 23 23 19 16 18 18 18 25 26 29 21 25 22 24 28 29 29 32 32 33 33 31 30 30 28 26 27 29 30 30 29
37 31 27 28 32 30 25 14 19 23 21 22 25 19 17 16 22 24 23 23 24 21 23 25 23 21 16 21 28 22 27 27 30 33 34 30 31 32 33 34 33 31 31 31 30

GFSSW_sfc_30mbdewp_102.txt.gz
Dewpoint
50 50 49 48 49 50 49 48 49 48 48 47 46 46 47 49 49 43 36 41 48 52 52 48 50 48 50 48 48 46 38 38 37 36 29 36 38 46 48 48 55 53 55 60 66
50 50 49 48 47 50 50 48 48 49 47 47 47 47 49 49 46 39 39 47 51 51 48 48 45 45 44 45 45 40 39 38 39 42 35 35 38 46 49 53 54 58 61 64 65
50 50 50 49 48 48 49 47 47 48 48 48 48 49 49 48 37 34 40 45 48 51 50 49 47 46 41 43 42 40 39 42 42 48 47 37 42 43 49 49 52 52 61 63 63
51 50 50 51 49 48 49 48 47 48 48 48 49 50 49 41 27 35 40 44 45 50 48 46 46 43 41 39 42 37 39 40 47 49 46 39 41 44 43 47 56 61 62 62 61
51 50 49 50 49 48 48 48 48 48 49 49 50 50 43 32 33 35 40 41 41 49 46 45 44 43 39 40 40 37 38 43 48 49 47 45 42 43 47 55 60 61 61 61 60
52 50 50 50 50 48 48 49 49 49 49 50 50 50 37 30 35 35 39 42 40 42 46 46 43 45 41 38 36 39 40 40 45 47 46 43 43 43 47 49 59 59 60 59 59
53 51 50 50 49 48 48 49 49 50 50 50 50 48 38 32 34 37 40 45 41 42 45 46 47 44 43 38 41 40 36 37 44 45 44 45 42 43 45 51 56 58 60 60 59
54 52 51 50 50 48 48 50 50 50 50 49 50 43 31 33 38 40 40 43 46 47 48 49 48 45 43 43 42 38 35 32 38 43 43 42 40 42 45 45 45 49 56 59 60
55 53 52 50 50 48 49 50 49 49 50 48 43 38 30 37 37 39 41 41 43 43 43 47 45 40 41 39 37 37 31 32 34 42 42 41 40 42 44 43 41 41 45 53 58
56 54 52 50 49 48 49 49 49 47 41 44 40 29 30 34 37 39 41 43 41 38 35 38 35 37 35 32 28 33 32 34 32 39 39 37 38 39 41 44 42 41 40 43 50
57 54 52 51 48 48 48 40 33 33 34 32 32 31 33 37 40 37 41 41 38 35 32 34 34 33 34 35 33 35 34 33 36 41 36 36 35 38 40 40 41 41 40 38 41
54 54 50 50 48 49 47 36 36 35 30 34 35 35 36 38 35 35 41 36 34 29 31 28 31 36 37 35 31 34 33 33 37 40 37 37 33 37 37 39 40 41 41 39 38
50 53 51 50 48 47 43 38 41 41 33 33 34 33 33 37 34 33 40 37 34 32 31 25 31 36 34 31 29 29 30 30 33 39 39 38 34 37 38 38 40 41 42 40 39
50 53 50 49 44 44 39 41 41 35 25 22 34 34 37 36 30 37 40 38 33 32 33 31 35 33 32 31 30 27 31 30 36 34 28 35 22 33 36 35 38 39 39 40 39
50 51 50 49 45 39 40 42 41 33 13 24 34 38 38 34 33 35 40 37 32 33 31 27 33 32 31 31 32 30 34 32 37 32 32 34 28 27 35 34 36 35 38 40 39
49 51 50 49 47 45 42 41 37 24 13 28 36 35 34 34 32 36 36 38 38 31 31 31 34 35 33 34 34 33 34 34 34 31 27 29 29 26 28 31 33 35 35 37 38
48 50 49 48 42 44 42 37 24 20 26 28 32 35 32 30 30 33 31 31 25 21 23 26 27 32 36 33 33 34 30 26 25 26 23 26 30 27 29 29 28 28 30 33 34
52 50 50 48 45 43 38 32 21 19 22 27 32 32 29 30 29 31 29 28 31 27 25 22 16 27 34 33 30 32 29 23 17 20 23 28 27 28 28 27 27 29 27 27 28
49 48 47 47 45 43 36 26 19 19 26 30 31 28 28 30 28 30 29 26 27 30 23 25 23 29 31 36 33 32 31 31 25 23 20 24 26 23 23 23 23 24 27 27 29
46 44 43 46 45 42 35 28 25 27 32 32 19 26 22 28 27 28 27 28 27 31 30 27 25 28 33 36 37 33 33 28 30 21 18 19 19 16 17 19 22 24 26 28 29
44 38 44 46 44 39 29 29 27 32 32 29 24 28 25 28 28 27 26 28 32 30 31 30 29 24 32 31 30 33 32 31 29 26 19 15 14 19 20 21 20 24 27 28 29
41 34 47 45 36 36 31 32 32 32 33 31 30 28 27 26 27 28 27 28 28 33 28 30 29 24 22 32 38 34 33 32 25 24 22 17 18 22 24 28 26 24 29 31 31
38 39 46 43 30 32 35 35 33 31 31 30 29 30 29 25 20 27 26 28 29 28 30 32 27 21 17 28 34 32 34 34 32 27 22 20 19 21 27 30 30 30 32 33 33
40 33 39 41 40 34 33 31 28 32 31 31 30 31 29 26 27 24 24 25 29 33 35 32 28 21 16 17 27 24 28 30 32 27 25 23 21 20 23 28 30 31 32 33 33
40 35 36 32 34 35 34 27 24 27 30 31 29 29 28 25 23 24 18 18 26 30 30 30 22 24 23 26 29 29 27 28 29 31 27 24 24 24 23 24 26 30 29 30 30
38 35 38 35 35 34 34 27 24 28 28 28 26 26 24 20 19 17 19 17 17 23 25 27 18 23 19 22 23 23 27 29 30 31 31 32 29 29 29 25 26 28 30 30 31
41 32 33 33 33 32 31 26 24 25 21 22 26 19 19 18 21 22 21 22 24 19 22 24 22 21 17 19 25 22 25 28 28 32 32 29 32 34 35 34 33 31 31 32 32

GFSSW_sfc_30mbdewp_105.txt.gz
Dewpoint
52 51 50 50 49 48 49 50 48 48 49 48 47 47 48 49 50 46 37 40 48 50 51 49 49 48 49 46 47 46 38 34 35 37 37 33 33 44 49 49 52 50 53 56 65
53 51 50 50 50 49 48 50 48 48 48 48 47 48 49 50 47 40 40 44 49 51 47 47 46 46 43 44 45 40 35 36 41 39 40 43 37 45 47 52 50 50 55 59 62
55 52 51 50 51 50 48 50 48 48 48 48 48 49 50 48 37 34 40 44 46 52 50 49 47 43 41 42 42 40 36 40 41 43 43 44 42 46 48 47 50 48 55 58 61
56 53 51 50 51 50 48 49 48 48 48 49 50 50 50 42 28 35 41 46 45 50 48 46 45 40 39 39 42 37 39 40 42 42 46 44 43 44 47 48 53 53 56 58 57
58 55 52 51 50 50 48 48 49 49 49 50 50 50 46 32 32 36 40 42 42 48 46 46 42 42 38 39 40 38 39 40 40 44 49 46 42 44 48 49 56 58 59 61 57
58 57 53 52 50 50 49 49 49 50 50 50 50 51 40 31 35 35 38 44 41 43 46 45 43 45 40 39 37 38 39 39 39 42 43 45 43 44 47 47 57 55 59 60 58
56 57 54 53 51 50 49 49 50 50 50 50 49 47 40 32 34 37 40 42 42 43 44 47 47 45 40 38 40 39 35 37 40 40 42 44 41 41 45 49 54 53 57 59 57
54 58 54 53 51 51 49 49 49 50 50 50 50 41 33 33 38 40 40 42 45 47 46 49 49 45 43 41 41 36 35 32 37 39 38 43 37 42 44 45 48 52 52 54 59
49 54 55 52 52 51 49 49 50 50 49 49 41 36 29 36 37 38 41 41 43 43 43 44 45 41 43 39 36 34 28 30 31 38 39 42 39 40 42 43 44 45 49 53 54
46 50 55 52 52 51 49 49 49 49 43 44 38 31 29 33 36 38 40 42 41 37 35 38 37 38 35 32 26 31 31 33 31 35 39 38 37 37 40 41 42 41 43 50 55
47 50 51 51 49 49 48 42 30 33 35 29 30 31 32 37 40 37 40 41 38 35 31 32 34 32 34 35 33 33 33 32 35 37 38 36 36 35 37 39 40 40 41 42 48
45 48 52 48 51 49 47 37 36 36 31 33 34 34 35 38 35 35 41 36 34 28 29 30 32 35 36 35 32 34 34 34 37 39 37 35 34 34 38 37 39 39 40 41 40
44 48 52 51 50 48 44 40 41 41 34 32 34 32 32 37 34 33 40 36 33 30 30 27 30 36 33 31 29 31 32 33 32 38 39 35 32 33 36 38 38 39 40 41 41
43 48 51 50 44 44 40 41 41 37 27 25 34 34 36 36 29 36 40 38 33 31 32 30 34 33 32 31 30 27 31 31 36 35 29 36 25 30 33 32 35 35 38 40 40
43 44 50 48 45 41 40 42 40 34 11 26 33 38 37 33 32 35 40 36 32 33 30 27 33 32 31 30 32 28 34 34 36 32 32 33 29 29 32 30 31 33 38 39 40
44 44 49 49 47 46 42 40 36 25 14 27 35 34 34 34 32 35 35 36 37 31 30 30 34 35 32 34 34 35 34 35 34 31 26 28 29 24 30 32 32 34 37 38 39
43 44 50 49 42 46 42 37 25 22 25 26 31 35 32 30 30 32 30 28 24 17 20 24 27 32 36 33 33 33 30 26 25 25 22 26 30 26 29 30 29 30 32 35 37
48 50 49 47 48 43 38 32 22 26 20 27 32 33 28 29 30 31 28 25 30 27 25 22 12 26 35 32 30 32 30 22 16 20 23 29 27 25 31 31 31 30 30 28 32
49 48 47 47 46 42 35 27 25 27 25 30 31 27 28 30 28 29 28 26 27 29 22 23 22 28 31 35 34 32 31 30 23 22 21 23 25 23 22 25 25 24 25 28 28
46 44 43 48 45 40 34 28 30 27 31 31 21 26 22 28 26 28 26 28 28 30 29 26 24 29 33 35 37 34 34 29 30 20 17 19 20 18 18 19 21 24 26 28 30
45 37 44 47 43 36 30 30 31 30 33 30 23 26 24 28 26 27 25 29 30 30 31 30 29 23 28 30 29 32 31 32 31 27 19 15 14 19 20 22 24 21 28 28 30
41 33 46 47 35 34 32 33 33 32 33 31 29 28 26 28 27 27 27 27 28 33 28 30 29 23 21 33 36 33 32 31 27 25 21 18 16 21 24 29 30 25 29 31 31
37 38 46 45 31 32 34 34 35 31 31 30 28 29 29 25 20 27 27 28 29 31 30 32 26 18 13 26 28 28 29 30 30 29 22 20 19 21 28 30 30 29 32 33 33
38 32 39 41 39 33 32 31 31 32 31 30 29 30 27 25 26 24 25 25 28 34 34 30 25 20 14 12 27 24 25 29 28 27 26 22 20 21 22 28 30 31 32 32 33
37 34 37 31 34 34 33 32 26 26 31 32 29 28 26 23 23 24 19 19 25 27 28 27 16 23 23 23 24 23 26 29 26 27 27 26 24 25 26 24 27 30 29 30 30
35 36 37 35 36 34 34 32 26 27 29 30 26 28 25 18 15 19 20 17 15 21 24 25 18 22 16 20 22 22 23 24 27 27 28 30 29 33 34 32 27 28 30 30 32
39 36 36 35 34 33 31 31 25 27 22 23 27 22 23 20 20 21 21 22 24 18 22 22 21 20 16 19 23 19 24 26 28 30 30 27 31 35 34 33 35 35 32 31 32

GFSSW_sfc_30mbdewp_108.txt.gz
Dewpoint
57 55 53 51 50 50 49 49 51 48 48 49 48 48 49 50 50 43 37 37 44 51 50 47 48 47 45 42 40 42 32 29 35 36 36 37 40 42 37 43 46 48 45 50 61
59 57 54 52 51 51 50 49 51 48 48 48 49 49 50 51 45 38 37 43 47 51 47 46 43 44 40 35 38 37 31 34 40 42 39 42 43 41 36 40 46 47 54 59 63
57 59 56 53 51 51 50 48 49 48 49 48 49 50 51 48 36 33 39 45 47 52 50 49 47 42 38 41 37 35 32 37 41 43 45 42 40 43 39 37 43 46 51 56 55
55 57 58 54 52 50 51 49 48 48 49 49 49 50 51 39 29 36 40 45 47 49 46 45 43 39 37 37 41 32 39 41 42 45 42 43 40 43 42 40 45 46 50 56 55
54 55 58 55 53 51 51 49 49 49 49 50 50 50 44 33 32 36 39 42 42 46 45 44 42 40 35 37 40 36 39 41 41 43 41 42 43 43 42 46 50 48 53 55 56
50 52 58 54 52 51 51 50 49 50 50 50 50 50 40 31 35 36 38 42 42 43 43 44 43 44 39 38 37 39 38 39 40 39 41 42 43 44 41 45 47 51 51 53 55
45 50 53 54 52 51 50 50 49 50 50 50 50 48 40 31 34 36 41 41 44 43 44 48 47 45 40 37 39 39 36 37 38 38 38 41 40 43 42 44 46 51 52 56 54
44 48 51 55 52 51 51 49 49 50 50 50 50 45 31 35 35 39 39 41 44 47 47 49 48 46 42 39 38 34 35 32 37 38 39 40 36 41 43 44 46 47 51 56 56
44 47 51 53 52 51 50 49 49 50 50 49 47 37 28 35 36 38 40 40 41 43 45 45 46 42 40 36 32 33 27 31 29 39 39 38 37 41 41 44 47 48 51 53 56
44 44 47 48 52 50 49 49 49 49 44 43 38 34 30 32 36 38 39 42 41 39 38 40 39 39 36 35 26 27 28 25 26 35 37 36 37 39 40 43 45 47 51 52 54
43 44 45 48 51 50 48 43 34 34 36 30 29 30 32 36 39 38 40 40 38 34 33 34 36 32 33 34 34 32 29 20 33 35 36 36 36 37 37 42 42 45 48 51 53
43 43 51 52 49 50 47 37 36 37 33 34 34 34 35 37 35 35 40 36 33 30 31 32 31 34 36 35 33 33 31 31 34 36 37 35 34 36 35 39 41 42 43 48 50
43 43 49 51 50 48 43 40 42 41 35 33 34 32 33 37 33 34 39 36 33 29 31 30 31 35 34 31 31 33 30 32 30 36 37 35 32 33 36 38 39 40 42 42 48
44 42 44 50 45 45 41 42 42 38 30 29 33 34 37 36 31 36 40 38 34 31 32 29 33 33 31 30 30 26 31 32 34 33 30 33 23 33 32 36 37 39 40 42 42
45 42 42 49 45 43 41 42 41 36 4 30 34 38 37 33 33 35 40 37 30 32 32 28 32 31 29 29 32 29 34 31 34 31 29 31 27 28 31 31 34 38 38 40 42
46 43 43 49 47 46 44 41 38 28 10 27 35 32 32 33 31 34 35 37 37 32 31 31 33 35 32 34 34 36 34 34 33 31 24 23 27 16 28 31 32 35 37 39 41
45 43 45 47 42 47 43 36 28 22 26 27 31 34 31 29 30 31 29 27 23 21 25 26 26 31 36 32 33 34 30 24 23 25 19 26 29 20 26 30 30 30 33 34 39
43 47 50 47 49 46 40 32 22 29 27 29 33 32 26 28 30 31 28 24 30 26 26 23 18 27 32 33 31 29 30 21 14 16 19 28 25 21 30 30 31 31 30 31 32
45 48 46 48 48 44 34 28 26 29 27 30 31 26 27 29 29 29 27 25 27 28 21 21 20 28 30 34 34 34 30 31 25 22 22 22 24 23 21 24 27 27 26 28 29
43 44 44 49 47 41 32 29 30 30 30 32 23 26 20 27 26 27 24 28 28 30 29 26 23 29 32 34 34 33 35 29 30 21 15 17 18 16 20 21 22 24 26 29 32
43 38 44 49 45 37 29 31 31 32 32 31 25 25 22 26 26 25 24 30 29 31 31 29 28 23 27 27 24 27 29 32 31 29 17 12 13 18 22 26 27 25 28 29 34
41 33 46 47 34 35 32 32 33 32 34 32 29 28 25 28 27 26 26 27 28 33 28 31 28 22 20 28 32 30 30 30 26 24 27 20 15 22 27 30 28 26 30 31 34
37 38 46 45 30 32 34 33 34 31 32 31 29 30 29 27 20 26 27 28 31 32 30 29 26 16 13 27 27 26 27 29 29 30 26 20 18 24 27 29 30 31 32 32 32
38 32 38 41 39 34 30 30 30 33 32 31 29 30 27 25 26 24 25 26 29 33 32 29 27 22 13 18 25 22 23 25 27 24 25 24 22 22 26 26 29 31 31 32 32
37 34 37 30 34 33 31 32 28 27 32 32 29 28 24 22 24 23 21 21 23 26 27 25 17 22 19 19 20 21 20 20 25 24 24 28 30 28 29 30 26 29 30 31 32
35 34 37 36 37 33 32 31 28 27 30 30 28 29 26 18 14 18 21 19 16 22 24 26 22 22 18 20 24 19 19 22 23 23 25 25 27 29 29 33 32 30 30 31 32
39 38 34 36 35 33 30 31 26 28 23 23 27 26 24 21 21 22 22 23 25 22 23 22 22 21 18 21 25 21 25 26 28 29 29 26 29 33 33 34 34 34 35 35 35

GFSSW_sfc_30mbdewp_111.txt.gz
Dewpoint
55 58 58 56 53 51 51 51 49 51 48 48 49 49 49 50 51 42 36 34 38 49 51 45 44 45 46 42 39 37 32 28 24 25 29 37 43 42 44 45 40 39 45 49 61
53 55 58 57 53 52 51 51 49 50 48 49 49 49 49 51 44 36 35 41 46 49 45 44 42 42 39 37 36 36 32 28 26 35 40 39 41 43 43 43 38 43 46 59 65
52 55 57 58 54 52 51 51 49 49 49 49 49 49 50 50 35 31 41 44 47 50 46 47 44 39 35 32 32 33 33 28 35 42 43 40 41 43 45 43 39 43 54 56 63
49 50 54 55 55 52 51 51 49 49 49 49 49 50 50 42 29 34 40 44 47 47 45 42 41 37 35 34 35 33 32 35 39 42 42 41 44 43 44 42 44 49 54 56 61
45 46 51 53 55 53 51 51 49 49 50 50 50 50 46 33 31 36 39 40 44 44 44 42 41 38 36 34 35 34 35 39 41 42 42 42 40 40 42 42 43 50 54 56 59
45 45 49 52 56 52 51 51 50 49 50 50 50 51 43 31 35 37 39 41 44 43 42 43 42 42 41 36 35 35 37 38 39 40 41 39 37 40 44 43 45 47 50 54 54
45 44 47 52 55 53 52 50 50 50 50 51 50 47 41 34 34 36 39 40 43 44 44 47 46 45 41 37 38 37 35 39 38 37 38 39 35 39 43 44 43 43 49 53 54
45 44 44 48 50 54 52 50 50 50 50 51 50 45 35 34 35 36 38 39 43 44 46 46 48 47 42 39 37 34 36 33 35 37 39 36 33 39 42 44 41 42 48 52 54
45 45 44 45 48 51 52 50 49 50 50 50 47 41 29 33 33 37 38 38 40 41 46 46 47 43 39 36 33 30 26 33 29 37 38 35 32 38 43 43 40 42 46 51 54
45 45 44 48 49 49 52 50 48 49 47 43 40 35 32 27 35 37 38 41 40 39 38 40 40 39 38 36 30 28 25 25 27 35 34 33 35 39 40 41 40 45 42 50 54
46 45 44 49 52 51 49 45 39 38 36 31 29 28 29 33 37 37 38 39 38 36 33 36 36 33 31 31 33 30 27 23 22 34 33 32 35 38 38 42 41 45 50 50 51
48 46 44 47 51 50 48 39 35 40 31 33 32 30 33 35 33 35 39 35 33 30 32 31 31 33 35 33 32 31 26 25 31 33 34 32 33 38 37 39 41 45 50 51 54
48 47 44 44 50 48 44 40 42 41 33 34 33 31 31 35 31 33 37 35 31 29 29 29 32 33 32 31 28 29 28 27 28 33 34 35 33 37 36 39 40 43 48 51 54
47 47 44 43 46 45 41 41 42 42 34 31 32 33 35 36 31 34 38 38 31 30 29 27 30 31 30 29 28 25 30 30 30 30 24 30 29 35 36 38 39 41 45 47 51
46 47 44 43 44 44 43 42 42 39 22 30 33 36 36 33 31 33 39 36 30 27 31 29 30 30 27 26 31 28 32 30 29 28 26 25 24 31 35 35 37 40 41 44 49
46 46 44 40 47 46 47 42 39 30 22 29 33 30 31 31 30 33 33 36 35 29 27 27 31 32 32 33 32 33 31 29 29 28 24 21 23 26 31 35 36 38 40 42 44
47 47 43 42 40 47 45 38 30 27 27 29 30 30 27 27 28 29 27 26 24 21 26 25 23 27 34 30 29 30 28 24 23 24 18 25 23 21 24 29 35 37 38 40 43
46 44 44 45 44 47 41 33 27 29 27 30 31 30 24 25 27 28 26 21 27 23 23 20 20 24 27 30 30 29 28 24 19 17 15 26 21 25 26 29 30 31 33 34 38
44 45 46 47 49 48 35 29 28 30 27 29 29 24 25 26 27 26 22 21 25 25 20 18 17 24 28 31 31 31 28 30 26 21 16 17 21 20 22 25 28 28 28 29 30
41 41 44 50 48 43 34 30 30 29 30 30 19 23 16 24 23 22 19 27 27 29 28 24 20 25 26 29 32 29 33 27 27 19 13 14 15 17 22 24 24 25 26 29 32
42 38 44 49 46 36 30 30 30 31 32 28 22 20 19 21 22 19 20 28 29 30 29 25 23 22 21 24 23 25 27 29 30 28 23 16 17 23 26 27 27 24 28 31 36
41 34 46 47 35 35 31 31 33 32 32 31 27 25 21 24 22 21 21 25 30 32 25 28 24 21 15 24 28 27 26 28 23 25 26 24 23 26 27 26 26 28 30 32 35
37 37 46 45 31 32 32 31 33 30 31 29 26 28 27 24 19 23 25 27 30 31 28 26 25 18 16 25 26 23 24 24 29 30 26 22 25 27 27 28 30 30 30 31 31
37 32 38 40 38 35 29 27 29 33 31 30 27 27 24 22 23 21 23 25 28 29 29 28 28 23 13 18 22 20 20 18 25 25 22 24 28 27 29 29 28 30 30 30 30
36 34 37 32 34 34 31 31 28 26 31 30 27 25 21 18 20 19 22 23 23 24 24 22 20 20 18 19 19 18 19 18 21 24 23 23 24 29 29 29 31 29 31 32 32
34 34 34 37 35 32 31 30 28 26 28 28 25 27 25 17 14 12 18 19 15 20 22 25 24 23 20 21 21 17 16 17 20 22 23 25 24 28 32 33 33 32 31 33 33
39 38 36 36 35 31 29 29 27 28 24 24 27 25 24 21 21 21 21 21 24 24 22 22 24 23 17 21 25 23 23 25 27 28 29 25 27 33 32 32 33 34 35 34 34

GFSSW_sfc_30mbdewp_114.txt.gz
Dewpoint
49 54 55 57 58 55 53 52 52 50 51 49 49 49 50 50 50 46 39 37 38 44 51 48 44 43 44 44 43 41 35 31 29 28 27 24 36 35 38 42 45 46 49 50 57
47 50 51 55 56 57 54 52 51 50 50 49 49 49 50 51 47 42 37 40 44 49 47 42 41 43 43 42 40 39 33 30 30 28 27 33 38 40 38 39 42 46 48 48 55
44 47 46 51 54 57 54 53 51 50 49 49 49 49 50 51 42 35 42 43 47 50 47 45 45 41 37 36 36 35 32 32 32 33 37 41 40 42 42 39 41 44 47 51 56
45 45 45 50 53 57 54 52 51 50 50 50 50 50 50 48 30 38 43 44 45 47 44 44 43 37 34 34 34 31 33 33 33 39 40 39 41 38 39 39 42 43 47 49 54
45 45 45 46 51 55 55 53 52 50 50 50 50 50 48 38 33 41 42 42 43 43 44 43 40 39 37 37 39 35 33 35 36 40 41 41 38 39 38 38 43 46 46 49 51
46 45 45 45 48 51 54 52 51 51 50 51 50 50 46 36 35 36 38 40 43 43 43 42 41 42 40 40 38 37 37 35 38 39 40 38 34 38 35 37 42 44 47 48 51
47 46 45 45 45 48 54 54 52 51 50 51 50 48 42 39 35 35 37 39 42 44 44 46 46 43 42 38 38 36 36 37 38 39 38 39 32 28 32 40 45 46 49 50 52
47 46 45 45 45 47 49 54 52 50 50 51 50 48 39 36 35 34 37 38 42 44 46 46 47 46 43 41 38 34 33 33 34 38 37 39 26 27 43 40 44 48 49 49 51
49 47 46 46 45 51 50 52 52 50 50 50 48 45 33 34 31 34 38 37 39 40 44 45 46 43 41 37 35 33 30 32 33 38 37 38 33 35 42 44 44 47 46 50 54
49 49 47 46 47 52 52 52 51 49 49 46 44 36 35 28 34 37 38 39 39 40 41 40 41 39 37 36 30 33 34 31 31 35 37 35 35 33 39 44 43 45 44 50 55
48 49 48 45 46 51 49 45 42 40 40 35 34 32 28 32 35 37 37 37 38 38 34 39 36 34 37 34 31 32 29 28 25 35 34 33 31 34 39 38 41 40 41 51 53
46 47 48 45 46 50 48 41 39 41 33 37 33 31 30 33 33 35 38 35 34 32 33 33 31 32 35 32 31 30 30 29 31 34 33 32 32 34 37 39 41 42 44 51 54
46 47 47 46 43 48 45 43 43 43 35 33 33 31 31 33 31 34 36 35 32 29 29 26 29 31 31 29 28 29 32 29 29 32 33 33 32 33 38 39 39 43 46 49 52
46 47 45 45 41 45 42 43 42 42 33 32 32 33 32 35 31 34 38 37 32 29 31 29 29 28 29 28 29 28 34 30 27 27 29 33 24 33 36 37 40 41 48 52 53
46 46 46 46 39 42 46 46 42 40 22 30 32 37 35 33 31 34 39 36 30 29 29 28 30 31 30 29 31 29 31 30 28 26 27 25 24 36 36 36 38 41 46 51 54
47 46 47 43 43 42 48 44 40 30 23 29 32 31 30 30 29 32 32 35 33 28 26 26 25 29 31 31 31 30 30 30 28 27 24 23 23 31 33 36 38 40 43 47 51
47 47 47 41 40 48 48 40 30 25 26 29 28 29 27 26 27 28 27 26 23 21 24 25 23 25 31 29 29 30 28 23 23 23 21 24 22 25 26 30 38 40 42 44 49
45 45 45 43 42 46 43 35 25 27 26 30 29 27 24 25 27 27 25 23 26 23 23 19 19 23 25 26 27 29 30 26 21 22 25 24 26 20 26 29 38 40 36 42 45
45 44 44 47 48 46 38 29 29 28 26 29 27 24 25 24 27 26 20 22 26 27 22 23 17 23 26 25 30 28 27 30 29 23 19 19 20 23 26 26 27 32 34 32 31
43 41 43 49 48 43 36 32 30 29 30 30 20 22 21 24 24 21 18 26 27 28 27 24 21 25 22 26 29 29 32 26 27 20 15 17 19 23 26 26 27 28 30 33 37
43 38 45 49 44 38 32 31 29 32 32 29 22 17 20 21 20 17 20 27 29 30 29 26 23 23 22 24 24 28 26 27 29 27 23 22 25 27 27 26 28 30 33 36 38
41 33 44 47 35 36 33 32 33 32 33 30 26 24 22 22 21 21 24 26 31 31 26 26 24 21 22 27 26 25 24 27 23 22 27 27 26 27 28 30 30 30 31 32 35
37 37 44 45 31 33 30 29 31 31 30 27 25 25 24 22 20 22 25 26 28 30 27 28 24 19 21 27 23 22 21 21 29 29 23 23 26 33 30 28 29 30 30 31 32
37 33 38 39 39 36 29 29 28 33 31 29 27 24 21 20 20 21 23 26 27 27 29 27 25 22 18 16 18 20 20 19 24 23 22 25 27 33 29 31 29 31 32 33 33
36 34 36 32 34 34 30 30 26 28 30 29 25 24 21 17 17 18 21 24 22 22 23 24 19 22 20 19 19 19 18 18 19 21 22 23 22 28 30 32 32 31 32 34 34
34 33 32 36 34 32 31 29 26 26 25 25 26 25 21 18 18 19 19 19 16 20 24 25 24 22 20 21 22 18 16 16 19 22 24 25 26 33 32 32 33 34 34 35 34
38 37 37 34 33 31 30 29 27 27 24 24 25 24 23 22 21 20 21 23 25 25 22 23 24 23 18 21 24 22 23 24 26 26 27 24 30 35 34 32 33 34 34 34 34

GFSSW_sfc_30mbdewp_117.txt.gz
Dewpoint
47 46 48 48 52 55 57 55 53 53 51 51 50 49 49 50 51 49 45 47 45 44 52 49 48 46 45 43 42 42 36 30 31 30 31 31 29 31 36 37 36 39 42 47 50
44 48 48 45 49 53 55 57 53 53 50 50 50 50 50 50 50 47 47 42 44 47 49 48 42 44 43 43 42 39 35 32 33 32 30 30 33 36 39 37 38 39 40 45 49
46 44 47 46 47 52 54 57 54 52 51 50 50 50 50 51 46 39 44 43 46 49 49 46 45 44 41 40 40 38 32 34 32 33 33 37 35 41 40 39 39 38 38 43 48
46 46 45 45 46 49 52 56 53 53 50 50 49 50 50 50 26 39 45 46 47 48 47 44 44 43 35 35 37 33 36 34 33 34 34 35 39 40 40 39 39 40 42 43 47
48 47 46 46 46 46 50 56 54 53 51 50 51 50 49 44 40 44 44 45 43 46 44 44 43 41 38 37 38 37 38 36 35 37 36 40 39 39 36 37 39 40 40 45 47
49 48 48 47 46 45 48 51 54 52 51 50 51 50 48 37 38 41 42 41 43 44 43 44 43 44 41 40 39 39 39 39 38 36 40 39 40 40 37 38 38 38 40 48 47
49 50 48 47 47 46 48 50 54 52 51 50 51 49 45 39 39 39 38 39 44 44 42 45 46 41 43 39 40 38 36 36 36 37 38 39 38 38 37 35 36 34 42 48 49
48 48 50 48 47 46 50 51 52 53 51 50 50 48 40 42 42 39 35 36 45 45 45 46 47 46 43 41 39 36 34 30 33 38 40 38 31 34 38 42 40 44 46 49 50
47 48 49 49 47 47 52 52 52 52 51 50 49 46 38 37 32 32 33 37 43 43 44 46 45 42 43 39 34 35 29 31 33 34 38 37 34 35 37 41 42 45 47 48 51
46 47 48 48 47 47 51 51 52 50 49 48 45 39 36 30 34 37 38 38 39 41 43 42 41 38 38 35 27 31 32 34 33 34 37 37 36 37 38 39 43 45 46 47 53
46 47 48 47 46 47 49 45 42 42 43 36 37 35 32 33 36 36 38 38 40 39 35 38 37 33 34 35 37 36 31 32 34 37 36 36 36 35 34 38 39 43 43 47 52
44 47 47 45 46 45 48 41 40 41 33 40 37 36 34 33 33 37 38 36 36 34 35 36 33 34 35 35 34 30 30 34 38 36 35 33 32 33 35 37 39 39 41 49 54
46 46 46 45 46 46 46 42 46 44 36 34 37 34 32 33 33 36 37 37 33 30 30 30 29 30 30 30 29 28 30 32 31 30 34 33 30 33 35 37 39 39 46 51 52
45 46 45 46 42 43 43 46 44 44 33 32 32 33 33 35 33 36 38 37 34 29 30 30 32 30 29 29 31 28 32 30 29 29 25 32 25 32 37 37 38 40 48 50 50
46 45 46 46 41 40 45 48 43 40 20 32 33 36 35 34 32 35 39 37 31 31 29 24 28 27 26 30 30 30 31 29 30 28 27 25 28 32 39 38 40 42 47 51 53
45 46 47 44 44 45 47 47 41 30 21 29 32 32 31 31 29 33 33 36 33 30 27 26 27 27 29 29 31 31 30 29 29 29 22 26 28 25 26 36 41 41 44 51 53
45 46 45 44 41 47 46 41 29 21 25 28 28 31 31 26 27 28 29 27 22 19 20 24 24 25 26 26 29 28 28 21 22 22 21 25 24 25 26 40 41 40 41 48 52
45 45 47 44 45 44 43 35 23 26 27 30 29 28 25 26 27 27 26 25 27 26 23 21 17 23 26 25 27 28 29 25 19 20 23 26 20 25 26 30 43 44 42 41 47
45 44 45 48 48 46 38 28 28 27 28 29 28 25 25 24 26 26 25 25 28 28 24 22 18 25 24 28 30 27 25 29 28 29 24 23 26 26 28 28 33 40 41 41 39
44 41 43 48 48 43 36 28 30 31 32 30 22 21 23 24 24 21 25 28 29 31 30 25 21 25 25 26 26 29 31 22 24 19 19 23 27 26 28 29 31 33 36 37 41
42 38 42 46 45 38 31 30 31 32 32 27 25 21 22 21 20 20 25 27 31 31 29 24 23 22 24 25 24 25 25 27 27 27 22 20 25 30 28 29 30 31 32 36 39
39 34 42 46 34 36 30 31 33 32 32 28 26 24 23 22 22 23 24 25 28 31 25 25 25 20 25 24 25 25 22 25 21 20 28 27 26 34 34 30 31 31 31 32 35
37 38 42 43 30 31 30 30 32 32 30 28 25 25 23 20 21 23 26 26 28 26 24 26 22 15 20 18 18 20 20 24 28 28 22 23 26 33 32 32 31 32 33 33 32
37 30 35 38 38 35 30 30 28 32 30 29 26 24 21 20 20 21 24 25 26 24 29 29 24 19 12 16 19 17 18 20 21 18 22 21 22 30 30 31 33 34 35 34 34
37 34 36 29 32 33 31 29 26 24 26 28 26 22 20 15 16 18 22 23 21 20 24 24 14 20 19 20 20 20 17 18 17 21 21 22 28 31 32 32 33 34 34 34 34
33 32 33 35 35 32 30 28 27 27 24 23 26 23 20 19 19 18 20 21 18 21 24 25 18 21 20 22 22 17 17 17 18 22 24 25 29 34 34 33 35 35 34 34 35
37 38 36 33 32 31 30 29 26 25 24 23 22 23 21 20 20 20 23 25 25 24 21 22 22 23 15 21 22 18 20 23 27 26 27 23 30 34 32 35 36 36 35 35 35

GFSSW_sfc_30mbdewp_120.txt.gz
Dewpoint
45 44 46 48 46 48 53 55 57 55 54 51 50 49 48 49 50 50 46 47 49 48 49 49 47 46 47 43 43 42 35 31 30 29 29 32 31 32 31 32 35 38 37 38 45
47 48 46 44 45 47 51 53 55 55 53 51 50 50 50 50 49 47 47 49 48 48 49 46 44 45 44 43 42 39 35 31 32 32 32 33 32 32 37 36 36 36 39 41 42
48 48 47 47 46 46 49 52 56 55 53 51 50 50 50 51 43 41 48 49 45 47 49 48 44 44 42 42 40 39 33 33 34 34 35 33 33 37 38 36 37 34 32 36 41
50 50 48 48 47 46 46 51 55 54 53 51 49 50 50 49 20 39 47 48 47 49 49 46 44 43 40 37 39 36 37 36 33 34 34 32 33 34 39 37 36 38 39 40 41
49 49 50 49 47 47 46 50 55 53 53 51 51 50 49 44 41 41 46 47 47 47 46 44 43 42 37 37 37 37 36 37 38 37 36 36 35 35 36 38 40 40 40 39 42
48 48 49 50 48 48 46 48 52 56 52 50 51 51 46 30 39 45 45 45 43 44 44 45 43 43 40 40 39 38 38 39 39 39 38 35 35 39 38 39 40 39 38 38 40
47 48 48 49 50 48 46 50 51 53 51 50 51 49 44 36 41 41 40 42 43 44 43 44 46 41 42 39 40 39 38 38 37 38 39 38 37 36 38 39 38 38 38 38 39
47 47 48 48 49 48 46 51 51 53 52 50 51 48 38 43 43 42 38 35 42 45 44 46 47 45 44 42 40 38 36 31 32 36 38 38 32 34 35 38 38 38 38 37 39
43 46 47 48 48 47 47 51 51 53 52 50 49 45 36 42 35 35 34 34 43 45 46 46 45 41 43 39 34 35 30 32 34 35 36 38 34 36 37 38 39 40 42 40 42
46 44 47 47 46 46 48 49 51 50 49 49 46 39 38 31 34 37 35 39 39 42 42 44 42 38 38 36 28 30 30 32 31 34 37 36 36 37 37 37 37 37 43 49 49
46 47 47 45 47 46 48 44 42 39 44 37 37 35 33 33 36 35 37 37 40 39 36 40 36 32 32 35 36 35 34 33 32 37 37 35 35 35 37 37 36 38 45 48 50
43 47 46 45 46 45 48 40 39 40 34 39 38 39 37 34 32 36 39 36 37 34 36 35 33 34 35 35 34 32 32 29 34 37 35 35 34 35 39 35 36 42 44 45 53
47 45 45 46 46 45 45 43 46 44 34 35 39 37 32 33 32 36 37 37 34 32 31 29 30 32 29 26 30 30 28 30 28 29 31 34 30 34 37 42 43 43 46 48 52
46 46 45 45 41 43 43 47 47 44 32 31 32 34 34 35 32 36 38 37 34 30 30 29 32 27 24 25 30 27 31 30 28 28 26 30 25 30 32 37 43 43 48 51 53
46 46 47 46 39 41 43 47 46 40 19 33 33 36 35 34 33 34 39 37 32 29 28 16 25 26 26 26 29 28 29 30 29 28 27 27 29 27 31 36 39 42 44 52 53
46 46 45 44 43 45 46 47 40 27 19 28 30 32 30 31 29 33 33 37 33 30 28 26 28 27 26 27 29 29 30 29 29 28 25 25 30 25 28 38 39 40 42 51 52
47 48 45 44 40 46 45 40 26 19 26 28 28 31 30 26 27 28 28 26 25 19 19 23 23 25 27 26 28 29 26 21 21 22 24 27 26 29 30 40 42 40 42 42 51
46 46 47 47 48 46 42 34 21 27 28 31 29 28 25 26 26 27 25 25 28 27 22 21 17 23 26 26 27 28 28 23 18 20 24 26 25 29 30 36 40 42 43 41 45
47 44 45 45 48 46 37 27 27 27 31 29 28 25 25 24 25 25 26 27 28 29 25 22 19 25 26 27 29 27 26 32 28 29 20 26 27 28 30 30 34 39 41 39 41
42 41 41 45 47 41 31 30 30 31 32 30 22 23 22 23 22 21 26 28 30 31 31 22 21 23 25 27 24 27 29 22 24 18 18 24 26 27 31 29 30 31 35 38 40
40 36 40 44 43 34 29 30 31 33 32 26 24 22 22 21 21 23 23 26 28 30 27 25 22 19 27 24 21 20 22 26 25 26 20 19 25 34 31 30 32 32 32 33 38
39 32 41 44 31 33 29 31 32 31 31 26 25 23 23 22 22 24 21 24 27 29 20 27 22 21 24 26 23 22 20 25 18 21 24 23 25 32 32 33 33 33 33 33 34
37 36 40 40 27 29 30 31 32 30 30 27 24 25 22 19 18 24 24 26 25 25 24 26 20 17 14 14 16 19 19 23 25 23 23 21 25 31 32 33 34 33 34 33 33
35 30 33 36 37 34 29 27 29 30 28 28 24 23 21 19 21 21 23 24 24 24 29 28 21 16 5 13 18 17 18 20 20 20 20 21 23 30 32 32 33 33 34 34 35
35 33 35 30 32 33 30 28 24 23 26 26 24 21 19 14 16 18 21 23 20 24 25 20 14 19 19 21 20 20 18 17 17 23 20 21 25 30 33 33 34 34 34 34 35
29 32 34 32 33 32 30 26 26 26 23 22 23 22 20 17 19 15 19 20 17 22 21 25 17 21 18 23 24 18 18 17 18 21 22 25 26 33 34 35 35 35 35 35 35
38 38 36 31 31 30 29 29 25 25 24 23 22 23 19 19 19 22 24 25 24 23 20 21 21 22 12 21 20 11 20 19 26 26 26 23 26 33 32 34 35 36 36 36 37